GFSWCAN_sfc_rhum_000.txt.gz
RH
95 98 99 97 96 96 96 97 97 97 96 95 96 96 96 94 94 93 98 96 87 94 86 80 71 79 84 84 89 81 83 90 98 99 99 99 96 91 93 82 81 74 84 95 98 98 95 66 71 78 72 79 72 74
99 100 99 98 97 96 96 96 97 98 98 97 95 96 97 94 94 90 96 96 95 89 74 95 89 81 71 65 81 89 79 84 95 98 99 99 100 99 92 95 81 87 76 82 84 86 68 58 67 62 66 80 86 93
98 99 99 99 98 97 96 96 97 98 98 98 97 97 98 94 95 92 97 98 95 100 90 86 82 79 80 74 72 88 96 80 89 88 98 100 96 98 99 98 94 86 82 92 82 76 79 71 64 74 89 94 92 92
97 98 99 99 99 98 97 97 97 98 98 98 98 98 98 95 93 90 96 97 96 99 100 88 81 79 77 82 82 79 78 92 93 98 100 99 100 90 100 92 97 91 85 91 92 77 80 79 94 94 91 91 90 84
97 98 98 99 99 99 98 99 99 99 99 99 98 99 99 95 94 95 97 97 94 91 99 99 89 83 81 83 85 87 87 92 99 100 100 100 100 99 100 100 99 91 90 95 86 77 94 87 90 90 86 84 81 77
96 96 98 98 99 99 99 99 99 99 99 99 99 99 99 96 94 96 99 96 97 93 100 100 94 89 86 84 86 90 94 95 99 99 100 99 88 94 100 95 78 68 69 74 86 74 79 89 80 74 74 70 66 70
95 96 97 97 98 99 99 99 99 99 99 99 99 99 99 96 97 97 98 93 96 95 100 100 99 93 90 91 98 95 95 97 98 99 100 100 99 95 100 93 77 76 82 74 71 81 94 84 78 64 60 60 65 65
95 95 96 98 98 97 99 99 99 99 99 99 99 99 99 98 97 99 98 98 96 98 100 100 99 95 89 99 100 99 100 100 99 100 100 100 99 100 100 90 80 75 73 82 89 89 89 74 66 62 59 62 66 70
95 94 94 95 96 95 96 98 98 99 99 99 99 98 97 98 100 99 98 96 98 97 100 100 100 100 95 99 99 99 99 100 98 100 100 99 100 99 96 86 81 80 85 86 89 83 72 63 65 63 63 66 68 74
96 95 94 93 96 96 96 96 98 98 99 98 96 98 100 100 98 96 95 99 100 100 99 100 99 100 95 100 100 100 100 100 99 99 96 100 99 82 75 89 94 92 84 80 83 70 71 77 76 75 70 66 72 82
96 94 93 93 95 92 97 97 98 98 94 96 100 100 100 98 96 98 100 100 100 100 100 98 99 100 96 99 100 100 99 100 100 94 95 98 97 84 81 80 76 71 67 67 67 66 65 68 72 78 80 73 80 84
95 93 92 93 94 94 91 96 93 90 92 91 96 97 97 97 100 100 100 100 100 98 100 99 99 98 100 98 99 100 99 99 98 92 99 98 89 81 85 84 78 75 72 66 66 67 71 76 81 85 85 83 85 85
95 93 92 94 93 89 88 90 90 88 86 87 95 99 97 99 99 99 98 99 99 99 100 100 99 100 99 99 99 99 98 97 98 98 96 95 78 72 70 75 73 77 75 75 67 68 74 77 80 89 86 85 88 88
96 94 93 95 92 86 86 82 80 82 79 91 96 99 97 99 99 96 94 96 96 100 100 100 99 98 99 98 99 93 95 97 98 100 93 90 73 65 72 77 77 72 80 82 76 77 83 86 87 85 89 89 91 90
97 95 94 93 84 83 79 81 80 83 92 94 86 96 99 97 98 100 100 100 100 99 100 99 99 94 99 98 97 97 97 93 88 90 94 89 74 74 73 69 72 83 85 86 81 87 87 88 90 88 85 89 91 91
97 95 94 91 85 81 80 79 83 78 92 92 94 98 99 98 99 99 100 100 98 99 98 96 97 97 98 95 98 98 97 97 88 96 94 90 76 76 74 78 80 83 87 85 85 89 88 91 90 88 88 89 90 92
93 100 92 88 85 85 80 83 92 94 86 88 99 96 99 97 95 98 98 99 95 94 94 95 91 82 92 99 100 95 94 90 92 93 93 86 76 74 76 81 85 87 85 88 88 89 89 89 92 95 95 88 90 91
99 96 88 86 80 81 89 91 92 87 87 99 99 99 99 100 98 96 100 100 98 93 90 88 90 95 96 94 95 93 95 96 95 94 91 83 79 81 79 83 79 82 85 87 90 91 92 96 96 95 93 92 93 94
96 91 88 80 78 88 94 96 88 88 90 98 99 100 99 100 98 100 100 100 99 96 90 95 97 95 92 94 91 94 96 94 88 86 88 78 81 81 80 81 83 83 87 91 90 91 93 94 94 93 93 94 97 95
93 90 85 80 76 93 94 97 91 93 95 95 98 99 98 98 100 99 98 99 99 100 100 99 96 94 91 87 86 89 89 88 95 90 77 88 84 80 81 82 83 87 91 93 96 99 98 96 94 94 96 89 94 97
93 96 90 90 97 91 94 99 97 97 98 95 98 97 97 98 99 100 98 94 99 98 100 97 97 91 86 91 91 88 87 90 85 91 86 79 84 92 87 87 92 96 99 100 98 89 84 88 90 94 94 87 86 92
99 95 100 94 95 92 95 98 95 97 94 96 95 97 98 99 100 98 96 92 91 96 91 83 71 81 81 78 77 83 79 79 82 86 89 89 89 93 94 94 98 98 99 97 96 94 88 82 86 93 97 92 88 97
88 89 97 94 90 86 92 97 96 96 94 95 97 94 97 99 98 95 98 88 95 90 93 90 78 75 75 74 83 80 78 79 83 85 89 90 91 93 97 96 98 100 98 94 96 97 92 84 84 97 98 92 95 97
83 92 94 96 92 97 95 96 98 100 100 99 100 100 97 99 98 99 99 99 94 98 97 82 92 94 94 90 95 86 82 94 92 93 94 96 95 91 95 94 98 97 95 94 96 92 90 93 98 95 97 98 96 97
89 96 88 93 90 98 89 100 99 94 90 99 100 100 95 98 99 100 100 94 95 93 86 89 96 95 94 96 95 92 92 93 94 94 86 95 95 98 97 97 97 95 97 99 98 97 95 95 94 92 95 96 96 94
97 97 87 90 95 95 98 100 100 100 100 100 100 98 99 98 98 89 89 91 92 91 90 87 88 92 95 90 92 92 80 96 98 98 86 94 93 93 96 98 97 96 97 96 99 97 97 95 93 93 91 90 96 98
100 97 95 96 93 95 100 99 98 98 100 100 97 99 97 99 97 87 92 92 88 89 86 87 83 84 83 84 90 91 94 97 93 90 96 98 97 96 96 98 97 96 97 98 99 98 98 96 96 95 96 89 92 95
96 98 97 99 100 97 95 100 99 98 95 94 95 96 88 88 83 87 84 86 87 91 91 92 94 94 94 91 93 98 99 100 100 99 99 96 98 98 98 98 98 94 97 98 96 96 96 97 97 96 96 94 92 89
98 98 95 100 100 100 96 90 92 91 89 91 90 92 87 87 91 91 92 93 98 100 99 96 94 99 99 99 98 95 97 99 99 98 98 96 99 98 97 98 98 98 98 98 94 95 97 99 100 99 99 98 94 94
96 96 98 98 97 96 92 92 94 94 97 94 93 90 91 92 99 98 96 96 98 98 97 98 97 98 98 98 96 98 97 97 98 98 98 97 98 98 97 97 98 96 96 97 96 95 94 99 99 97 96 96 96 96
98 98 97 98 98 94 92 99 99 99 98 96 98 91 79 95 99 100 94 99 97 97 94 95 94 97 97 96 97 97 98 97 96 96 97 97 97 97 96 96 97 98 97 97 97 97 99 98 99 100 97 97 96 96
100 99 97 100 96 93 100 100 100 99 98 99 86 99 96 100 100 98 96 96 92 93 95 96 96 95 95 96 97 97 96 97 97 97 96 97 97 96 96 96 97 98 99 98 98 98 98 98 98 98 98 96 96 96
97 100 100 100 100 96 97 86 95 98 99 100 96 100 100 99 98 97 96 95 96 96 95 95 96 96 96 96 96 96 95 96 96 96 96 96 95 96 96 97 98 98 99 98 98 99 98 97 98 98 97 97 97 96

GFSWCAN_sfc_rhum_003.txt.gz
RH
96 94 98 98 98 97 96 96 96 96 94 94 95 96 96 93 93 91 97 94 81 88 78 74 67 72 76 76 87 80 83 90 99 100 100 98 98 86 82 70 72 71 85 92 95 97 94 54 57 84 77 81 73 73
98 99 99 98 98 97 96 96 97 97 97 96 95 96 97 93 95 89 91 94 92 86 74 92 86 72 65 61 79 85 74 81 91 97 98 100 100 99 92 92 69 84 74 81 82 80 60 54 62 69 76 82 90 94
96 98 99 99 98 98 96 96 97 98 98 98 96 96 98 93 92 91 95 96 92 99 89 83 79 76 77 70 69 84 94 77 84 81 96 99 100 92 100 97 98 78 69 90 83 73 61 65 74 84 90 88 85 82
96 96 97 99 99 98 97 96 96 97 98 99 98 98 99 94 93 90 93 94 94 99 100 85 77 76 73 79 75 74 81 88 89 95 100 100 100 85 100 87 91 77 81 88 88 71 72 75 82 80 88 89 85 78
95 96 96 97 99 99 98 97 97 97 98 98 99 99 99 94 92 94 97 97 92 89 98 98 85 80 81 78 83 82 83 95 99 100 100 100 98 98 100 100 100 85 85 94 88 72 87 87 91 89 85 80 71 61
94 95 96 97 98 99 99 98 99 99 99 99 99 99 98 95 93 95 96 94 96 92 100 100 90 90 82 82 85 90 90 94 98 98 100 99 86 94 100 100 81 70 68 70 80 79 87 86 75 67 62 57 56 57
94 95 96 96 97 98 99 99 99 99 99 99 99 99 99 97 96 96 96 90 95 93 100 100 100 89 88 89 96 92 94 96 97 99 100 99 99 95 100 99 72 70 70 70 76 83 82 71 70 57 55 50 53 50
95 94 96 97 97 97 98 99 99 99 99 99 99 99 99 96 95 98 97 96 95 98 100 100 100 98 86 99 100 96 100 98 99 99 100 100 98 100 100 84 77 67 69 80 83 79 75 62 55 52 52 53 56 54
96 94 93 94 96 96 97 99 99 99 98 99 99 98 98 98 100 99 97 95 97 95 100 100 100 100 94 99 99 99 98 100 97 100 100 99 100 99 92 81 80 80 76 80 73 58 59 64 61 59 61 62 60 54
97 96 94 95 94 94 96 98 99 99 98 98 97 98 100 100 98 98 96 100 100 100 99 100 99 100 92 100 100 100 100 100 100 98 90 100 99 80 74 82 81 78 72 70 70 69 67 65 64 66 66 65 65 62
97 96 94 96 93 95 96 98 99 97 96 98 100 100 100 98 97 98 100 99 99 100 100 99 100 100 97 99 100 100 100 100 99 90 97 96 90 79 74 72 70 68 64 63 59 60 64 67 69 72 75 75 80 79
94 94 93 96 96 93 97 99 95 96 99 98 98 98 99 97 100 100 100 100 100 99 100 100 100 98 100 98 99 100 98 96 97 91 98 94 79 77 75 71 70 68 61 55 54 56 61 63 68 76 77 76 79 81
96 92 93 94 93 90 94 95 94 93 90 92 97 100 94 100 100 98 98 100 100 100 98 100 100 100 99 99 99 95 96 96 93 97 93 85 70 61 61 68 69 70 63 66 60 62 68 68 72 80 83 83 87 86
96 93 94 94 89 92 93 91 88 80 84 93 98 99 95 99 98 97 94 95 95 100 100 100 99 96 99 98 96 90 94 94 98 100 92 79 63 58 66 70 59 56 76 77 71 74 82 86 86 86 90 90 92 91
96 94 96 91 86 84 87 88 85 90 90 87 87 99 98 95 99 100 100 100 100 99 100 98 97 91 98 96 93 94 97 96 89 87 84 79 71 68 66 58 60 77 84 82 74 84 87 88 90 88 87 91 90 93
97 96 94 88 86 86 86 85 89 80 92 91 93 95 98 97 100 100 100 100 98 100 98 95 94 96 96 93 97 97 90 88 83 90 85 75 73 73 72 73 72 75 79 77 78 82 84 91 91 86 90 92 92 94
96 99 93 89 86 83 81 80 92 89 87 89 99 98 98 96 96 98 100 100 97 99 95 90 86 85 90 96 96 87 91 85 86 82 76 78 74 68 69 74 82 82 79 82 81 84 85 88 93 95 94 82 88 90
100 97 90 86 81 81 89 88 87 83 89 98 98 100 99 98 98 98 99 98 97 88 86 86 83 91 91 88 87 88 88 86 82 81 72 74 74 73 71 72 70 74 77 80 88 88 89 94 93 88 90 87 90 85
97 92 86 83 77 89 94 96 87 87 91 97 99 98 98 100 99 99 99 99 97 92 88 90 93 90 89 86 87 88 89 87 73 65 72 72 76 74 74 75 76 77 80 83 84 83 85 91 89 89 90 89 90 88
95 92 86 81 76 92 94 97 89 91 94 95 98 99 98 99 99 99 99 97 98 99 99 98 95 90 87 81 80 81 78 75 77 83 76 77 76 74 74 74 74 76 80 84 88 96 90 85 81 80 86 92 97 94
93 97 89 88 94 91 95 99 97 96 98 96 98 96 99 97 98 98 96 95 97 97 99 95 95 87 82 80 78 79 79 80 80 86 82 76 74 79 75 76 80 86 90 89 97 92 95 91 87 84 91 94 95 93
99 92 100 90 92 92 95 98 96 97 92 96 94 94 99 100 100 97 95 97 92 92 90 89 81 80 79 76 74 80 77 79 80 83 88 86 85 83 86 85 89 91 90 92 91 95 92 89 90 88 92 95 93 91
86 87 94 90 86 91 98 94 96 95 92 95 95 93 97 99 98 92 94 82 89 86 86 84 76 72 74 74 80 78 80 81 84 85 88 88 86 89 92 90 93 95 96 92 90 92 94 89 84 91 93 97 97 98
79 90 91 95 93 100 94 98 97 98 100 99 99 100 97 98 95 96 98 99 92 92 92 81 84 86 86 86 87 81 78 85 86 89 90 92 92 86 88 88 90 92 90 89 93 94 94 96 96 94 89 84 86 94
85 93 90 98 98 96 97 98 96 88 87 93 100 100 98 97 100 100 99 96 94 91 87 78 82 88 86 86 85 82 88 85 86 84 77 90 89 92 87 86 90 92 92 95 95 95 96 95 95 92 88 90 92 94
99 95 88 97 99 91 99 100 98 96 97 100 100 98 99 98 99 93 87 89 90 88 88 86 85 82 81 83 81 81 77 86 90 92 81 88 90 93 92 92 93 92 90 95 96 96 95 94 95 93 94 92 90 90
99 93 97 96 93 94 100 98 97 99 100 100 99 100 98 99 98 85 85 88 83 87 82 82 79 78 75 74 86 89 89 91 91 86 91 92 92 92 94 97 97 95 96 97 97 97 96 96 96 95 96 90 89 91
96 99 96 99 100 97 97 100 100 99 96 92 94 96 91 90 81 84 87 90 94 91 89 91 91 91 92 91 92 94 95 98 99 99 98 95 94 96 96 96 96 97 97 98 97 97 97 97 96 96 96 95 91 89
98 99 98 99 100 100 97 92 92 91 87 92 90 92 88 85 96 97 95 96 96 98 97 96 94 96 96 91 93 96 97 98 98 98 98 97 96 96 95 95 95 95 96 95 93 96 97 97 97 96 96 96 96 95
94 97 98 100 99 98 92 92 94 95 96 94 93 91 91 98 96 96 94 94 95 98 97 96 96 96 96 96 97 94 96 96 96 96 96 97 96 95 96 95 95 95 95 96 96 93 89 94 93 93 94 95 95 94
99 98 98 98 99 95 96 100 99 100 99 98 100 93 89 99 98 98 94 99 97 97 93 94 93 94 96 95 96 96 96 96 96 95 95 95 95 95 95 95 94 95 96 97 96 94 95 95 95 95 94 95 94 94
98 97 98 100 98 96 100 100 100 99 100 99 95 100 98 98 100 98 95 94 90 92 93 95 95 95 95 96 96 96 95 95 95 95 94 95 95 95 94 92 95 96 96 97 97 96 95 95 96 95 95 95 95 94
97 96 96 98 100 98 98 86 96 97 99 100 98 100 100 99 99 98 94 92 97 96 96 95 95 96 95 95 95 95 94 95 94 94 95 94 94 95 92 94 96 96 94 95 95 95 94 94 95 95 95 95 95 95

GFSWCAN_sfc_rhum_006.txt.gz
RH
97 96 97 98 98 97 96 95 94 94 94 93 94 95 96 94 94 72 81 80 61 74 55 54 50 54 51 47 72 68 67 77 93 100 100 96 100 73 66 51 62 65 92 97 96 99 96 43 44 83 65 72 82 78
97 99 99 98 99 98 97 96 96 96 96 94 94 95 97 93 93 84 65 77 77 64 62 74 68 56 52 38 50 70 58 61 67 90 99 100 100 100 98 85 50 67 58 59 67 67 42 42 52 53 67 79 71 76
96 97 99 100 99 99 98 97 97 97 98 97 95 95 97 93 92 84 68 79 68 97 73 66 63 61 58 51 48 66 76 57 64 65 87 100 100 83 100 90 94 51 48 71 73 54 46 51 49 60 71 78 76 72
95 95 96 98 99 99 98 97 97 97 98 98 97 97 99 92 91 86 78 75 74 86 100 76 59 61 57 60 56 54 60 69 68 74 100 100 100 64 99 72 71 54 52 61 72 59 55 51 66 77 76 82 77 52
94 94 95 95 96 99 99 98 97 97 99 98 99 99 99 93 92 84 84 82 77 74 97 86 68 64 61 62 60 59 61 70 89 100 100 100 90 88 92 95 88 50 54 85 94 70 69 76 75 76 82 69 48 44
93 94 94 95 95 97 99 99 98 97 98 98 99 99 99 94 93 77 81 79 80 75 97 100 73 70 64 62 68 66 64 78 81 92 99 90 66 80 100 100 70 49 49 60 75 70 69 73 73 59 50 44 40 36
94 94 95 96 95 96 97 99 99 98 98 99 99 99 99 96 87 83 78 82 87 78 100 100 95 75 71 70 73 70 78 79 87 93 99 94 84 80 100 99 58 61 60 63 67 70 74 61 60 50 44 37 40 35
94 93 93 95 95 95 96 98 99 99 99 99 99 99 99 95 95 93 89 92 86 89 96 100 100 98 72 97 99 83 96 91 93 93 99 99 90 99 100 66 63 57 69 69 68 64 59 52 46 40 36 36 40 34
92 94 93 93 95 95 95 97 99 99 99 99 99 98 97 99 100 98 95 91 92 83 100 100 100 100 78 94 96 96 89 100 91 100 100 97 100 97 84 72 70 71 69 70 54 49 44 44 40 36 35 32 34 39
86 92 94 94 93 94 94 96 99 99 99 98 98 99 100 100 98 97 97 100 100 100 98 100 88 100 78 100 100 100 100 100 100 99 85 100 98 74 64 70 65 68 60 54 61 59 50 44 33 34 37 39 42 42
93 94 93 93 94 93 95 98 99 98 97 99 100 100 100 98 94 97 100 100 100 100 99 99 99 100 94 100 100 100 100 100 100 90 98 97 82 71 64 68 60 56 51 47 40 36 34 36 39 44 51 52 60 64
95 93 92 93 95 93 97 97 97 98 100 99 98 98 99 97 100 100 100 100 100 99 100 100 99 97 100 96 98 100 100 100 99 74 99 90 62 60 60 57 55 50 42 34 34 34 38 42 48 56 58 59 68 79
86 93 91 93 93 92 97 95 96 97 96 98 97 100 99 100 100 100 100 100 100 100 98 100 100 100 98 98 100 100 100 98 80 95 81 64 59 59 55 55 56 46 46 54 36 39 47 52 59 71 81 82 95 85
85 93 92 94 91 94 95 95 96 96 95 99 100 100 100 100 100 95 94 100 100 100 100 100 100 99 100 98 100 100 91 85 95 93 90 64 53 46 46 55 45 42 84 66 53 55 79 92 89 95 94 94 94 92
86 93 94 94 88 90 94 91 88 84 87 90 96 100 99 98 100 100 100 100 100 97 98 99 98 84 99 99 94 96 99 92 79 78 70 60 48 48 55 51 45 65 93 79 54 77 99 95 92 88 91 94 92 97
89 97 95 90 87 86 88 89 88 84 87 82 94 99 99 100 100 100 100 100 96 100 98 92 98 100 99 93 98 95 82 73 74 84 73 53 56 59 59 65 56 55 62 59 58 65 75 93 95 79 88 96 97 100
95 99 92 89 87 85 84 81 84 80 91 99 99 98 99 100 100 100 100 100 95 99 100 87 97 91 86 90 92 75 81 79 80 67 56 59 59 60 56 61 83 74 64 62 62 69 72 85 97 95 95 70 83 95
96 96 91 86 80 85 91 75 85 85 89 89 91 100 98 99 100 100 100 99 99 88 78 80 69 82 81 80 76 78 74 72 63 61 51 52 55 60 61 58 56 55 58 62 86 80 79 96 87 68 66 68 80 81
85 96 90 84 72 80 88 92 76 79 86 89 93 93 94 99 96 94 97 98 88 76 80 81 91 76 74 71 83 89 86 74 55 47 48 52 58 62 62 59 63 61 62 66 68 64 62 70 74 67 67 69 80 80
95 95 87 80 74 77 96 91 75 70 77 83 91 90 90 93 96 100 100 98 88 93 96 94 83 77 75 63 60 65 58 57 60 68 58 51 56 59 60 60 57 55 58 62 68 83 74 73 66 68 72 74 90 92
92 97 91 88 88 79 80 85 86 81 82 82 87 81 96 96 96 97 97 92 99 94 85 77 93 76 68 62 59 59 61 61 59 68 68 62 54 58 60 57 59 63 71 76 91 83 91 91 78 77 100 100 97 100
98 94 99 90 93 94 84 82 77 79 78 86 86 80 96 100 98 94 88 92 84 71 65 68 59 58 61 65 58 61 60 60 60 64 77 72 72 67 66 66 73 90 88 98 86 100 97 83 88 96 100 99 91 99
92 86 92 94 88 91 96 82 86 78 85 92 86 88 92 95 90 82 90 72 72 61 59 59 58 61 58 56 60 60 60 63 61 61 70 70 67 78 84 78 85 98 99 84 76 90 98 89 93 100 100 99 97 93
75 91 91 87 86 97 92 96 84 89 91 92 85 79 81 89 88 91 91 87 71 66 67 64 61 57 57 68 61 51 52 59 60 63 70 74 72 67 65 73 80 90 85 78 89 98 99 100 99 98 100 99 95 96
85 91 84 95 90 91 93 91 88 82 84 90 92 92 93 89 94 96 94 74 81 86 75 62 60 58 60 63 60 57 66 60 62 64 69 70 86 88 81 73 76 81 89 100 100 100 100 100 100 100 97 98 92 96
94 90 80 89 93 81 90 94 92 87 84 91 93 87 92 91 89 78 64 79 94 83 99 99 93 64 55 53 56 54 56 65 71 76 69 69 77 96 98 97 94 90 92 99 100 100 96 92 92 90 89 87 83 88
92 90 85 73 76 79 90 92 86 89 97 100 89 97 91 86 80 65 62 72 71 84 78 77 76 70 69 68 68 71 77 79 89 78 78 86 89 89 95 96 94 95 95 100 100 100 98 93 91 92 91 90 86 87
88 86 94 93 92 83 88 89 92 96 85 74 82 92 86 78 64 76 79 79 84 82 80 80 81 80 82 84 86 90 90 87 87 92 95 95 92 96 96 94 94 94 97 100 100 99 98 98 96 90 90 93 89 86
91 89 90 97 96 96 90 83 81 72 66 76 82 76 78 71 92 86 81 81 80 82 84 85 86 86 82 81 83 84 89 91 93 91 89 89 97 94 91 93 93 92 93 92 88 95 98 96 94 93 94 93 91 91
92 90 93 98 99 92 88 85 92 92 75 79 75 72 78 89 88 79 81 84 88 94 93 90 90 91 92 92 90 87 90 91 92 94 93 92 93 93 93 92 93 93 92 93 92 86 79 85 87 88 88 90 90 90
91 91 93 92 92 94 95 96 94 94 92 91 93 91 84 93 89 85 85 86 85 86 88 89 88 87 88 88 90 90 92 92 92 92 92 92 92 92 92 92 93 93 92 92 91 90 91 90 91 90 89 90 89 89
95 92 94 98 92 92 92 98 97 95 92 92 85 94 96 93 93 87 88 86 86 89 90 90 91 90 89 89 90 90 90 90 89 90 91 92 92 92 92 91 93 93 92 91 91 90 89 89 90 90 90 89 89 89
93 94 93 94 97 95 92 88 78 83 85 86 91 93 93 90 93 89 79 84 88 91 92 91 91 91 88 87 90 89 86 88 88 90 90 91 91 93 93 93 92 92 91 90 90 89 88 87 89 89 90 90 90 90

GFSWCAN_sfc_rhum_009.txt.gz
RH
97 98 98 97 96 96 96 95 94 94 93 93 93 94 95 92 92 71 61 65 56 61 50 43 40 45 43 38 70 55 59 65 80 100 100 89 100 62 57 37 57 69 92 97 88 99 91 36 38 73 53 51 61 68
99 98 96 98 98 98 96 95 94 94 94 93 93 94 96 92 90 88 48 54 57 50 56 56 54 50 48 35 39 56 46 54 55 76 94 98 100 99 85 70 32 55 52 60 60 58 36 42 49 49 49 62 67 81
98 99 99 99 98 99 98 97 96 95 96 95 94 90 96 92 91 86 51 56 49 92 59 52 50 53 42 44 42 56 62 41 51 50 83 98 100 79 100 77 70 40 32 62 65 44 39 47 47 56 63 70 72 76
96 97 97 98 99 99 98 98 97 97 97 97 96 95 96 92 91 93 55 57 53 74 100 69 48 53 51 48 45 45 46 57 54 60 100 100 100 54 96 60 57 47 42 52 60 44 42 40 61 62 63 65 67 48
93 94 95 95 96 98 99 98 98 98 98 99 99 99 99 90 88 68 59 60 59 63 92 82 56 53 50 53 50 48 52 57 72 99 100 97 77 73 81 86 74 42 47 70 76 51 64 65 62 59 58 60 44 40
94 94 95 95 95 95 98 99 98 98 100 98 99 98 98 96 92 60 62 60 60 62 94 100 63 59 53 53 56 55 52 54 56 77 95 70 51 68 100 92 48 40 38 38 50 56 64 72 67 57 47 40 38 35
93 93 93 94 94 94 96 98 99 98 98 99 98 99 99 98 75 75 65 71 81 62 100 100 89 66 60 58 60 59 65 63 69 84 96 89 74 67 100 91 44 41 43 49 56 66 83 73 63 44 41 35 38 29
94 93 93 94 94 94 94 96 98 99 98 99 99 99 98 97 93 84 72 85 79 64 88 100 98 94 63 90 98 66 86 87 79 75 96 92 73 96 100 59 44 44 53 60 64 68 78 68 42 36 32 28 27 24
87 84 93 94 93 93 93 95 97 99 99 99 99 98 95 98 99 87 93 87 72 76 94 100 100 100 66 85 92 92 85 100 84 100 99 89 100 98 71 53 53 52 59 69 65 52 44 40 34 28 24 25 28 30
89 92 93 93 94 94 94 95 96 98 99 99 99 100 100 100 97 96 86 96 99 98 91 100 81 98 64 98 100 100 100 100 100 99 87 100 98 70 56 55 52 54 52 55 57 54 45 42 29 28 28 30 32 34
90 92 92 92 95 94 95 97 98 98 98 99 100 100 100 98 95 96 100 100 100 100 99 96 97 97 80 96 100 100 100 100 100 98 99 100 84 63 56 58 55 52 48 43 38 35 28 28 30 33 39 45 50 50
88 93 93 92 94 93 96 97 95 96 99 99 99 97 98 97 99 100 100 100 100 98 99 100 98 86 99 92 99 100 100 100 100 72 99 89 58 54 57 58 53 47 42 35 28 26 28 29 34 46 52 52 51 67
83 88 93 92 93 92 96 95 95 96 97 96 96 100 99 100 100 100 100 100 100 100 99 100 100 100 99 97 100 100 100 100 77 96 79 60 50 50 53 50 47 41 40 42 28 28 32 36 48 64 72 71 96 74
82 88 92 92 91 96 96 97 93 92 92 98 100 100 100 100 100 100 100 100 100 100 100 100 100 100 100 100 100 100 97 83 96 93 91 57 54 50 48 51 48 46 84 58 42 43 55 84 84 98 100 99 100 90
83 87 92 90 89 96 91 93 91 87 88 97 99 100 100 100 100 100 100 100 99 97 100 100 100 88 100 100 99 94 100 93 79 77 68 55 53 50 54 54 46 50 96 78 44 58 99 100 94 82 85 90 85 100
85 92 79 88 88 89 91 93 90 84 81 82 97 100 100 100 100 100 100 100 93 97 99 93 99 100 100 99 99 100 96 79 76 79 68 50 52 51 52 52 51 48 49 47 45 48 61 93 100 74 80 92 100 100
91 76 91 90 91 90 84 92 93 85 98 99 99 100 100 100 100 100 100 100 91 100 100 99 100 99 92 95 93 70 87 83 78 69 51 51 51 49 52 55 83 67 57 52 52 54 59 72 92 95 94 67 68 79
73 76 92 86 76 81 92 76 92 77 91 79 93 100 98 99 100 100 100 99 99 89 80 83 69 91 92 87 78 78 66 65 54 51 46 48 48 47 46 52 51 52 49 51 70 68 69 92 82 69 56 51 62 70
73 78 92 84 77 90 98 95 74 82 85 82 87 85 90 98 93 91 99 98 88 86 86 82 96 77 75 67 81 89 81 65 53 45 44 46 49 52 54 52 54 54 54 56 57 57 53 55 59 57 59 62 69 73
93 94 90 81 74 73 95 88 70 64 75 75 84 83 85 89 96 100 100 100 91 91 96 93 76 70 67 55 52 58 50 52 54 61 54 43 41 47 53 56 54 53 53 53 54 69 60 64 59 58 62 66 86 90
91 96 93 90 74 64 69 72 78 70 69 72 77 71 90 88 93 97 98 89 99 85 69 62 84 70 60 57 54 54 56 54 50 56 59 56 48 50 52 52 53 55 60 65 88 79 86 84 72 69 100 100 100 100
97 93 100 96 98 95 78 72 70 69 71 79 79 69 92 98 98 94 84 91 78 64 54 58 52 51 53 60 55 53 54 54 55 57 72 66 63 58 53 51 57 77 78 95 82 99 98 80 86 96 100 100 100 100
92 98 100 100 100 100 97 73 92 69 90 88 80 88 91 91 84 70 90 65 64 52 50 48 50 56 58 50 49 52 52 54 53 49 54 56 53 63 69 66 76 96 98 81 71 83 95 90 93 100 100 100 98 100
89 100 99 98 96 96 97 94 73 76 83 83 83 87 79 84 78 87 85 75 57 50 55 54 53 48 48 55 46 38 40 42 52 51 56 62 64 59 56 61 70 84 79 79 88 96 100 100 99 98 100 100 100 100
97 97 95 94 88 88 89 88 85 82 84 86 90 86 91 84 90 84 86 62 76 87 78 59 53 48 48 52 47 45 49 52 54 55 59 60 75 81 76 66 69 72 87 100 100 100 100 100 100 100 99 100 94 93
88 93 85 88 90 82 81 87 86 84 82 88 90 82 95 90 86 78 52 83 98 89 99 98 92 64 53 49 55 57 60 66 71 74 65 64 75 95 96 89 92 89 89 99 100 100 99 99 99 96 97 97 96 96
83 89 81 64 66 72 87 88 77 84 86 83 84 90 89 81 73 58 66 76 74 83 75 77 78 73 74 70 70 74 78 80 89 90 86 83 82 85 98 99 97 95 89 98 100 100 100 100 98 94 96 98 99 99
84 81 87 92 86 76 84 81 86 83 83 62 74 86 78 71 66 82 76 73 79 73 71 72 72 73 74 76 76 79 82 79 78 81 78 76 94 94 93 93 93 93 95 98 99 98 99 99 98 99 96 96 97 99
90 85 84 91 88 90 87 81 80 62 54 71 88 76 79 79 85 81 77 76 76 80 81 82 83 82 78 75 77 85 83 84 87 85 84 85 86 86 87 90 91 91 93 93 91 95 97 96 94 93 94 95 92 92
94 88 90 88 89 83 97 87 99 100 70 78 76 68 73 85 85 77 79 80 84 89 87 85 85 85 87 86 84 87 88 86 88 91 92 90 91 87 87 89 90 90 92 93 92 90 92 93 92 94 88 85 86 84
88 92 89 88 90 98 98 100 100 99 100 94 98 97 93 89 89 82 80 82 81 83 84 85 83 83 85 85 87 87 86 82 83 83 85 87 87 88 88 88 90 91 92 92 92 93 93 92 93 88 84 84 84 84
91 84 85 84 86 96 100 100 98 98 95 96 94 90 90 88 87 85 84 84 82 85 84 84 86 86 86 86 86 88 86 86 85 84 84 88 89 87 87 85 87 89 90 91 92 92 92 92 90 86 84 84 85 85
88 87 86 88 88 86 95 94 78 79 86 86 87 85 88 89 87 86 74 79 85 86 87 86 85 85 86 87 82 83 81 81 82 82 84 83 85 88 88 88 89 91 90 91 91 91 90 88 85 84 85 85 86 86

GFSWCAN_sfc_rhum_012.txt.gz
RH
98 96 96 95 94 94 94 95 94 94 92 92 93 95 94 91 90 77 68 64 69 72 51 43 38 43 37 45 78 54 61 70 95 100 100 94 100 79 67 42 75 85 94 96 88 98 88 35 37 69 63 60 59 58
99 98 97 96 95 95 95 94 94 94 93 91 89 95 96 92 90 90 55 55 61 62 61 56 56 52 51 48 48 59 48 59 67 84 93 98 99 99 95 80 28 61 65 74 68 73 47 42 48 53 67 72 79 72
99 99 99 98 98 97 97 96 94 94 95 94 90 91 96 92 89 89 58 62 57 92 61 56 53 50 43 50 51 68 76 43 54 54 88 97 100 89 100 84 68 35 30 76 71 46 38 43 46 56 60 63 64 61
98 98 99 98 97 98 99 98 97 96 97 96 95 92 98 93 90 95 59 62 59 81 100 74 47 50 48 45 42 50 52 61 63 72 100 100 100 61 97 70 72 55 42 51 58 43 41 49 58 63 62 66 60 52
97 97 97 97 97 98 98 99 98 98 98 98 99 99 99 95 93 77 60 60 59 71 96 84 52 50 47 48 46 48 59 64 81 99 100 99 85 87 95 91 88 47 48 70 78 52 62 64 64 62 61 67 60 39
94 96 97 96 96 96 98 99 99 98 98 99 98 98 98 99 96 68 65 62 59 64 95 100 62 56 52 51 52 52 56 60 63 86 97 78 58 82 100 93 54 37 34 38 50 50 60 68 60 59 59 51 37 36
94 93 95 95 95 95 96 97 100 99 99 99 99 97 97 98 77 81 74 78 86 72 100 100 94 65 59 54 60 60 65 70 68 81 97 92 84 67 100 98 49 39 36 37 52 62 71 67 76 51 40 36 39 29
91 93 94 94 93 94 94 96 97 99 99 99 100 100 98 98 91 81 78 83 85 69 88 100 100 96 61 93 99 70 96 86 89 78 96 95 78 100 100 64 47 41 40 55 60 63 68 67 58 43 34 29 26 25
88 93 93 93 94 94 94 94 95 98 99 99 99 98 92 92 90 81 92 94 74 79 96 100 100 100 66 92 96 96 86 100 81 100 98 91 100 98 74 56 48 44 58 58 60 62 61 58 38 32 26 26 29 33
92 92 92 94 94 95 95 94 96 97 99 99 97 99 100 100 96 92 81 89 96 94 93 100 79 98 68 98 100 100 100 100 100 98 91 100 98 65 51 48 49 55 53 59 68 65 49 43 34 29 30 32 35 41
92 93 92 94 93 95 96 98 97 98 97 99 100 100 99 97 93 97 100 100 100 100 100 97 93 96 81 96 100 100 100 100 100 97 98 99 94 67 57 55 52 52 55 55 49 44 35 30 31 35 47 61 65 65
88 92 91 93 92 95 95 96 96 93 99 99 99 97 97 97 99 100 100 100 100 95 100 100 99 89 99 83 96 99 100 100 100 87 100 93 66 54 58 58 56 52 48 41 33 29 30 30 35 58 65 68 67 81
84 90 91 92 94 95 95 93 96 96 93 95 96 100 98 100 100 100 100 100 100 100 100 100 100 100 99 96 100 100 100 100 99 100 88 75 57 52 55 55 53 46 52 49 30 30 38 40 52 74 80 78 90 83
81 89 91 94 95 96 96 90 89 88 90 98 100 100 100 100 100 100 100 100 100 100 100 100 100 100 100 100 100 100 100 100 98 97 90 76 57 50 53 58 52 51 70 62 61 61 63 86 88 91 100 98 95 93
82 88 89 93 92 92 90 86 85 83 88 99 100 100 100 100 100 100 100 100 100 99 100 100 100 99 100 100 100 100 99 96 95 96 88 82 75 67 68 61 59 69 86 82 62 67 86 90 91 86 88 92 89 98
83 89 83 90 91 90 91 90 91 87 79 87 98 100 100 100 100 100 100 100 99 100 100 100 100 100 100 100 99 100 97 95 100 97 87 68 72 73 68 62 64 60 64 66 67 64 68 84 90 80 83 96 95 100
88 81 91 92 89 84 81 92 98 99 93 99 99 100 100 100 100 100 100 100 96 100 100 100 100 98 95 97 96 96 98 97 95 85 74 70 68 67 63 66 89 79 73 71 67 65 68 74 89 93 91 80 82 89
74 84 92 90 80 82 89 86 96 94 94 78 93 100 99 100 100 100 100 100 100 91 92 94 85 92 93 92 88 92 82 83 80 79 69 67 62 66 58 67 58 67 68 67 77 74 74 86 83 81 79 74 76 80
91 85 92 90 78 86 94 97 79 83 84 80 91 84 92 98 96 97 100 99 93 93 94 92 96 82 87 80 95 100 97 91 76 67 65 63 63 64 66 68 70 70 69 69 70 68 66 70 69 67 70 70 76 80
93 94 94 88 79 91 98 87 70 73 80 76 85 89 92 93 96 100 100 100 98 100 100 96 89 87 83 77 78 86 79 76 73 74 69 62 63 64 71 73 70 70 68 68 70 79 70 70 67 67 70 71 82 95
91 94 92 94 88 66 67 68 75 72 71 79 77 75 87 87 93 100 98 97 100 98 77 72 95 82 74 78 77 78 74 71 66 74 72 66 68 74 68 67 69 70 72 76 91 82 87 86 80 81 99 100 100 97
98 90 100 99 100 94 77 71 74 69 81 83 86 82 90 90 90 91 90 92 81 67 60 67 64 65 71 75 72 70 70 68 70 70 75 73 72 72 70 68 73 83 84 92 81 91 92 86 88 95 100 100 99 100
93 98 100 100 100 100 97 76 92 69 84 83 78 86 85 85 80 72 84 68 65 56 56 52 53 65 67 66 59 63 63 65 61 61 70 67 67 75 78 72 75 89 87 80 77 84 92 94 96 100 100 100 100 100
97 100 100 99 100 97 99 87 68 71 76 78 77 82 74 78 75 81 79 71 57 56 55 56 57 55 62 61 54 53 62 58 58 62 67 68 70 68 67 69 73 78 78 80 88 97 99 100 96 98 100 100 100 98
99 98 99 96 97 89 84 86 81 79 81 81 82 81 85 81 84 76 79 72 96 95 94 83 67 54 54 64 60 64 72 79 83 82 74 72 82 86 85 80 79 80 82 97 100 100 100 100 98 100 100 98 93 94
96 97 96 93 92 87 85 85 81 79 77 81 80 82 86 83 80 74 58 92 95 90 90 90 91 77 68 69 74 82 82 80 82 84 77 83 86 92 93 93 91 89 93 96 98 97 94 93 97 98 98 91 93 98
91 86 79 66 68 74 86 82 73 79 81 79 80 85 83 82 73 71 77 83 88 83 76 85 78 76 77 75 76 77 83 84 83 81 75 75 88 94 95 96 94 93 89 93 95 96 97 97 97 96 96 95 96 96
82 79 86 90 81 72 80 78 81 79 76 59 73 80 77 68 84 88 83 76 78 75 75 79 76 75 77 78 78 85 82 79 79 74 72 92 92 83 82 86 85 86 89 91 95 95 96 96 96 96 96 96 97 97
84 80 79 91 83 84 79 76 74 58 53 70 80 73 84 83 90 87 83 80 81 81 83 83 85 84 81 77 86 84 83 86 88 89 86 88 87 86 84 86 86 87 88 89 85 86 92 96 96 95 95 97 96 96
89 90 83 84 88 81 91 94 96 99 74 88 81 71 76 84 87 79 82 82 86 90 89 88 88 86 89 87 87 85 93 88 89 91 93 93 94 90 89 90 90 89 89 90 90 87 85 88 92 96 94 94 94 95
82 84 84 81 83 95 99 96 94 94 96 90 97 92 91 90 90 84 84 89 84 85 85 86 85 87 87 88 88 88 87 84 89 84 86 88 90 91 91 90 90 91 91 91 91 92 93 93 95 95 93 94 94 92
84 83 81 77 86 93 89 90 87 88 91 84 88 91 93 92 90 88 84 87 84 84 87 84 86 87 85 85 90 85 88 88 90 90 86 90 90 88 88 88 90 92 92 93 93 94 92 92 94 93 94 93 92 89
82 81 80 80 77 74 85 88 68 71 77 74 89 84 90 91 91 89 78 80 86 86 87 86 85 84 90 88 80 90 81 80 79 86 87 89 87 90 89 89 90 89 92 94 94 93 92 92 93 93 93 93 89 88

GFSWCAN_sfc_rhum_015.txt.gz
RH
94 94 94 94 94 94 95 95 95 94 93 94 94 95 94 91 90 92 91 84 90 93 76 69 72 66 64 81 88 77 79 84 100 98 99 99 98 89 79 70 86 88 96 95 90 90 95 52 49 63 70 80 77 78
95 95 95 94 94 94 95 94 95 94 93 90 93 95 94 91 91 93 89 77 83 90 84 77 73 70 64 68 77 75 67 83 93 98 100 100 100 100 96 85 62 79 84 92 79 82 62 54 58 66 73 81 86 82
97 95 95 95 94 94 94 94 94 95 95 95 91 95 96 94 92 94 91 90 92 99 88 81 79 70 60 65 66 80 89 69 79 90 97 98 98 95 96 96 73 57 58 84 79 64 57 52 72 72 78 82 80 74
98 98 97 97 97 96 96 96 96 96 96 97 96 98 98 98 94 93 93 92 94 99 100 91 59 70 60 62 60 66 69 80 89 96 100 100 98 84 99 78 86 66 60 61 75 63 61 75 78 78 76 72 67 64
98 98 99 99 98 98 99 99 98 98 98 99 98 98 98 98 97 94 90 89 87 93 98 98 70 63 57 64 64 68 78 86 97 99 100 99 98 91 99 96 98 68 64 83 85 69 73 86 80 72 74 73 64 58
97 97 97 97 98 97 97 98 99 99 99 98 97 97 97 98 98 96 96 95 88 95 98 99 86 76 68 67 70 70 75 83 94 99 100 98 81 88 100 100 73 59 53 51 69 76 81 80 71 64 73 68 53 44
95 97 97 96 95 96 96 98 100 99 99 97 96 97 99 97 96 96 93 93 96 95 100 100 97 86 72 76 94 90 89 96 93 98 100 99 96 89 100 100 73 60 49 68 74 76 85 76 80 61 55 48 47 37
93 94 94 96 95 94 96 96 98 99 99 98 97 99 95 97 97 95 96 91 97 96 99 99 97 98 79 100 100 96 100 98 95 99 100 98 96 99 100 89 70 58 57 76 78 78 79 76 66 58 46 38 37 42
93 94 94 95 96 96 97 95 96 98 98 99 99 96 95 97 99 99 93 98 95 95 100 100 100 98 90 99 100 98 99 100 98 100 100 97 100 99 89 83 70 60 74 80 78 73 73 74 65 44 37 42 47 52
92 93 94 95 96 96 96 94 96 98 99 99 95 99 100 100 96 98 92 99 100 100 98 100 98 100 92 100 100 100 100 100 100 99 97 100 99 92 75 67 68 71 68 68 82 83 77 59 46 45 47 52 55 59
92 92 92 94 95 96 97 97 98 98 95 98 100 100 99 94 96 99 100 99 98 100 100 99 99 99 94 99 100 100 100 100 98 95 99 99 98 87 71 74 67 69 67 67 54 47 43 43 49 57 64 70 66 71
92 92 92 94 94 95 96 96 94 96 100 99 99 97 96 95 99 100 100 100 100 99 100 100 100 98 100 96 99 100 99 100 98 96 100 94 88 79 74 73 68 63 49 40 37 42 46 53 62 66 66 70 75 80
91 92 94 95 94 93 91 92 93 94 92 95 96 98 97 100 100 100 99 99 100 100 100 100 100 100 99 99 100 100 100 98 99 100 97 95 69 72 72 54 50 50 58 56 49 54 55 53 60 66 76 77 91 88
88 92 92 94 96 93 88 86 86 86 91 99 100 99 100 99 99 99 99 100 100 100 100 100 100 100 100 100 100 99 99 99 99 99 98 98 82 81 74 58 52 57 69 60 59 59 61 77 86 89 94 97 98 96
85 91 92 91 90 88 87 86 85 90 96 98 99 99 99 100 100 100 100 100 99 100 100 100 100 100 100 99 100 99 99 98 99 99 100 98 86 77 75 68 66 66 79 77 67 69 80 85 89 84 88 91 91 96
84 87 91 90 90 88 87 87 92 94 97 95 94 97 99 100 100 100 100 100 99 100 100 100 100 100 99 99 99 99 98 98 100 100 97 86 80 76 73 71 71 72 72 70 72 72 74 86 87 79 85 96 95 96
85 96 92 88 84 82 82 93 97 98 94 94 96 100 100 100 100 100 100 100 99 100 100 100 99 98 100 99 99 100 99 100 99 95 95 78 75 74 73 73 84 79 76 78 79 74 74 79 90 95 90 82 88 90
88 94 92 88 87 87 90 86 96 93 91 85 98 100 100 100 100 100 100 100 100 99 99 98 96 99 98 98 99 99 97 97 95 90 86 72 72 72 64 70 69 73 73 74 84 75 78 90 87 87 88 88 90 91
97 96 92 91 87 95 90 93 92 87 97 98 98 97 97 99 100 100 100 100 98 98 97 97 97 96 97 96 97 100 99 96 92 78 76 70 69 70 67 69 71 74 77 79 79 90 90 81 87 87 86 89 91 90
92 92 93 93 89 98 94 95 89 91 87 97 97 98 98 98 100 100 100 100 99 99 97 98 97 97 96 96 96 98 97 94 93 93 92 81 78 70 74 82 93 84 87 80 85 90 92 91 92 93 93 97 99 98
92 94 91 93 98 91 94 94 94 95 94 97 97 95 98 98 95 93 100 99 99 99 97 97 97 96 87 91 93 94 86 79 86 94 94 93 92 91 91 89 86 94 94 95 95 92 96 95 92 95 100 99 98 98
98 89 99 97 99 99 94 94 95 95 96 97 97 96 96 94 96 95 97 97 89 95 89 91 86 91 91 84 84 81 78 71 72 88 84 90 91 94 94 95 94 93 93 93 93 92 93 95 99 99 98 94 95 99
94 98 100 100 99 99 97 96 87 87 87 96 95 95 96 96 93 94 86 84 94 85 83 83 80 76 79 72 67 68 69 71 90 92 90 93 94 93 91 91 94 95 93 92 95 96 95 99 99 98 98 93 98 98
96 99 99 99 99 98 99 94 92 92 84 92 91 86 90 81 94 91 92 94 96 95 95 90 85 91 89 73 94 96 95 92 94 92 91 93 96 96 94 94 92 92 96 96 95 94 93 98 100 98 92 94 96 98
100 98 99 98 99 98 98 97 84 94 90 94 89 96 98 96 94 96 91 99 94 96 94 94 91 89 92 95 96 92 88 88 94 96 93 94 93 92 91 91 93 97 92 94 93 94 94 93 92 94 95 96 98 98
98 97 98 96 98 99 95 95 92 92 92 87 92 98 94 96 96 93 96 98 98 98 98 98 97 95 91 92 92 92 92 89 87 96 92 92 96 96 95 94 94 92 92 95 95 94 93 92 92 94 93 94 97 98
97 97 98 90 99 98 98 97 95 93 92 92 97 97 97 99 94 98 94 95 95 97 95 91 85 85 86 87 90 94 88 90 92 84 88 96 90 88 93 96 96 94 88 93 93 94 95 94 94 93 93 95 94 96
97 95 97 98 97 95 92 93 92 91 91 93 92 94 93 90 97 96 94 94 95 96 96 88 86 96 94 97 97 94 96 93 90 85 92 91 88 90 87 91 92 86 88 89 90 91 92 94 94 94 94 96 97 97
98 99 93 95 93 93 91 90 90 93 94 93 92 94 99 91 98 96 96 97 95 94 95 97 96 96 94 95 97 96 97 96 92 96 99 99 94 93 89 90 90 88 89 91 88 86 88 94 95 95 96 97 96 95
96 97 94 92 94 96 100 99 98 98 97 96 95 93 91 96 98 97 97 97 97 98 98 98 98 97 99 99 98 97 98 98 99 99 100 100 96 96 92 91 91 90 91 92 91 89 87 89 91 94 96 95 96 95
94 95 84 81 95 99 99 95 95 94 92 91 94 96 97 98 98 97 96 97 96 95 96 98 98 98 99 99 99 100 99 98 98 98 98 99 100 99 97 92 91 92 94 92 92 92 94 94 95 96 95 95 95 96
94 97 86 84 99 95 86 88 86 87 93 82 98 97 98 98 100 99 98 98 97 98 100 99 100 99 98 98 98 99 96 97 97 97 99 98 99 99 97 94 91 92 98 96 92 94 94 96 95 96 96 96 96 96
84 89 86 92 93 91 91 96 90 90 92 94 98 98 98 98 99 99 97 96 97 98 100 100 99 99 98 95 99 94 95 96 97 96 93 99 94 98 96 95 95 97 99 96 95 95 95 96 96 96 97 97 98 98

GFSWCAN_sfc_rhum_018.txt.gz
RH
94 94 93 94 97 97 95 95 95 95 95 95 95 95 93 93 94 85 88 90 79 91 82 82 80 67 78 80 87 78 75 82 100 87 91 97 98 85 84 75 83 86 95 99 97 98 81 58 55 63 65 84 84 84
94 94 93 94 95 95 95 94 94 94 93 94 95 97 97 94 94 94 79 88 90 84 79 80 78 76 77 64 82 81 63 84 86 96 98 99 98 99 90 88 70 67 71 84 77 80 59 60 58 60 78 83 84 86
94 94 94 94 95 95 94 95 96 96 96 96 99 98 98 98 94 91 92 95 91 97 83 79 80 70 62 71 68 77 93 77 88 85 99 99 86 97 97 97 82 63 68 89 80 62 62 61 76 76 82 86 85 84
96 95 94 94 95 94 94 95 96 98 99 99 99 99 99 98 98 92 93 96 92 98 100 89 69 73 62 66 66 68 75 91 93 94 99 100 93 84 94 78 88 66 67 67 82 67 81 82 86 84 84 81 74 68
97 96 96 96 96 95 96 96 99 98 99 98 98 98 98 99 98 95 97 97 94 80 94 98 78 68 65 68 73 78 82 89 96 99 100 96 98 95 99 98 96 72 63 83 79 62 65 78 85 80 81 77 67 64
98 98 99 98 98 98 98 99 98 99 98 96 96 98 99 98 97 96 95 96 93 96 93 88 91 83 74 72 73 80 82 93 95 97 100 99 89 86 99 99 84 73 64 58 71 69 78 83 82 75 80 69 67 50
97 97 97 98 98 98 99 99 98 98 96 96 96 99 99 97 94 94 83 94 96 93 96 98 98 88 82 88 94 94 94 97 94 100 100 99 96 92 100 98 74 65 61 70 80 79 86 83 85 75 67 58 50 42
97 97 97 96 96 96 97 98 99 99 98 96 97 97 96 98 95 97 98 95 98 96 96 99 98 98 85 100 100 99 100 98 97 98 100 99 99 100 100 93 79 65 62 83 82 83 82 80 63 55 47 41 45 48
95 96 97 97 96 96 96 96 98 99 99 97 99 94 94 98 99 99 99 98 97 91 99 100 98 91 93 99 100 99 98 100 98 100 100 98 100 99 82 78 80 79 78 88 86 81 74 69 67 49 44 50 52 57
94 95 95 96 96 96 96 96 98 99 99 98 94 95 97 100 94 98 94 99 100 100 98 100 99 100 94 100 100 100 100 100 100 99 97 100 99 92 89 81 74 72 78 79 87 91 83 64 53 56 53 56 56 58
94 95 96 98 98 98 98 99 99 98 90 97 100 100 98 91 96 99 99 98 99 100 100 100 99 99 95 99 100 99 100 100 98 94 99 99 97 90 79 79 79 79 71 63 65 70 60 60 62 68 68 70 67 69
94 95 94 94 94 93 93 93 91 97 100 97 97 95 93 94 98 100 100 100 100 100 99 100 100 98 100 97 99 100 99 100 98 96 100 98 86 84 76 67 55 50 54 60 64 65 60 56 58 61 59 60 67 80
93 96 95 93 90 90 90 93 93 95 92 94 95 98 95 99 100 100 98 99 100 100 100 100 100 100 99 99 100 100 100 98 98 100 99 96 82 68 57 60 64 64 66 60 52 60 61 56 59 60 68 67 89 87
93 92 95 93 90 87 87 86 87 86 92 99 100 99 100 99 99 99 99 100 100 100 100 100 100 100 100 100 100 99 99 100 99 99 98 99 98 86 66 65 54 57 73 66 64 62 63 76 81 87 92 93 97 95
87 90 89 92 90 89 86 84 88 92 95 98 95 98 100 98 98 100 100 100 100 100 100 100 100 100 100 99 99 99 98 98 99 99 100 99 95 84 74 70 69 71 83 76 70 72 79 83 88 81 86 89 89 94
85 88 95 88 86 85 85 89 93 92 96 93 93 96 100 99 100 100 100 100 99 100 100 100 100 99 99 99 99 98 98 98 99 100 99 91 84 84 82 84 84 76 70 70 72 75 78 87 89 79 83 92 93 95
79 95 89 86 84 86 86 93 96 92 96 91 99 100 100 99 100 100 100 100 99 100 99 99 96 94 99 99 98 99 99 99 99 97 97 86 80 78 76 76 83 81 80 81 79 74 75 80 92 94 89 79 85 88
99 98 93 90 89 91 88 92 95 94 92 98 98 100 100 100 100 100 100 100 98 99 99 98 96 98 98 98 98 99 99 98 97 90 85 78 75 72 66 68 70 71 71 74 86 79 79 92 87 88 84 85 90 92
97 96 94 91 92 95 91 92 92 89 96 99 98 98 98 100 99 100 100 99 99 98 97 97 94 98 98 97 97 100 99 95 89 80 78 72 72 73 71 70 71 74 76 78 80 91 91 83 90 92 93 95 96 98
89 91 92 89 86 97 91 94 92 91 95 95 97 99 98 99 99 100 100 100 99 98 96 97 97 97 96 96 98 98 98 97 94 95 94 84 82 76 77 82 94 85 90 84 87 94 93 93 92 92 94 98 99 93
89 94 90 92 96 93 96 95 91 96 93 95 99 96 98 98 97 96 98 99 99 99 99 98 98 97 90 92 96 96 90 83 90 92 93 93 91 95 93 91 90 96 96 95 96 92 95 95 92 94 100 98 98 95
98 89 99 99 99 97 94 94 94 96 94 96 98 93 97 96 90 96 96 92 86 96 95 96 91 96 92 85 86 85 82 77 78 91 91 94 93 95 97 98 95 98 98 98 97 97 97 94 94 94 98 98 99 89
96 98 100 98 98 98 94 98 93 89 88 96 98 94 88 94 97 92 86 76 96 94 90 88 81 81 85 91 91 91 93 93 96 97 96 98 99 97 96 96 98 99 96 87 88 96 94 94 90 92 93 92 88 85
96 98 98 100 99 98 98 98 98 98 94 92 97 92 90 88 92 92 96 97 98 97 96 97 96 93 95 93 92 91 91 91 95 95 95 92 93 94 96 97 97 93 92 92 92 92 91 92 90 90 91 92 92 94
97 89 94 100 99 97 98 98 98 97 96 94 93 98 98 96 97 100 97 99 98 98 97 94 93 93 93 95 92 86 83 83 89 96 92 95 100 97 92 88 95 94 90 93 92 93 92 91 91 92 92 92 93 94
99 96 96 95 98 98 96 98 98 97 95 97 96 97 98 98 96 97 97 97 99 98 98 97 96 96 91 90 90 86 88 90 95 97 95 90 92 96 98 98 96 93 90 93 95 94 93 91 92 91 92 90 90 94
100 98 99 97 99 99 98 98 98 98 97 97 99 99 98 100 100 96 96 95 94 97 92 91 88 90 90 96 91 90 89 88 95 87 94 87 87 87 95 98 96 95 89 92 95 95 95 94 93 92 93 90 89 94
98 98 96 97 98 98 98 98 97 97 98 96 93 97 95 92 98 97 94 96 97 91 89 91 92 96 96 94 95 96 89 89 88 94 94 92 93 96 96 98 98 95 95 95 95 93 92 94 94 93 93 94 96 96
98 99 98 97 96 96 96 96 95 97 98 95 94 99 96 90 98 97 96 96 95 93 94 96 97 95 94 97 98 98 97 92 90 99 100 100 100 97 99 98 99 95 93 94 94 89 90 93 95 94 96 96 96 96
98 98 96 96 96 99 99 99 99 98 97 99 95 93 91 97 96 96 96 96 95 97 97 96 98 98 100 100 100 99 98 100 99 99 100 100 99 98 100 99 92 93 95 95 96 90 96 92 92 93 93 95 96 96
98 97 81 90 98 99 99 97 94 88 90 91 97 96 94 98 98 98 97 99 96 96 96 100 100 100 100 100 100 100 100 98 99 100 100 100 100 100 100 98 98 99 97 97 98 96 96 96 96 96 96 96 96 96
91 95 94 93 100 95 82 85 90 87 96 81 98 97 98 98 100 98 98 97 98 100 100 100 100 100 99 99 100 100 99 100 100 100 99 99 100 100 100 99 100 99 100 100 99 98 98 99 99 98 98 98 97 98
96 99 97 98 96 98 98 93 97 95 99 99 98 98 98 97 98 97 99 99 97 100 100 100 100 100 100 100 98 100 100 100 100 100 100 99 98 100 100 100 100 100 100 100 100 100 100 100 100 98 99 99 98 98

GFSWCAN_sfc_rhum_021.txt.gz
RH
93 93 96 98 98 98 95 94 95 94 96 96 97 96 96 95 95 81 93 94 77 92 88 86 81 76 81 80 84 76 76 82 92 83 86 94 96 88 85 75 88 92 98 98 98 96 68 55 61 64 64 76 78 84
93 94 97 98 96 95 95 94 95 94 95 98 98 98 98 97 96 85 86 94 91 84 85 84 80 82 80 62 84 84 68 78 83 93 98 98 98 99 88 85 73 76 69 82 74 75 57 61 64 63 71 79 86 86
93 94 95 95 95 95 94 94 95 97 99 98 99 99 99 98 95 86 96 97 86 95 85 82 83 74 67 75 71 76 93 79 85 84 97 99 82 98 96 96 85 72 69 86 76 56 63 61 62 74 81 81 86 85
93 94 95 95 95 95 96 96 99 98 99 98 98 98 99 99 94 90 97 98 87 92 96 88 76 76 67 72 75 69 82 91 92 94 100 100 88 84 94 79 89 73 73 72 84 70 76 74 75 80 86 87 82 81
94 94 95 95 95 95 97 99 99 99 98 97 98 99 99 99 95 89 96 98 95 74 92 99 82 74 72 77 82 81 81 88 96 99 100 95 96 95 99 97 97 75 70 83 73 62 70 65 79 85 88 82 76 72
95 96 96 96 96 97 99 99 98 98 96 97 99 99 99 95 93 82 82 93 97 93 91 91 92 86 80 86 87 87 90 94 93 97 100 98 87 89 99 99 82 72 68 58 63 64 71 82 87 83 80 78 72 49
98 98 98 98 98 99 99 99 98 98 97 96 99 99 97 90 93 86 72 95 98 91 96 98 98 89 89 91 96 95 95 98 95 99 98 99 97 94 99 98 70 69 66 67 72 84 90 88 89 82 77 59 50 42
98 98 98 98 98 98 99 99 98 97 96 96 98 98 98 95 95 97 98 98 98 93 93 98 98 94 88 100 99 98 99 98 98 99 100 100 98 100 99 89 81 70 69 78 86 85 82 84 82 69 43 41 50 56
98 97 96 96 97 98 98 99 99 99 97 97 95 92 93 97 99 98 97 99 97 87 98 100 91 90 94 99 100 100 98 100 97 100 100 99 100 99 89 81 77 81 84 83 89 88 83 75 53 47 53 62 65 60
98 98 97 96 96 96 97 97 98 99 97 92 92 92 98 99 92 93 91 96 99 99 99 98 99 99 96 100 100 100 100 100 100 99 98 100 99 93 81 82 84 82 76 88 91 93 76 66 69 80 86 76 60 62
96 97 97 97 98 98 98 99 99 91 90 97 99 100 98 90 95 98 98 96 98 100 99 100 100 99 97 99 100 99 100 100 97 94 100 98 98 90 80 86 78 78 77 78 76 74 78 85 96 90 72 74 70 69
93 92 91 92 94 95 95 94 91 96 99 95 97 94 93 94 98 98 98 100 100 99 99 100 100 99 100 96 99 100 100 99 98 97 100 99 93 70 71 79 77 80 84 87 87 92 85 71 65 69 64 60 64 79
96 94 92 90 90 90 93 96 95 94 91 92 93 98 94 100 100 100 99 100 99 100 100 100 100 100 98 98 100 100 100 99 99 100 99 100 93 78 81 89 94 91 88 85 81 76 69 66 64 68 77 69 89 82
92 91 91 90 90 89 89 89 87 86 92 98 100 98 99 99 99 99 99 100 100 100 100 100 100 100 100 99 100 99 100 100 99 99 98 100 99 97 72 74 68 74 84 84 78 72 69 82 81 89 90 94 94 90
91 90 89 88 87 87 86 86 86 88 93 97 92 98 99 99 99 100 100 100 100 99 100 100 100 100 99 99 99 99 98 98 98 98 99 100 100 98 76 85 89 90 92 81 70 76 85 86 87 82 86 90 87 95
86 88 96 90 91 87 86 88 91 90 95 92 96 98 99 97 100 100 100 100 99 100 100 100 99 99 99 99 98 98 98 98 99 100 100 98 99 98 99 98 96 93 81 77 79 79 79 88 88 79 87 91 93 95
90 100 93 88 88 86 85 92 95 93 95 88 99 100 99 99 100 100 100 100 99 100 99 98 95 94 98 98 99 99 98 100 100 99 99 92 90 86 84 81 87 83 77 73 73 74 76 82 94 93 88 77 84 89
97 98 93 88 90 86 90 94 95 91 99 99 99 100 99 100 100 100 100 100 98 100 99 98 96 98 98 98 99 99 100 98 98 97 95 85 79 77 71 69 69 70 71 75 82 80 81 93 86 89 85 86 92 93
94 95 90 88 90 92 94 93 91 89 99 99 99 99 99 99 99 100 100 100 99 98 95 97 94 99 98 98 98 100 99 97 94 85 81 77 76 75 74 72 74 77 79 81 83 93 93 88 93 95 94 95 97 98
86 90 90 88 86 95 89 92 92 90 97 94 98 98 98 98 99 100 100 100 99 98 92 96 96 96 95 96 97 98 98 97 94 95 95 88 87 80 85 91 95 93 94 93 94 98 95 94 91 93 95 97 97 96
89 95 93 92 98 94 95 96 92 96 91 95 98 95 98 97 97 98 97 99 97 99 98 98 98 98 93 95 98 97 90 84 89 94 94 95 96 96 97 96 96 95 98 98 92 89 89 94 90 87 91 92 93 95
96 90 98 94 95 92 93 95 95 94 94 98 97 94 98 98 97 96 96 94 89 96 96 98 94 97 92 94 97 97 89 91 93 96 97 97 97 96 97 98 97 99 94 91 89 92 91 86 88 90 92 92 90 90
95 97 96 94 96 93 96 98 94 85 87 98 99 97 97 97 98 92 95 76 90 97 97 96 90 90 92 87 84 86 90 90 95 95 96 98 98 99 99 92 90 94 93 91 87 91 94 95 91 94 93 92 92 91
92 96 98 98 95 99 96 99 98 98 94 98 98 96 92 96 95 96 99 97 96 97 95 97 96 95 90 86 87 86 85 85 92 94 96 98 97 93 91 92 94 95 90 90 94 97 94 94 96 93 92 93 91 92
89 88 95 97 97 96 99 100 98 97 99 95 96 98 99 95 99 98 100 97 98 98 95 92 90 90 92 94 91 85 81 86 92 93 91 90 95 93 91 87 94 93 90 95 96 95 94 93 92 93 92 92 94 93
98 98 98 99 97 97 97 99 98 97 98 98 97 97 98 97 96 99 94 97 98 97 98 97 97 94 89 88 88 86 81 86 92 93 87 87 90 98 99 99 96 95 92 99 99 98 95 93 94 94 93 91 92 93
96 97 98 97 98 98 98 98 98 98 97 97 97 97 97 97 96 97 96 95 95 97 95 94 89 89 89 88 80 83 89 92 96 92 88 86 87 86 93 100 98 94 91 96 99 100 99 98 96 95 95 92 94 96
97 99 95 94 98 98 98 98 97 97 98 98 97 97 96 94 95 95 95 96 97 94 93 93 94 91 90 89 94 95 87 93 94 95 92 94 96 100 99 99 99 99 98 99 100 100 99 98 97 96 96 96 96 95
98 98 98 97 97 98 98 98 97 98 97 97 97 98 97 90 98 97 96 96 96 95 95 95 97 96 96 97 98 97 96 94 90 98 100 100 100 97 99 100 100 99 100 100 100 97 95 96 96 96 96 97 98 98
97 98 98 97 97 98 99 99 98 98 98 97 93 90 90 97 97 96 97 95 96 97 97 97 99 98 100 100 100 100 99 100 100 100 100 100 99 99 100 100 100 100 100 100 100 94 100 99 100 100 97 98 97 97
99 98 91 94 99 99 99 98 98 97 98 97 96 95 94 98 98 97 97 98 97 98 97 100 100 100 100 100 100 100 100 99 100 100 100 100 100 100 100 100 100 100 100 100 100 100 100 100 100 100 100 100 100 100
95 97 97 94 98 96 96 94 90 100 95 88 98 98 100 98 100 99 98 98 99 100 100 100 100 100 100 100 100 100 100 100 100 100 100 100 100 100 100 100 100 100 100 100 100 100 100 100 100 100 100 100 100 100
99 100 99 100 98 98 99 94 97 98 98 97 99 98 99 97 98 97 98 100 98 100 100 100 100 100 100 99 98 100 100 100 100 100 100 100 100 100 100 100 100 100 100 100 100 100 100 100 100 100 100 100 100 100

GFSWCAN_sfc_rhum_027.txt.gz
RH
96 96 97 97 98 96 97 96 96 96 97 98 98 95 92 87 90 87 97 95 77 94 90 84 74 75 76 76 83 79 75 80 86 88 91 79 90 75 67 58 80 75 91 92 89 80 70 45 49 61 56 55 55 65
96 97 98 98 97 95 95 97 99 99 97 98 99 97 90 83 88 89 93 97 88 87 88 85 81 81 80 62 79 84 69 75 75 86 90 93 99 98 82 75 71 70 67 72 63 66 51 49 57 52 56 53 53 65
98 97 97 96 96 96 98 99 98 97 98 98 99 99 89 86 88 89 96 94 84 95 85 82 84 77 75 81 72 77 84 74 72 74 88 92 91 88 94 85 76 68 61 71 67 49 54 54 50 53 52 55 55 61
97 96 95 96 98 98 98 98 98 98 98 99 99 99 96 90 92 86 90 97 80 90 100 88 77 81 76 82 77 73 78 84 84 82 97 98 96 78 88 74 79 67 67 68 71 61 58 52 58 56 56 62 63 66
95 96 97 98 98 98 98 98 99 99 99 98 94 94 93 92 90 89 97 98 94 64 97 98 82 79 81 83 79 75 74 80 88 95 100 95 90 91 96 92 87 69 65 76 73 51 53 52 48 60 67 68 69 74
96 98 99 98 98 98 99 98 99 99 99 99 99 94 89 89 89 82 73 89 94 89 92 99 89 88 86 85 88 91 88 87 84 87 99 89 86 87 100 89 66 61 62 56 56 56 56 58 60 66 71 74 76 69
98 98 98 98 98 98 99 99 98 98 95 94 92 92 94 94 91 72 67 88 94 90 95 98 98 86 91 90 95 95 94 94 88 97 99 98 96 83 99 91 82 77 74 72 67 70 72 71 77 74 58 51 55 55
98 98 98 98 98 98 99 99 99 96 95 94 93 93 92 94 94 94 97 95 95 80 88 95 98 97 89 98 99 95 99 95 97 98 98 99 97 99 99 87 82 78 80 78 83 79 82 61 49 49 55 67 83 87
98 99 99 99 98 98 99 99 98 94 93 91 91 92 90 96 99 96 94 93 91 80 95 94 90 93 90 99 99 99 96 100 97 100 100 94 100 100 89 87 91 92 95 92 70 60 69 77 79 81 81 84 94 99
98 98 98 98 99 99 99 99 96 93 91 88 88 88 99 100 91 86 85 90 95 98 98 100 94 100 90 100 100 100 100 100 99 99 96 100 100 81 86 89 93 94 90 82 84 91 96 97 96 98 99 98 96 93
98 98 98 98 99 99 97 94 94 88 87 95 99 100 98 89 88 94 98 97 96 96 99 99 98 98 96 98 100 100 100 100 96 92 99 98 98 83 90 94 86 85 87 90 92 94 96 98 98 99 98 96 93 88
95 96 98 98 97 95 94 95 91 95 99 93 96 93 90 90 95 96 100 100 99 98 100 100 100 98 100 95 98 99 100 100 94 94 100 99 95 98 97 98 97 95 94 93 94 94 92 89 86 86 82 73 72 83
93 94 94 95 95 92 90 89 89 89 89 90 90 90 92 98 98 89 100 100 100 100 100 100 100 100 99 97 100 100 100 100 98 100 98 99 99 99 99 99 97 96 93 86 79 77 74 70 70 78 86 87 90 83
90 91 93 93 95 95 92 88 86 86 90 96 96 99 96 100 100 100 99 100 100 100 100 100 100 100 100 100 100 100 100 99 99 97 96 99 100 98 92 95 92 86 88 76 69 68 74 78 79 88 92 92 94 85
90 87 85 93 91 92 91 90 87 90 94 99 94 99 98 100 99 100 100 100 100 100 100 100 100 97 100 98 97 97 97 96 92 93 95 99 98 88 95 93 92 95 95 84 74 80 90 88 84 80 85 84 84 91
87 86 92 93 89 84 83 84 89 92 97 99 99 99 99 99 100 100 100 100 99 100 100 98 98 96 98 97 96 95 93 94 94 99 99 98 99 99 99 99 97 94 83 80 78 74 79 88 91 84 85 90 94 95
86 98 90 90 87 82 81 86 91 88 94 96 99 100 100 100 100 100 100 100 99 100 100 98 96 95 95 96 96 95 94 94 98 98 98 98 98 98 98 98 91 82 75 79 80 85 87 88 93 93 95 88 86 86
99 98 88 85 82 80 91 89 88 91 98 99 99 99 99 100 100 100 100 98 98 99 96 95 91 96 97 98 98 96 97 99 95 95 95 95 87 90 81 73 76 80 86 91 95 92 91 94 90 86 80 75 77 77
93 92 87 85 82 89 91 92 88 94 99 99 99 99 99 99 99 99 100 100 98 94 94 91 93 96 97 93 95 98 96 97 95 88 84 83 83 84 86 87 88 93 93 87 82 81 80 77 78 73 72 73 79 77
82 84 86 84 78 89 86 93 89 90 97 99 98 98 98 98 99 99 99 98 97 93 91 94 92 91 90 91 91 96 95 90 86 88 93 94 89 86 87 86 87 82 77 78 78 79 74 73 70 72 76 78 85 85
89 94 86 88 93 91 97 93 89 95 94 96 98 94 98 96 96 97 96 92 93 98 97 97 98 96 94 96 92 90 90 83 83 86 91 95 89 83 83 84 82 77 82 87 86 83 85 83 78 76 87 90 89 89
95 86 95 87 90 90 96 96 96 96 95 98 95 93 96 97 98 98 96 93 90 96 92 95 93 91 90 93 89 87 89 90 85 86 86 87 91 88 84 81 80 88 84 87 85 92 86 79 81 83 90 91 88 86
88 89 94 89 89 92 97 92 93 85 85 99 93 96 97 97 98 91 96 91 96 92 94 94 93 90 89 83 76 76 75 78 87 92 92 88 84 85 85 82 81 87 85 78 76 80 86 91 85 91 89 89 89 91
82 89 89 93 98 100 95 100 93 97 97 96 98 99 97 99 94 95 94 95 95 93 94 94 93 92 90 80 82 84 83 77 82 86 86 85 87 86 82 83 84 84 79 77 81 88 88 93 96 90 92 94 94 95
86 94 90 99 96 98 100 100 98 93 100 98 98 99 99 95 97 94 94 95 93 95 95 96 94 92 90 91 89 87 87 82 84 86 84 79 84 80 75 70 81 81 83 92 94 96 95 94 94 94 93 95 95 95
100 97 94 98 98 98 99 99 100 100 100 99 97 96 97 97 96 96 92 95 96 95 97 97 95 90 87 84 86 87 85 86 80 84 80 72 75 83 85 86 86 81 86 97 100 99 97 94 95 96 96 93 95 96
97 97 94 89 90 92 97 96 94 93 100 98 96 97 97 97 97 93 92 92 93 94 93 93 92 90 89 85 83 89 89 88 87 82 79 76 77 77 85 91 92 85 88 94 99 100 100 100 100 97 97 94 94 95
96 97 99 98 99 98 99 98 97 97 98 96 96 96 95 95 94 93 92 93 94 91 90 89 89 86 86 86 90 92 92 91 93 91 90 88 89 93 93 92 92 100 97 98 99 99 98 100 99 97 97 98 97 96
99 99 97 99 98 97 99 99 100 98 97 97 97 96 93 88 93 92 90 92 93 92 92 92 95 94 93 90 94 94 94 93 84 93 96 96 96 91 92 96 96 96 99 99 100 99 99 97 98 97 93 96 95 94
97 98 98 99 98 98 94 98 98 98 96 95 90 87 87 94 94 93 93 93 94 97 97 97 97 97 99 97 100 97 99 100 98 96 98 100 97 94 98 100 100 99 100 99 97 95 100 98 96 93 94 94 95 95
98 97 97 98 98 98 100 100 98 98 98 96 97 96 94 96 96 96 94 96 96 97 97 100 99 100 99 100 100 99 98 96 100 100 100 100 100 99 100 100 100 100 100 100 98 100 100 98 99 98 96 96 96 97
96 99 100 97 97 97 97 99 100 98 97 99 99 97 98 96 100 97 98 95 94 94 100 100 100 100 100 100 100 100 100 100 100 100 100 100 100 100 100 100 100 100 100 100 99 98 100 100 99 99 99 98 98 97
99 100 99 100 100 99 100 97 98 99 98 99 99 99 99 97 99 97 96 97 93 96 98 100 100 100 100 100 98 98 99 99 100 100 100 100 100 100 100 100 100 100 100 100 100 100 98 100 98 99 99 99 97 96

GFSWCAN_sfc_rhum_030.txt.gz
RH
86 90 90 92 98 97 96 97 96 97 97 96 96 97 96 92 89 69 83 77 54 70 61 61 51 53 53 47 63 58 55 61 68 91 91 68 90 52 45 37 54 59 79 93 78 97 80 30 38 46 38 35 36 35
88 88 93 97 98 98 97 97 96 96 95 95 95 96 94 90 88 86 73 74 61 58 69 65 67 63 59 46 51 55 50 51 48 68 83 87 97 96 66 59 48 53 47 52 46 44 34 34 35 34 40 42 40 42
98 97 98 97 97 98 98 98 98 98 98 97 97 96 92 85 92 80 76 81 60 79 65 59 64 62 59 64 56 54 62 50 52 57 67 83 100 67 97 62 56 46 44 53 50 28 32 33 32 31 32 37 34 34
96 97 98 98 98 98 98 98 98 98 98 98 96 94 89 84 90 78 64 82 73 72 100 77 57 67 63 61 59 55 57 62 58 54 92 99 98 58 74 54 54 46 48 46 50 37 32 31 34 36 38 40 42 41
98 98 98 98 98 98 98 98 98 98 98 98 96 89 85 89 90 77 74 84 69 57 94 82 66 65 62 57 56 54 54 53 61 82 100 92 69 75 81 73 67 43 45 60 57 43 45 40 39 45 50 49 51 54
98 98 98 98 98 99 99 99 98 98 98 95 90 88 88 88 94 55 72 71 67 65 80 99 69 71 66 64 66 69 62 61 56 66 91 64 66 69 98 70 64 58 56 56 55 51 53 53 53 55 58 54 53 52
98 98 98 98 99 98 98 97 96 95 94 93 90 89 90 93 77 77 74 75 84 68 87 100 91 71 74 68 77 71 71 70 62 84 96 90 77 61 98 77 68 63 59 62 61 60 60 59 59 50 53 55 65 70
98 98 98 98 98 98 93 93 93 93 93 93 93 92 92 91 91 82 75 86 84 54 66 97 94 90 74 95 97 83 93 78 86 94 93 95 88 92 95 76 69 68 64 66 58 60 57 52 55 63 65 71 82 93
98 98 98 98 98 98 94 93 93 91 91 94 95 94 81 85 86 78 92 90 69 59 80 100 100 98 79 94 94 93 81 100 87 100 99 85 98 98 84 84 86 84 86 84 66 64 69 74 75 83 92 94 97 100
98 99 98 98 98 96 94 91 89 88 89 89 77 74 95 94 89 81 65 75 80 86 85 100 85 98 74 99 100 98 99 98 98 96 92 100 96 79 87 89 88 84 72 68 90 96 96 96 95 96 96 86 79 74
98 98 98 97 95 95 96 90 89 84 86 84 96 98 84 85 68 78 91 89 81 100 92 95 88 92 87 94 100 99 100 100 100 86 97 99 96 90 92 91 84 82 83 81 82 86 75 78 94 98 84 76 75 75
96 95 94 92 91 91 94 91 88 85 90 87 87 83 75 73 80 97 100 100 96 96 100 100 99 92 99 83 92 96 100 100 98 80 99 98 95 98 97 95 84 78 76 74 68 68 68 64 65 66 64 58 63 73
94 94 94 93 91 89 89 92 90 87 86 78 77 97 78 99 100 100 100 100 98 100 99 100 100 100 92 85 100 97 100 100 84 98 97 98 99 99 98 95 91 77 68 63 58 56 54 56 63 66 73 71 93 69
91 91 93 94 94 92 88 87 84 83 85 94 100 100 100 100 100 100 98 100 100 100 100 100 100 100 100 100 100 100 100 100 100 96 94 97 100 100 99 97 68 64 85 63 58 59 68 67 70 90 100 97 100 83
88 90 89 93 93 92 89 86 84 75 85 91 93 100 100 100 100 100 100 100 100 99 100 100 100 95 100 100 100 100 100 98 87 90 93 96 99 97 98 74 65 75 92 75 64 70 96 92 79 74 81 76 80 92
83 78 86 92 89 88 86 85 89 86 97 97 96 100 100 100 100 100 100 100 99 100 100 98 99 100 100 100 100 100 98 91 93 94 96 88 93 96 95 92 86 79 67 63 64 68 80 91 94 78 81 79 85 87
78 82 90 88 82 80 79 77 91 94 100 100 100 100 100 100 100 100 100 100 99 100 100 100 100 99 88 95 98 86 99 91 96 95 92 87 91 93 94 90 91 74 67 70 74 76 78 78 81 73 67 56 59 62
87 83 85 82 73 74 75 75 87 83 96 97 98 100 100 100 100 100 100 98 97 96 92 93 79 97 99 97 93 92 93 96 85 96 96 98 95 79 74 62 63 71 78 85 85 78 72 73 63 57 54 53 53 53
83 85 84 81 72 76 82 84 76 92 98 97 99 99 99 100 100 99 99 98 89 83 86 83 97 86 91 83 93 95 97 96 97 91 91 98 93 71 70 75 81 82 76 68 64 62 60 60 59 55 56 54 60 59
80 82 83 80 70 73 84 84 72 80 90 95 92 94 95 96 99 100 100 94 80 83 91 94 88 87 84 84 81 88 80 74 74 82 88 82 73 72 74 73 70 64 62 61 61 63 58 57 54 55 61 63 73 74
79 83 78 76 78 76 84 77 80 83 84 88 91 87 91 93 97 100 98 82 95 94 90 91 96 93 88 83 75 75 80 70 73 78 79 83 72 67 68 65 60 61 66 70 72 68 71 68 62 61 78 83 83 81
85 79 84 80 87 91 85 85 84 81 82 86 86 82 89 93 94 96 93 93 86 89 88 90 88 82 79 79 75 77 78 74 76 78 81 78 80 76 68 64 66 75 71 75 68 78 72 63 69 73 81 85 78 77
79 78 94 96 93 95 94 77 89 78 78 91 83 86 88 93 91 79 92 84 88 85 89 89 91 89 86 77 68 68 67 69 75 79 77 74 70 72 70 68 70 77 73 62 59 65 73 77 72 84 81 81 80 83
72 89 88 90 89 98 90 94 80 84 90 88 89 90 89 91 83 82 86 87 85 81 83 90 88 87 87 87 86 84 70 65 72 74 71 72 75 76 70 69 70 71 66 64 69 77 77 84 82 79 84 84 84 85
89 93 88 93 88 89 96 97 92 82 94 93 88 91 92 88 89 84 87 87 86 90 90 90 90 89 88 90 87 86 86 73 75 78 75 73 76 70 65 62 68 68 71 82 84 84 84 84 83 84 83 85 84 84
98 96 91 94 93 93 95 88 97 96 93 91 93 89 94 91 86 88 78 86 91 90 95 95 92 89 86 85 85 86 86 87 80 77 70 63 66 74 75 74 72 75 74 83 87 87 83 81 83 84 85 81 80 84
95 96 86 82 82 84 92 90 87 86 87 89 90 90 89 84 87 81 76 80 81 88 87 89 87 86 87 86 86 85 81 78 77 72 68 66 68 68 78 83 82 77 73 79 84 86 88 87 86 86 86 83 82 84
87 88 98 95 91 88 93 91 89 90 89 83 86 89 87 88 84 81 79 81 85 84 85 85 83 82 85 86 85 84 84 82 84 79 77 76 76 80 81 80 79 87 85 85 87 86 85 86 88 86 85 86 86 83
93 92 91 96 93 89 90 90 89 85 84 85 92 89 87 78 85 83 81 84 84 84 85 86 89 88 86 82 86 84 84 82 72 71 70 80 81 82 79 82 82 82 83 84 81 82 83 84 85 87 84 87 86 85
94 92 91 95 94 90 92 91 92 93 83 86 79 77 75 84 87 85 85 87 88 93 93 92 92 90 92 86 88 88 89 87 87 86 84 84 85 85 86 86 86 85 86 86 86 82 80 84 83 82 84 84 85 86
88 93 90 91 91 93 95 96 95 92 91 89 91 90 86 87 88 87 86 89 88 89 88 88 89 89 85 86 84 82 86 88 90 88 89 90 89 88 86 87 87 89 88 87 87 86 87 87 85 87 85 86 86 87
89 96 92 87 90 93 91 93 96 92 92 91 92 89 91 89 89 88 91 89 85 85 96 88 85 89 91 89 90 89 97 90 87 90 90 91 90 87 88 86 89 90 88 87 86 86 86 88 88 87 88 86 86 86
94 93 90 90 92 91 94 89 86 91 91 90 92 91 91 89 90 90 88 91 91 91 90 89 90 91 90 87 86 88 93 86 89 97 98 97 95 95 93 88 89 90 89 88 86 86 87 86 86 85 84 86 84 84

GFSWCAN_sfc_rhum_033.txt.gz
RH
79 80 81 83 84 86 90 89 91 89 93 94 95 94 94 94 94 91 65 62 41 47 45 42 28 30 33 31 58 49 51 53 57 76 85 63 81 48 43 30 51 57 74 89 71 97 79 22 26 37 38 28 26 29
80 83 84 88 89 86 86 90 95 94 97 96 95 93 94 94 94 89 72 55 46 44 58 54 57 52 47 39 34 49 36 46 43 51 76 81 96 94 60 53 32 47 40 50 41 43 29 24 25 24 27 33 31 32
87 87 91 94 95 95 94 96 97 98 98 96 96 97 96 95 91 92 59 54 47 63 57 52 55 55 49 53 51 45 51 36 42 47 58 75 100 62 94 58 46 34 34 43 40 23 23 23 24 25 27 32 31 31
93 93 95 98 98 98 97 98 97 96 95 95 96 96 96 94 92 90 56 56 44 62 100 71 49 59 52 48 46 49 46 51 48 47 86 96 97 46 67 48 45 39 36 35 39 30 28 24 31 37 40 40 39 39
98 98 98 98 98 98 97 98 98 98 98 97 96 96 94 89 85 74 66 66 60 44 88 78 58 56 49 46 45 45 49 49 51 75 96 85 57 66 70 62 58 33 39 56 55 41 48 41 44 49 47 48 47 48
98 98 98 97 98 98 98 98 98 98 97 96 95 95 90 85 88 68 67 66 62 53 70 97 62 62 55 50 49 47 46 45 42 63 85 52 54 60 98 66 52 48 47 49 51 50 50 52 45 44 51 51 50 51
98 98 98 98 98 99 99 99 99 98 98 96 93 90 86 93 71 56 52 75 78 59 78 95 86 66 60 54 59 54 54 54 49 66 90 70 61 55 96 70 57 55 51 52 51 53 60 49 53 54 62 68 77 83
98 98 97 93 93 96 97 97 96 94 91 89 87 84 89 95 91 67 75 86 73 51 54 96 94 90 63 83 94 65 81 64 76 82 82 88 74 84 82 65 59 57 55 56 51 48 52 53 54 62 66 71 72 77
98 97 97 93 90 90 92 94 91 91 90 91 93 95 70 72 75 66 91 80 63 62 71 100 100 100 65 78 83 86 66 100 72 100 89 77 95 93 75 69 68 67 73 67 63 60 61 69 77 76 72 76 83 95
98 96 95 96 91 92 90 91 92 93 94 96 61 51 87 91 86 82 66 74 68 72 73 100 73 93 65 94 96 93 97 97 95 94 76 100 90 74 77 79 72 71 62 70 94 95 94 86 71 64 64 60 59 53
93 92 92 94 94 93 92 90 90 90 92 69 84 96 86 81 69 70 84 78 68 95 82 86 75 88 77 90 99 96 99 97 99 84 94 99 93 81 84 79 74 70 62 65 67 62 58 61 78 74 61 63 65 62
92 91 91 91 92 93 86 81 80 71 80 84 81 75 68 65 81 96 100 99 88 91 97 98 94 82 94 72 86 93 99 93 97 70 98 97 93 94 90 80 69 60 58 58 55 54 55 53 52 52 50 57 66 66
94 94 92 91 89 90 90 91 88 85 83 64 70 96 73 99 100 100 100 99 98 100 98 98 100 96 91 80 99 93 100 99 73 98 89 96 97 97 84 74 70 64 60 55 49 47 47 51 58 61 66 70 87 64
91 91 92 93 91 88 88 86 86 78 67 84 100 100 100 100 100 100 100 100 100 100 100 98 100 99 100 100 100 100 100 93 100 99 94 99 97 98 96 73 61 60 82 53 50 53 62 62 72 88 100 98 99 76
87 89 86 89 91 88 86 84 79 68 90 90 90 100 100 100 100 100 100 100 99 98 100 99 97 87 100 100 99 100 100 98 87 95 93 98 98 98 96 63 56 65 89 69 57 69 100 92 70 71 75 69 76 87
77 77 86 89 85 84 82 75 72 70 88 91 97 100 100 100 100 100 100 100 98 100 98 86 98 100 100 97 100 100 96 90 95 94 93 96 97 97 79 68 69 65 62 58 62 70 82 87 93 73 69 65 89 84
71 73 88 86 81 75 79 76 86 97 100 99 100 100 100 100 100 100 100 100 98 100 100 99 100 99 85 93 98 86 100 94 97 92 81 87 90 92 92 83 91 72 62 65 66 68 72 71 71 60 55 50 48 50
73 66 83 80 68 64 68 70 91 77 97 99 99 100 100 100 100 100 100 100 100 99 100 100 80 100 100 99 92 93 92 89 87 84 80 78 81 88 78 68 58 61 70 74 73 67 64 64 53 50 48 45 43 44
75 77 83 81 67 65 73 75 70 89 97 97 99 99 100 100 100 94 98 94 81 79 87 88 98 98 96 89 96 95 96 95 94 94 98 97 79 77 62 68 76 72 71 67 62 57 55 53 52 47 49 46 55 55
78 81 83 80 66 65 75 77 62 75 87 94 94 94 94 97 99 100 100 92 76 78 92 95 97 96 96 92 87 88 88 83 84 92 91 94 90 77 75 73 67 65 59 57 57 60 52 52 48 48 56 58 69 70
68 70 74 62 64 62 71 70 73 76 75 84 85 79 89 90 98 100 99 79 93 89 88 92 94 87 78 79 79 83 83 80 75 73 78 81 75 68 64 61 62 62 64 67 68 65 67 62 55 56 73 79 78 75
66 77 80 78 82 87 75 71 67 65 71 79 76 68 89 99 99 98 90 90 86 91 89 92 94 82 74 74 74 83 96 93 87 87 85 77 76 77 73 68 69 75 70 72 65 75 68 58 65 69 77 81 72 71
72 70 90 97 98 98 98 70 91 67 86 85 73 78 84 88 81 66 88 80 87 84 84 82 88 91 88 87 78 73 73 76 81 86 85 82 79 77 71 68 69 76 71 60 55 62 70 71 68 79 76 75 74 78
69 94 100 97 93 99 97 92 70 73 81 81 77 88 83 84 72 80 86 84 82 72 79 81 77 81 84 85 83 84 86 86 86 87 86 80 76 72 68 66 66 67 62 60 66 73 72 79 76 74 77 78 76 78
84 95 94 88 92 89 90 92 88 77 83 84 87 88 88 82 88 84 86 81 82 86 86 82 82 84 84 88 87 86 88 85 86 86 87 85 85 72 64 60 63 64 67 79 80 80 80 78 78 78 76 77 75 76
91 93 89 90 87 86 86 82 87 89 85 84 89 83 90 90 78 82 72 86 87 84 92 92 91 84 82 81 80 82 85 87 85 85 83 70 69 74 72 71 69 76 70 78 82 82 78 76 78 76 77 72 72 77
90 94 80 71 76 74 85 85 77 79 80 84 82 86 89 79 81 83 77 80 82 85 80 83 77 76 77 78 80 83 84 81 81 74 64 61 64 66 76 81 79 75 68 74 79 80 82 81 79 78 78 77 76 78
83 82 89 92 82 76 82 80 84 88 88 76 80 83 83 88 87 80 76 77 82 74 75 76 75 75 77 80 84 83 79 74 77 71 69 68 67 72 73 74 75 72 78 77 80 81 80 81 81 80 79 81 81 77
88 88 84 91 84 84 83 82 82 79 77 79 93 84 84 75 85 83 80 82 82 84 84 84 87 86 80 75 79 77 78 78 72 68 67 75 76 78 73 74 74 74 76 77 72 74 75 81 81 82 81 83 81 81
86 87 82 86 85 81 89 87 92 90 77 81 74 70 72 82 86 82 83 84 84 89 89 87 86 83 83 79 81 80 82 81 82 83 82 82 82 78 78 77 78 78 79 80 81 76 73 76 77 78 80 79 80 82
80 84 82 82 81 90 92 96 94 86 85 86 88 87 84 85 85 81 81 83 81 83 83 81 81 80 79 80 81 79 80 82 79 76 80 82 80 80 79 79 80 81 82 81 81 81 81 82 81 80 79 79 78 80
87 92 84 76 84 88 88 85 89 92 89 87 88 85 87 85 84 84 85 88 83 81 88 78 80 83 80 79 80 79 92 81 77 78 78 82 82 80 79 78 80 81 81 81 82 81 80 81 83 82 82 80 78 78
83 85 83 83 81 76 86 87 79 81 82 83 85 84 86 86 86 86 79 83 87 86 86 85 84 82 81 81 80 81 80 72 72 81 82 84 90 89 89 83 81 80 80 82 82 81 80 79 82 80 79 77 77 77

GFSWCAN_sfc_rhum_036.txt.gz
RH
74 75 78 80 82 83 82 84 86 87 89 90 90 91 93 90 90 97 87 89 96 84 38 35 27 32 35 48 70 57 56 53 70 87 91 79 92 61 49 33 63 73 86 96 88 100 89 22 26 41 46 38 34 33
78 79 80 82 83 84 83 85 88 89 90 90 92 93 93 92 93 93 94 86 84 98 60 56 55 48 46 46 50 57 48 48 50 59 79 89 98 97 80 69 27 57 47 66 58 64 36 25 29 27 32 35 37 40
82 83 84 85 85 85 88 89 89 86 89 90 91 92 92 92 95 94 93 92 96 75 59 48 57 53 48 52 54 57 54 39 45 45 69 83 99 77 98 77 58 32 33 54 48 25 24 24 24 32 37 43 38 38
84 85 86 87 88 89 88 89 91 92 88 89 92 93 95 95 96 96 96 92 83 66 99 76 48 55 47 45 46 49 48 54 57 63 94 99 100 50 86 57 61 42 36 35 39 31 31 39 44 49 45 46 47 44
88 86 87 88 91 91 92 94 92 95 94 93 93 96 95 96 95 96 94 82 76 57 88 85 56 50 44 45 44 48 55 57 65 84 100 93 66 79 81 73 77 35 38 70 72 47 52 58 48 45 48 50 46 46
89 90 93 94 94 96 95 94 96 97 97 97 96 96 96 95 95 88 94 64 69 48 71 97 64 58 46 44 46 52 50 52 50 76 90 61 53 74 99 84 46 45 44 46 54 49 53 51 53 58 62 61 60 62
98 99 99 98 98 98 98 98 98 97 96 95 96 95 95 93 84 90 77 81 86 63 82 100 94 65 54 53 60 53 49 56 55 73 91 74 64 65 99 88 53 50 47 51 48 51 60 52 68 65 70 72 71 67
98 98 98 98 98 98 98 98 97 97 97 97 95 95 95 91 92 92 85 86 88 52 64 98 100 92 63 89 91 67 78 68 72 80 82 90 80 95 94 60 55 52 53 52 53 52 56 57 61 67 64 61 63 70
96 93 95 97 98 98 98 98 98 97 96 94 92 90 75 90 92 79 93 92 84 72 95 100 100 100 63 81 91 86 71 100 79 100 88 79 96 94 68 64 63 62 64 62 57 56 58 66 70 66 60 65 76 84
94 90 91 92 92 96 96 94 93 92 90 88 74 65 100 92 89 85 65 84 86 76 77 100 82 99 73 98 98 97 99 98 97 94 79 100 94 70 68 66 64 62 62 65 84 90 80 77 67 64 68 66 66 66
93 93 92 90 91 94 91 94 92 86 84 75 87 98 88 83 69 74 98 94 84 95 81 85 80 92 79 93 99 98 100 98 100 88 94 98 88 81 73 69 65 61 65 67 68 66 62 62 76 76 68 66 66 73
90 91 91 90 89 90 88 92 93 78 75 81 80 77 73 74 87 97 100 100 98 97 97 97 91 81 94 70 88 93 96 95 98 79 99 95 89 81 77 72 65 63 63 59 55 60 62 60 58 57 59 70 78 87
90 89 89 90 89 89 89 88 85 85 87 70 80 98 87 99 100 100 100 100 99 100 98 98 99 98 91 78 100 92 100 99 79 100 84 95 96 89 76 67 66 60 59 58 54 52 52 61 65 74 81 87 87 80
90 86 86 88 88 86 85 84 84 76 71 93 100 100 100 100 100 100 100 100 100 100 100 100 100 99 100 100 100 100 100 90 100 98 94 99 97 93 79 73 65 63 82 59 54 60 76 81 87 97 98 98 92 77
83 83 80 85 85 85 83 83 80 70 82 92 93 100 100 100 100 100 100 100 100 97 100 99 100 91 100 100 100 100 100 98 90 93 99 98 98 94 83 72 69 80 90 72 62 84 91 87 81 81 77 73 80 92
75 72 73 87 84 82 82 72 79 86 96 99 99 100 100 100 100 100 100 100 99 100 100 94 100 100 100 100 100 100 96 91 99 96 99 97 98 97 85 71 70 67 71 69 75 80 87 90 86 76 69 68 92 88
68 70 88 86 82 72 74 70 76 88 98 100 100 100 100 100 100 100 100 99 99 100 100 100 100 99 88 97 98 98 100 100 98 98 98 98 97 97 84 85 86 76 68 73 77 77 77 76 76 65 63 54 53 61
67 62 85 84 70 61 63 76 88 83 97 99 99 100 100 100 100 100 100 100 100 100 100 100 94 100 100 99 98 99 99 98 96 93 97 97 93 87 79 78 66 64 77 77 75 73 69 73 60 58 52 48 49 52
75 74 85 83 68 64 76 80 72 95 100 100 100 100 100 100 100 99 100 99 97 98 100 100 100 98 98 98 100 100 99 98 97 99 98 94 97 97 90 80 80 77 76 74 71 66 59 56 55 52 54 52 61 62
74 77 83 76 63 69 74 81 70 81 93 96 98 99 99 100 100 100 100 94 84 92 95 95 95 95 97 98 98 99 93 92 94 97 98 96 87 81 78 75 74 70 65 63 62 68 58 60 52 53 63 65 74 76
62 64 72 61 65 64 75 74 78 79 81 86 81 78 91 91 97 100 100 85 89 93 94 97 97 98 99 98 98 98 94 88 83 85 89 96 92 84 80 78 77 75 77 77 75 72 73 67 61 61 79 85 85 81
59 74 82 85 85 87 78 75 71 70 77 86 77 74 92 99 99 98 86 87 86 92 92 93 93 89 87 93 95 98 99 98 97 93 90 87 87 86 86 90 90 91 82 80 74 79 73 65 72 74 80 86 79 78
69 70 93 98 96 97 96 72 91 68 81 80 75 75 86 85 80 72 88 80 84 92 91 85 88 90 88 89 85 86 92 92 92 93 93 92 92 92 90 90 92 92 80 65 61 69 77 74 77 81 80 80 79 84
69 96 97 95 95 95 98 84 69 72 80 83 72 81 83 82 75 78 86 86 88 78 82 82 91 90 76 76 82 86 91 89 88 91 93 89 89 90 88 87 82 76 68 66 72 77 76 82 79 76 83 83 83 85
89 93 95 84 92 83 80 77 79 70 83 81 81 84 87 79 81 80 86 90 86 91 86 89 78 83 86 86 84 85 90 88 88 87 90 90 88 86 82 71 70 70 72 82 83 82 83 83 83 81 78 82 78 80
89 89 81 80 81 80 76 76 78 83 79 78 83 79 86 83 79 89 83 90 90 88 92 92 91 80 78 78 79 81 85 88 85 87 89 87 88 92 84 78 84 84 74 82 83 82 79 79 81 80 81 77 79 83
86 85 77 72 76 76 83 80 77 81 84 87 85 82 83 84 89 88 79 80 82 87 83 84 79 78 80 80 78 82 77 74 78 72 66 65 68 70 80 85 86 82 71 77 80 82 83 83 84 83 84 83 84 88
82 80 85 89 82 76 76 80 84 90 90 78 86 88 88 91 89 87 86 82 85 73 74 76 74 76 80 83 83 83 84 78 80 74 72 71 69 74 75 77 79 76 78 81 78 81 80 83 84 86 88 89 89 86
86 87 85 93 76 79 90 91 91 89 78 84 92 88 87 79 88 86 83 88 83 83 85 86 90 87 81 76 80 78 81 83 77 77 74 80 83 89 76 76 76 77 80 79 81 81 78 84 83 86 82 83 84 86
82 84 76 76 78 87 94 92 93 92 78 82 74 72 76 85 88 82 83 84 87 91 90 89 88 83 87 87 82 86 83 82 85 86 86 87 85 82 81 83 83 82 84 83 84 79 80 81 80 83 87 88 84 87
77 82 74 74 89 93 91 90 91 89 86 86 88 86 85 87 88 81 82 90 81 85 89 87 83 82 82 84 85 85 90 85 82 77 79 81 82 83 86 86 82 84 83 83 84 83 85 84 82 84 84 84 84 85
78 81 79 75 89 88 83 86 85 92 92 90 88 85 89 91 87 86 86 90 86 86 85 83 85 88 83 82 82 84 88 80 79 82 79 84 85 87 86 85 87 86 86 85 82 85 86 85 85 84 85 84 87 86
74 76 75 73 74 80 85 80 70 84 84 85 85 83 86 86 89 88 81 82 87 89 88 87 87 85 79 77 75 78 76 74 79 83 88 88 87 87 86 85 87 88 87 88 85 86 85 83 85 84 83 89 87 87

GFSWCAN_sfc_rhum_039.txt.gz
RH
77 77 78 80 81 85 87 85 86 88 90 89 84 82 86 85 82 89 91 90 98 98 86 62 42 50 63 75 86 82 88 81 89 91 92 91 93 73 71 66 76 77 94 96 97 98 82 34 36 50 64 52 48 48
75 78 79 80 84 84 84 82 85 86 85 86 88 91 90 88 88 86 94 85 90 99 96 84 70 74 58 61 80 88 76 72 81 88 97 99 98 98 79 82 57 80 80 86 76 83 61 41 48 56 56 60 60 63
77 78 81 84 85 85 86 87 87 89 90 91 90 89 90 90 89 88 90 95 97 98 93 91 85 69 57 55 55 81 91 64 64 83 96 99 98 92 88 87 70 55 46 68 57 50 43 62 58 57 60 65 57 55
82 83 83 83 85 87 87 89 90 91 91 91 92 91 90 89 87 91 95 96 99 98 100 93 64 76 67 62 63 58 64 75 81 92 99 99 99 78 93 72 76 64 50 51 54 66 68 64 65 62 59 58 58 56
86 87 87 87 87 88 90 91 91 90 92 92 92 92 91 92 93 95 98 98 98 98 98 99 73 62 67 63 64 69 72 79 93 87 100 98 91 89 90 84 86 56 58 74 88 74 72 74 66 62 64 63 62 68
89 90 88 87 87 90 90 90 91 91 90 89 90 90 91 97 96 98 96 88 94 96 100 100 83 77 64 71 68 66 77 76 92 97 99 90 76 88 98 95 66 65 65 68 74 64 73 73 72 69 74 73 72 75
87 88 86 88 88 89 90 90 89 91 92 90 90 94 98 97 96 93 97 98 98 98 99 100 98 82 76 79 92 85 83 92 92 95 98 90 86 96 100 94 69 64 61 63 62 69 81 75 87 78 77 75 74 75
92 93 92 93 93 92 93 96 94 94 94 94 94 98 98 98 98 95 89 94 96 92 90 99 100 96 80 96 99 95 96 95 95 96 96 98 96 98 94 77 65 62 63 67 69 68 75 76 74 75 69 73 82 86
98 98 98 98 96 96 94 96 96 97 97 97 97 98 98 99 100 93 90 90 95 89 99 100 100 100 81 95 97 95 91 100 92 100 96 91 97 97 83 77 76 70 74 75 70 72 75 78 72 72 78 84 87 90
96 98 98 99 98 98 98 98 98 97 96 96 94 99 100 99 90 85 85 88 92 95 95 100 97 100 87 100 100 100 100 98 97 98 92 100 99 81 83 80 78 75 69 76 88 94 88 82 74 75 84 80 71 74
92 93 95 98 98 98 98 97 96 95 96 95 99 100 99 93 92 91 98 94 96 100 94 97 96 99 92 99 99 100 99 98 100 98 96 99 99 89 78 77 75 70 74 78 80 76 71 70 80 80 77 82 87 93
89 92 92 94 95 96 96 95 95 94 96 92 92 95 95 93 96 94 100 99 99 100 98 100 98 95 98 93 98 98 95 99 98 92 98 94 97 90 82 80 76 73 73 72 67 70 70 65 66 72 79 89 94 97
86 90 91 93 93 92 88 92 96 87 92 85 89 95 92 100 99 92 99 98 99 100 100 100 100 100 96 94 100 98 91 97 95 95 89 98 94 88 82 76 77 71 70 69 66 71 74 80 83 86 92 92 92 88
82 81 85 90 91 89 89 89 90 82 85 97 100 98 100 99 99 99 99 100 100 100 100 100 100 100 100 99 100 91 100 93 98 99 93 99 97 94 79 73 69 71 77 75 77 84 91 92 97 95 91 89 90 89
78 79 77 85 86 86 85 85 80 83 94 98 95 99 99 100 100 100 100 100 99 100 100 100 100 95 100 98 100 99 99 94 94 97 100 99 98 85 81 76 78 79 82 81 80 88 92 92 88 88 88 85 87 91
77 74 80 88 79 82 82 82 87 91 98 98 98 99 99 100 99 99 100 100 99 100 100 99 100 97 99 99 97 98 94 98 100 100 99 98 94 93 83 80 75 78 81 86 88 89 91 89 86 81 84 85 91 87
74 87 88 87 81 72 78 86 90 96 100 99 99 100 100 99 100 100 100 100 99 100 100 100 96 100 98 97 99 99 100 100 99 99 98 98 98 97 98 95 89 84 86 89 91 89 86 82 79 78 70 72 79 72
87 81 85 83 76 74 82 88 93 95 98 99 99 99 100 100 100 100 100 100 100 100 100 100 100 99 99 99 99 100 99 99 99 99 98 98 97 96 96 95 80 82 87 86 84 84 80 83 74 72 66 66 73 73
84 82 81 79 73 86 90 90 88 98 99 100 100 100 100 100 100 99 100 98 100 98 99 99 96 97 98 98 99 100 100 100 99 99 99 98 98 98 97 93 90 88 83 82 80 74 70 69 73 72 74 80 88 88
73 77 82 71 73 90 86 92 87 95 99 100 100 100 100 100 100 100 95 87 90 97 95 96 97 98 98 98 99 100 100 99 98 98 99 99 98 97 98 98 92 77 74 75 78 77 71 72 71 76 85 90 95 96
79 79 84 85 88 84 93 96 95 97 98 99 98 97 100 98 93 93 89 82 86 98 96 98 98 97 97 97 98 98 98 99 99 99 97 98 99 97 93 95 84 84 86 88 90 84 85 87 82 85 98 98 96 96
81 81 98 93 95 92 94 90 94 93 95 99 95 95 98 98 98 96 87 89 96 98 97 97 97 96 94 94 96 97 98 96 97 98 97 94 96 97 97 97 90 95 94 96 94 95 92 82 89 94 97 96 96 96
82 91 97 91 88 86 95 91 89 86 91 94 92 89 94 96 96 94 96 90 97 95 96 97 93 90 91 89 82 90 94 93 95 95 95 94 94 94 94 94 95 95 95 94 85 88 93 88 92 95 97 96 96 98
84 95 98 98 90 92 93 86 88 80 82 91 90 93 92 96 94 92 96 96 94 84 87 92 93 84 79 80 87 89 93 92 91 93 95 93 93 94 93 93 93 94 95 89 88 94 93 97 93 96 96 96 98 97
83 93 90 90 90 87 86 85 90 89 92 92 91 95 96 95 94 97 96 96 94 95 94 93 85 87 92 94 92 92 92 91 92 92 93 95 95 94 93 92 92 87 86 93 94 95 97 96 97 96 95 98 95 96
87 88 85 89 87 86 90 85 83 94 92 92 90 80 94 93 93 98 92 97 98 97 97 96 96 91 90 89 89 90 93 94 88 91 92 91 92 95 95 95 95 93 90 94 97 98 97 97 99 97 100 94 97 99
85 91 92 87 92 91 93 92 92 93 97 99 97 94 97 98 99 96 95 95 96 98 93 94 92 92 93 94 93 91 88 86 86 81 80 80 82 84 90 96 98 96 96 96 98 99 100 100 100 100 100 98 99 99
95 94 97 94 91 87 94 95 96 98 98 90 95 100 98 98 98 97 96 97 97 87 90 90 88 90 92 92 89 91 90 94 94 92 92 92 93 94 95 97 95 94 97 97 96 98 100 100 100 100 100 100 100 100
95 94 93 90 84 89 98 98 98 95 93 96 97 98 98 93 96 96 96 96 92 90 93 95 97 98 95 91 91 90 91 92 90 93 98 100 99 98 96 97 97 98 98 98 97 93 92 96 98 99 100 100 97 99
85 90 78 75 84 97 98 98 98 97 94 94 89 83 89 97 96 92 94 93 96 98 97 94 92 92 96 95 98 99 98 98 96 99 100 100 100 97 97 97 99 99 99 100 100 98 99 99 100 99 99 99 99 99
88 90 87 92 99 98 98 98 97 96 95 96 93 95 95 98 99 94 93 97 93 93 94 96 96 96 97 98 99 100 100 98 98 96 97 100 99 100 96 97 96 97 100 98 100 100 100 100 100 100 100 100 100 100
89 90 95 96 99 89 94 96 96 98 98 98 99 98 99 98 100 99 95 94 94 95 98 98 99 99 98 98 99 99 98 99 99 98 98 100 100 100 100 100 100 97 94 98 95 98 99 100 100 99 100 100 100 100
90 89 90 91 96 97 96 96 97 96 96 97 98 98 98 97 99 99 98 97 98 100 99 98 98 98 96 94 93 96 95 97 97 98 93 99 100 100 100 100 100 100 100 100 100 100 100 99 97 98 100 100 100 100

GFSWCAN_sfc_rhum_042.txt.gz
RH
78 77 79 79 79 80 80 80 79 80 80 80 80 82 82 80 80 89 92 95 95 96 91 90 55 57 50 63 84 84 85 83 95 88 90 92 85 77 79 67 69 68 88 93 96 91 66 48 40 45 55 60 58 59
79 79 80 81 82 81 81 83 84 85 82 83 84 84 82 83 80 84 95 93 93 99 97 88 84 84 62 52 86 89 72 75 84 88 97 99 92 95 81 90 68 71 66 78 74 76 59 59 54 60 61 66 73 76
82 82 84 84 87 86 86 90 92 90 87 84 85 84 83 83 89 83 96 97 93 95 91 97 94 77 68 54 62 88 91 76 76 77 96 98 81 91 88 87 75 63 67 76 67 72 73 75 72 70 68 68 66 67
82 84 85 85 84 82 88 87 87 90 89 90 88 87 88 88 89 83 96 96 90 95 100 94 83 80 72 64 60 62 72 79 85 91 99 100 92 78 90 71 72 67 56 63 90 82 72 73 71 66 65 67 69 67
86 86 86 86 87 87 87 88 88 87 88 90 91 90 88 91 90 89 95 94 96 96 100 97 90 80 77 74 64 68 60 83 93 88 98 92 92 90 92 84 84 61 59 74 86 72 78 82 75 67 70 72 71 74
88 88 88 89 90 91 92 94 93 91 93 93 92 91 91 91 89 94 97 91 92 98 100 100 92 92 83 84 80 79 79 93 95 93 99 91 84 83 88 92 73 76 75 72 81 74 78 82 77 72 78 79 77 80
89 91 92 92 92 92 94 94 93 93 94 92 93 92 90 90 94 94 94 95 84 96 100 100 97 94 91 94 96 96 94 98 94 97 98 90 92 93 98 92 78 75 74 75 73 75 86 83 93 80 80 81 81 84
90 90 89 89 89 90 91 91 92 91 91 92 91 91 94 94 94 95 97 99 97 95 96 100 99 98 90 99 99 98 99 97 98 97 97 97 96 97 92 85 76 74 76 77 79 78 82 80 76 80 78 80 86 90
89 87 89 90 91 91 91 90 90 91 92 91 91 95 98 99 99 96 96 98 99 98 100 100 100 100 92 98 99 97 96 100 95 100 100 93 99 96 89 83 80 74 80 89 83 81 79 81 81 84 82 82 87 90
93 92 92 92 92 92 91 89 92 92 92 93 97 99 100 100 96 94 96 99 98 98 94 100 98 100 92 100 100 100 100 100 99 98 94 99 100 90 91 89 83 79 79 80 93 97 90 88 86 80 82 84 82 83
98 98 97 96 96 95 94 94 94 95 97 98 99 100 100 96 98 99 100 99 97 99 97 99 98 99 96 98 100 99 100 100 99 97 96 100 99 91 86 85 81 78 78 84 82 78 75 77 85 86 85 86 88 93
97 98 97 96 96 94 94 95 96 96 98 97 97 99 98 97 96 93 100 98 98 99 99 100 100 97 99 91 97 98 97 98 97 92 98 98 96 94 88 86 83 78 77 79 74 75 78 75 75 80 83 92 96 92
93 95 97 98 97 97 97 96 95 96 89 94 94 97 91 98 97 92 100 97 99 100 100 100 100 100 96 92 100 97 95 94 95 94 94 97 96 91 88 85 83 78 77 76 74 72 74 79 80 84 91 90 92 91
88 90 93 95 96 96 95 93 92 87 87 97 94 98 99 98 99 100 99 100 100 100 100 100 100 100 100 100 100 93 99 97 99 97 93 99 96 95 87 80 77 80 84 81 82 85 90 92 95 92 87 86 86 83
80 83 84 90 90 90 86 83 84 85 95 98 96 99 99 100 99 100 100 100 99 99 100 100 100 97 100 99 99 99 98 93 91 93 99 99 97 87 84 79 81 87 89 88 86 92 95 91 88 89 86 80 84 90
82 73 80 90 84 86 86 85 88 92 97 95 98 98 97 100 99 99 99 100 99 100 100 99 99 96 99 97 95 97 92 99 99 100 100 95 90 85 81 81 82 86 88 90 92 90 89 88 85 82 79 78 90 90
79 85 82 86 82 80 83 87 94 98 99 98 99 100 100 99 99 99 99 99 99 100 100 99 96 100 98 98 99 98 99 99 99 100 99 97 93 95 96 95 98 98 94 92 93 88 85 77 82 79 76 72 68 77
92 90 84 83 76 80 87 86 93 93 99 99 99 99 99 99 99 99 99 98 99 99 99 99 99 97 97 97 98 99 99 100 100 99 98 98 97 98 96 97 98 96 98 92 87 84 75 76 69 72 76 74 74 78
82 85 80 81 79 86 90 91 88 98 99 100 100 99 100 99 98 98 98 98 99 98 98 97 95 96 97 97 98 99 99 100 99 99 99 98 98 98 98 98 98 98 95 88 83 80 76 70 73 75 79 78 86 92
79 81 85 84 77 89 87 94 90 97 99 99 99 98 99 99 93 87 86 84 87 95 94 96 96 97 97 97 97 99 99 100 98 98 98 99 98 98 98 98 96 96 90 80 74 77 77 79 78 84 86 85 92 99
83 88 87 87 90 88 95 97 99 99 100 99 100 99 99 86 81 87 88 81 82 97 95 97 97 96 97 96 96 97 96 99 99 99 98 98 98 96 96 97 95 93 89 88 89 92 94 94 91 87 93 95 97 99
92 86 96 87 90 86 88 87 95 97 96 99 95 96 98 98 99 92 81 86 94 95 96 96 95 94 91 93 95 95 97 95 93 90 93 92 93 93 93 94 92 95 94 96 94 95 94 84 88 92 94 96 96 97
83 86 92 86 86 86 92 91 87 85 92 93 93 92 96 98 98 90 96 86 93 94 95 94 86 87 89 90 85 90 93 92 93 94 94 93 93 94 94 94 94 95 95 94 93 94 95 88 92 94 92 94 96 97
80 91 98 99 89 98 91 90 88 77 93 90 94 96 93 98 94 93 97 96 92 87 88 87 84 82 77 79 87 88 91 88 91 92 94 92 92 93 92 93 93 94 94 93 94 94 93 95 92 90 94 98 99 100
82 91 85 88 90 86 91 91 92 92 99 95 95 98 95 95 96 98 97 96 94 95 94 91 84 87 91 92 91 91 92 86 89 91 93 93 94 92 91 90 91 91 88 93 96 96 96 95 96 96 96 100 99 100
86 96 87 79 91 91 96 91 90 98 98 100 94 93 96 94 95 99 91 97 98 97 98 97 96 91 91 89 91 93 94 91 84 91 92 89 91 95 96 95 92 93 92 94 95 98 99 100 100 100 100 100 99 100
93 98 94 95 98 93 93 95 94 96 100 100 100 98 95 99 100 96 95 97 96 98 95 95 90 91 93 93 92 95 95 91 88 88 86 85 85 84 91 96 96 95 98 97 99 100 100 100 100 100 100 100 100 100
100 98 98 95 93 96 100 100 100 99 100 94 97 100 100 99 98 96 95 96 96 93 90 90 89 88 88 89 90 91 95 97 94 92 89 91 91 92 96 98 98 99 100 100 100 99 100 100 100 100 100 100 100 100
96 96 90 89 89 97 98 99 99 99 95 96 98 99 99 91 96 96 95 96 96 93 94 95 96 96 94 93 93 93 90 92 93 100 100 100 100 98 96 95 97 99 100 100 100 98 98 98 99 100 100 100 100 100
86 94 87 94 98 99 100 99 100 98 97 97 90 86 89 97 96 95 95 94 94 97 99 97 96 94 100 100 100 99 100 98 93 96 100 100 100 99 100 100 100 99 97 100 100 98 100 100 100 100 99 100 100 100
92 94 94 99 100 98 98 99 92 93 97 98 98 98 99 99 98 96 95 98 95 97 94 98 99 100 100 100 100 100 100 99 100 100 100 100 100 100 100 100 100 100 100 100 100 100 100 100 100 100 100 100 100 100
96 98 97 99 99 96 98 98 97 99 99 99 100 100 100 99 100 99 98 97 96 99 100 100 100 100 100 100 100 100 98 100 100 100 100 100 100 100 100 100 100 100 100 100 100 100 100 100 100 100 98 99 100 100
95 95 97 96 98 98 98 98 98 97 97 100 99 99 100 97 99 98 98 99 99 100 100 100 100 100 98 100 100 100 100 100 100 100 100 100 100 100 100 100 100 100 100 100 100 100 100 100 100 100 100 99 99 100

GFSWCAN_sfc_rhum_045.txt.gz
RH
91 91 90 90 89 88 86 81 79 78 78 77 77 82 87 84 86 93 95 95 95 95 91 93 90 75 69 59 73 83 82 90 94 88 91 90 88 78 76 66 67 74 89 91 93 81 68 48 45 42 51 67 60 62
89 91 91 90 89 87 83 79 77 76 77 79 82 81 82 84 87 90 96 92 94 97 96 88 85 76 82 71 59 92 73 82 82 89 97 98 94 95 83 87 70 62 69 80 71 72 57 67 53 64 62 61 69 76
82 81 82 81 82 80 79 78 78 79 81 83 83 82 82 81 82 86 95 98 96 98 92 90 85 78 73 76 74 76 92 80 86 87 96 97 84 90 89 88 81 68 68 75 72 74 86 84 76 75 73 77 79 78
84 84 84 83 82 82 81 81 81 82 83 82 82 83 82 83 82 83 92 96 93 94 100 88 84 93 83 84 80 67 69 89 90 95 99 100 90 78 90 72 76 71 67 83 91 87 81 77 76 75 74 73 73 72
86 86 86 85 86 85 85 85 85 84 83 84 85 85 83 83 83 88 91 89 91 92 99 96 81 86 89 94 82 66 82 87 93 95 98 90 93 92 94 86 86 66 71 82 87 76 75 82 77 74 74 78 76 78
87 86 81 82 85 85 87 90 92 95 88 86 86 85 84 83 80 90 96 86 90 95 94 100 89 93 94 93 82 69 68 92 90 85 99 94 86 85 92 91 66 74 72 62 65 68 83 82 79 76 80 80 78 78
89 89 88 88 88 88 88 89 91 91 90 89 86 86 83 89 94 92 94 92 79 95 99 100 98 89 95 97 98 96 95 98 94 97 97 92 95 79 95 90 74 84 82 82 78 77 88 85 93 83 83 83 82 84
91 92 91 92 94 95 94 88 89 90 93 91 92 90 91 89 89 93 94 93 82 93 96 100 99 99 95 99 100 99 99 96 98 98 98 96 98 97 88 86 88 84 82 81 86 82 82 85 85 87 84 84 90 93
92 91 92 94 94 93 93 92 89 88 90 89 91 92 94 93 96 95 99 97 98 92 99 100 100 100 99 99 100 98 97 100 97 100 100 96 100 93 88 90 90 84 86 95 87 84 84 88 89 88 84 85 89 91
91 91 90 89 90 90 91 91 89 90 91 94 91 96 100 94 90 86 92 96 99 100 99 100 98 100 97 100 100 99 100 100 100 99 96 99 99 92 93 88 88 88 84 83 94 97 95 95 92 87 84 77 78 80
88 88 89 90 90 91 90 90 91 93 93 97 99 100 99 97 95 96 100 100 99 100 98 98 98 99 97 99 100 99 100 99 100 98 97 100 99 94 92 91 86 83 82 89 85 82 83 82 84 85 84 84 85 86
89 90 90 90 91 91 91 92 91 92 93 92 97 97 97 95 98 99 100 100 100 99 98 100 100 97 100 96 98 99 98 98 98 94 99 99 95 94 94 93 90 88 84 82 78 81 80 76 78 82 84 87 88 90
94 92 90 91 92 91 90 92 92 93 98 98 95 96 97 100 100 99 99 100 100 100 100 100 100 100 96 95 98 94 95 98 96 97 96 96 98 96 92 88 88 83 81 81 80 78 79 82 82 86 93 92 90 88
97 96 94 94 95 95 94 94 95 99 98 97 100 99 99 99 100 99 99 99 99 100 100 100 100 100 100 99 99 91 100 96 98 97 97 99 98 98 91 87 85 88 89 86 87 87 88 88 88 89 92 88 82 72
92 92 93 96 97 97 96 96 95 95 96 99 98 99 99 99 100 99 100 100 99 99 100 100 100 98 99 98 99 98 95 90 96 95 98 100 98 92 90 88 90 93 93 92 89 93 95 86 82 84 81 76 76 86
88 80 89 93 92 92 88 84 88 91 95 93 98 98 98 98 98 98 98 99 99 100 100 98 99 96 99 98 95 98 92 99 99 99 100 94 92 88 89 89 88 89 92 95 96 95 96 95 86 81 82 82 87 86
84 86 87 88 83 86 84 87 89 94 98 95 99 99 99 99 100 99 99 99 99 100 100 98 98 99 98 98 98 99 99 99 99 99 99 90 90 94 97 97 98 98 97 96 96 96 93 83 77 72 76 77 69 76
94 88 87 85 75 81 86 87 92 92 98 99 99 99 98 99 99 99 99 98 99 100 99 99 94 96 97 96 97 97 99 99 99 99 99 98 98 98 97 97 97 97 97 98 96 87 80 78 72 72 70 74 78 76
83 85 82 83 78 86 90 92 88 98 99 100 99 99 98 98 97 96 97 98 99 94 95 96 94 95 96 96 97 96 98 99 99 99 99 99 98 98 98 98 98 98 98 96 90 80 74 72 78 79 78 81 92 92
81 81 83 82 78 89 91 96 90 96 99 99 98 91 95 96 89 87 82 79 80 86 91 94 96 96 97 96 96 97 97 99 99 98 98 98 99 98 99 98 96 95 93 93 93 94 89 85 81 80 84 88 94 97
81 88 78 83 88 87 96 98 97 99 99 99 100 99 89 78 79 82 84 78 78 96 95 96 97 96 96 96 95 96 94 95 95 97 97 95 96 95 95 95 94 93 92 93 94 94 94 94 93 91 94 97 97 97
92 78 92 81 85 83 87 87 98 98 96 99 96 96 98 99 98 97 78 86 93 95 95 94 94 93 91 92 94 95 96 94 94 92 93 92 92 92 93 94 93 95 94 95 94 95 95 93 94 95 96 97 96 92
79 85 91 84 84 85 91 91 85 86 90 95 93 93 98 99 100 88 95 82 92 93 94 93 92 91 90 92 84 88 92 91 92 93 93 93 93 94 93 94 94 95 94 94 93 94 95 94 95 96 95 94 94 97
73 87 92 94 89 99 90 91 90 92 93 92 96 98 96 100 93 93 97 96 92 86 86 84 82 79 74 77 86 88 89 84 87 90 93 91 91 93 91 92 92 93 93 92 93 94 94 96 93 92 96 97 98 98
81 90 85 89 91 87 92 91 94 94 99 98 95 99 97 93 98 98 97 96 94 95 94 90 84 86 90 92 90 90 89 84 89 92 93 91 92 90 90 88 89 86 84 91 95 96 97 96 96 96 96 100 98 100
98 97 91 96 93 91 97 99 100 100 99 99 98 97 94 94 95 99 93 98 98 97 97 98 97 92 91 91 92 94 96 86 80 90 90 82 85 92 92 93 95 97 93 96 97 100 100 100 100 100 100 100 100 100
99 98 95 90 98 92 97 98 94 96 99 97 99 98 94 100 100 96 95 96 95 96 94 94 89 92 92 91 90 94 94 92 92 92 89 91 94 95 97 100 100 98 98 99 100 100 100 100 100 100 100 100 100 100
99 96 94 92 96 96 100 100 100 100 100 96 90 100 100 100 99 97 96 96 97 91 89 87 85 86 89 89 92 96 97 97 94 95 96 89 92 94 94 96 96 100 98 99 100 100 100 100 100 100 100 100 100 100
96 98 88 94 96 98 98 99 99 98 93 98 100 99 100 91 97 97 95 95 95 93 95 98 98 99 96 95 95 95 91 91 87 93 100 100 100 99 99 100 100 100 100 100 100 98 99 100 100 100 100 100 100 100
93 95 95 100 98 100 100 99 100 100 94 98 91 85 89 97 96 96 94 94 94 98 100 100 100 99 100 100 100 99 100 100 98 98 100 100 100 100 100 100 100 100 100 100 100 100 100 100 100 100 100 100 100 100
96 96 99 100 99 99 99 100 92 94 98 98 100 99 98 99 98 97 97 98 98 98 97 100 100 100 100 100 100 100 100 99 100 100 100 100 100 100 100 100 100 100 100 100 100 100 100 100 100 100 100 99 99 100
98 100 98 100 98 98 97 99 100 100 100 100 100 100 100 99 100 99 99 98 99 100 100 100 100 100 100 100 100 100 100 100 100 100 100 100 100 100 100 100 100 100 100 100 100 100 100 100 100 100 100 100 99 99
97 99 98 99 98 98 98 97 97 98 98 99 100 99 100 97 100 98 99 100 98 99 100 100 100 100 99 98 100 100 100 100 100 100 100 100 100 100 100 100 100 100 100 100 100 100 100 100 100 100 99 98 98 99

GFSWCAN_sfc_rhum_048.txt.gz
RH
83 85 84 82 82 86 92 90 91 89 88 83 81 81 76 80 80 86 90 92 99 93 93 93 91 77 66 62 84 80 76 82 95 89 92 90 92 83 82 69 76 77 87 91 90 86 77 47 46 46 51 70 62 63
92 93 94 94 93 90 90 90 89 88 85 84 82 80 80 81 78 80 93 86 91 98 96 88 88 84 82 73 66 83 76 84 74 91 96 96 89 96 80 82 68 71 70 78 72 74 60 57 51 54 58 63 65 70
92 92 91 91 91 90 90 88 85 84 83 82 81 81 82 82 81 82 93 93 96 97 92 92 85 87 80 78 79 82 92 82 86 85 93 95 89 90 89 83 80 70 66 73 69 66 74 83 78 77 78 73 79 77
85 89 90 90 90 90 90 88 84 81 80 80 81 82 83 82 83 82 94 90 96 96 98 91 80 88 84 80 84 82 73 93 93 96 99 99 94 85 91 73 75 72 68 80 79 87 86 79 78 78 82 81 76 77
85 84 84 84 85 85 82 81 80 81 83 84 83 86 92 89 87 89 93 96 95 96 98 96 80 78 84 97 95 92 84 91 96 96 98 92 93 92 95 88 90 74 72 78 70 68 63 68 79 80 81 82 78 80
86 87 85 84 83 83 83 84 84 84 85 85 85 84 84 85 84 93 98 94 93 97 95 98 90 91 89 97 99 98 86 93 94 91 97 95 91 85 96 91 64 65 67 65 55 71 86 83 82 79 84 83 80 80
83 85 86 89 90 88 86 86 85 86 85 85 85 84 85 84 93 94 96 92 82 95 98 99 99 84 94 97 99 98 95 96 94 96 98 95 96 90 96 85 59 81 78 79 77 77 87 81 89 85 84 85 83 85
90 90 91 87 86 91 93 90 86 86 87 87 86 86 85 84 84 92 94 96 83 94 93 100 98 98 95 99 100 99 99 96 98 99 98 97 96 97 88 75 89 86 81 81 86 82 79 86 86 90 88 87 93 96
92 94 95 94 90 91 92 93 90 87 86 87 86 84 91 93 97 95 95 83 95 89 99 100 100 99 95 99 99 99 98 100 98 100 100 96 100 93 82 87 92 87 83 92 90 88 86 90 94 92 89 90 94 96
94 94 95 95 92 91 89 88 88 90 92 85 90 92 100 96 93 95 98 97 93 92 97 96 97 100 97 100 100 100 100 100 100 99 97 100 99 91 91 91 92 92 85 85 98 98 97 96 94 92 90 87 86 84
92 93 92 92 92 92 90 92 91 89 85 93 98 99 96 91 93 96 100 100 99 100 99 98 99 99 98 100 100 100 100 100 99 99 98 100 98 93 95 93 88 82 80 85 82 83 83 86 89 89 87 84 86 86
89 89 89 90 91 91 92 92 90 92 95 94 96 98 96 96 99 100 99 100 99 98 99 100 99 98 100 99 99 100 100 99 99 96 99 100 98 99 95 94 90 87 85 83 80 84 84 81 80 81 84 87 88 88
88 88 89 89 90 90 89 91 92 97 93 98 96 97 95 100 99 99 98 99 100 100 100 100 100 100 99 98 100 100 99 99 99 100 99 99 98 99 96 93 92 86 84 84 81 79 80 83 82 83 88 89 84 82
91 92 92 93 93 92 91 92 94 97 96 98 99 98 99 99 99 99 100 100 100 100 100 100 100 100 100 99 99 99 100 98 98 99 99 98 99 99 93 89 88 90 91 88 89 88 90 90 90 88 89 85 87 82
92 92 94 95 94 93 94 96 97 98 98 99 99 98 99 100 100 100 100 100 99 99 100 100 99 98 99 98 99 96 92 98 98 99 99 99 99 96 95 94 94 96 95 93 88 91 94 92 90 93 87 76 78 88
88 89 98 97 98 97 97 94 97 97 94 95 98 98 99 97 98 98 98 99 99 99 99 97 97 98 99 99 97 99 93 98 99 99 99 99 98 97 96 95 94 92 93 93 91 91 94 96 95 87 78 81 90 88
87 98 97 97 95 93 92 92 90 94 99 94 98 97 99 99 99 99 99 98 98 100 99 98 96 98 97 98 96 97 98 98 98 99 99 99 98 98 98 97 97 97 97 97 97 96 94 86 85 76 73 70 66 78
98 97 94 93 83 92 96 95 93 92 98 98 96 98 97 98 96 96 97 98 99 99 97 98 92 94 97 97 97 96 96 96 99 99 99 99 98 99 98 98 98 97 97 97 95 95 94 95 92 87 70 71 78 78
94 93 91 91 92 90 90 93 91 96 98 98 96 96 95 88 83 86 92 95 95 90 94 94 92 94 96 96 96 96 96 97 99 98 98 99 99 99 99 98 98 97 96 96 95 94 94 93 88 80 80 80 90 89
77 79 80 79 76 91 92 96 90 94 98 98 97 89 83 84 82 81 78 77 77 84 90 93 96 96 96 96 96 96 96 97 98 96 95 95 96 95 96 96 95 95 93 93 93 94 92 91 90 90 90 92 94 95
77 81 74 79 88 86 94 96 98 99 99 96 99 97 92 78 78 81 80 70 78 94 94 95 96 95 96 96 95 95 94 93 93 94 95 93 94 93 93 94 93 92 92 93 93 94 93 94 94 93 96 96 96 96
90 74 90 79 83 82 87 88 98 99 96 99 96 95 99 98 99 97 81 85 92 94 94 94 94 93 90 92 94 94 96 94 93 91 92 90 92 92 92 94 91 94 94 95 93 95 95 93 94 94 96 97 95 95
76 82 89 83 83 83 91 90 86 89 93 96 92 92 98 99 99 82 97 79 90 92 93 92 93 92 91 92 86 88 92 89 91 92 92 92 92 93 92 93 93 94 94 94 92 93 94 94 94 96 96 96 95 96
69 86 92 91 85 95 90 92 90 92 94 95 96 99 96 100 91 93 97 96 91 84 85 85 83 79 75 76 85 87 87 78 84 88 90 86 89 92 88 88 87 89 91 90 92 94 94 96 93 93 96 96 97 99
82 93 84 89 93 86 93 97 97 94 98 99 96 97 100 92 97 99 98 97 96 96 94 89 84 87 92 92 90 90 86 81 87 91 90 89 91 88 88 88 90 88 84 90 94 96 98 97 97 98 98 100 100 100
96 98 98 100 97 93 99 100 100 100 99 97 98 96 95 94 95 100 93 98 98 97 98 98 96 90 91 90 93 94 98 88 80 92 95 91 91 95 97 98 98 97 96 100 100 100 100 100 100 100 100 100 100 100
100 99 93 85 96 94 100 99 93 96 98 99 99 98 94 100 100 97 95 96 94 95 88 91 87 91 91 91 90 95 93 90 92 93 90 90 91 93 97 100 100 98 96 98 100 100 100 100 100 100 100 100 100 100
94 91 92 95 98 96 100 100 100 100 100 96 87 100 100 100 99 97 96 95 94 86 88 90 89 90 93 94 94 97 98 98 96 94 94 88 94 96 99 100 100 100 100 100 100 100 100 100 100 100 100 100 100 100
99 99 92 100 97 98 98 100 100 96 91 97 100 100 100 92 98 97 95 95 95 93 96 97 98 100 98 96 98 99 96 96 89 98 100 100 100 99 100 100 100 100 100 100 100 100 100 100 100 100 100 100 100 99
96 97 99 100 97 99 100 99 100 99 94 98 91 85 90 97 97 96 96 95 96 100 100 100 100 100 100 100 100 100 100 100 100 99 100 100 100 100 100 100 100 100 100 100 100 100 100 100 100 99 98 98 99 100
97 98 99 99 99 100 96 100 100 98 99 99 100 100 99 100 99 98 99 100 100 100 100 100 100 100 100 100 100 100 100 100 100 100 100 100 100 100 100 100 100 100 100 100 100 100 100 100 100 100 100 100 99 100
99 100 99 100 99 99 99 98 100 100 100 100 100 100 99 99 100 99 99 99 100 100 100 100 100 100 100 100 100 100 100 100 100 100 100 100 100 100 100 100 100 100 100 100 100 100 100 100 100 100 100 100 100 100
98 100 99 100 98 100 98 97 98 100 100 100 100 100 100 97 99 98 100 99 96 97 99 100 100 100 100 100 100 100 100 100 100 100 100 100 100 100 100 100 100 100 100 100 100 100 100 100 100 100 100 100 100 100

GFSWCAN_sfc_rhum_051.txt.gz
RH
86 86 90 86 85 86 87 86 86 90 90 89 88 84 81 80 79 73 98 95 91 95 87 85 91 75 66 60 77 78 72 77 93 87 91 88 93 78 76 67 74 71 77 85 78 89 68 46 39 46 46 46 49 52
88 84 83 83 85 84 84 87 91 90 90 88 84 81 81 78 79 76 97 93 94 97 95 88 88 83 71 50 64 76 68 73 70 86 92 90 98 96 78 74 62 75 65 69 60 63 55 47 44 43 46 46 55 55
92 94 89 88 89 90 90 92 91 90 90 86 83 80 80 81 80 80 96 97 95 99 91 91 90 88 84 80 65 81 87 75 80 81 91 90 91 82 94 85 76 68 67 67 63 54 53 56 56 60 53 51 53 52
91 92 92 93 93 92 92 92 91 92 89 87 89 90 89 88 84 78 97 96 88 96 98 80 77 88 81 85 78 71 73 89 86 88 95 98 95 75 86 69 72 68 68 68 66 61 71 64 66 59 63 69 65 60
88 89 92 91 91 92 92 92 92 92 92 90 89 90 86 81 84 88 96 95 88 95 99 90 75 69 79 89 86 80 81 86 93 96 99 94 86 85 91 84 84 65 64 72 70 51 56 47 56 68 72 68 65 69
85 86 89 90 88 87 85 84 85 86 86 86 84 83 82 82 85 94 94 93 92 92 99 93 83 82 89 93 92 92 83 90 91 89 94 87 83 85 95 81 59 58 68 70 53 67 73 78 73 68 72 71 70 68
87 85 85 85 84 84 84 85 84 84 85 88 87 84 82 81 89 91 96 90 86 97 100 95 95 84 82 94 98 98 94 93 90 90 96 88 91 85 97 85 55 62 67 72 73 68 73 72 75 75 74 75 74 71
88 89 87 86 87 86 86 87 86 87 87 84 85 90 84 81 83 93 94 89 87 95 94 100 99 99 95 100 98 96 99 95 94 91 95 95 94 93 94 73 65 75 76 78 75 75 71 78 78 81 78 78 81 84
89 88 91 92 88 87 87 86 86 86 86 86 84 86 89 92 96 94 89 86 95 90 98 100 100 100 96 99 100 99 97 100 97 100 97 91 100 95 79 69 76 80 79 83 82 80 79 81 84 84 82 82 87 91
95 94 93 95 93 88 85 86 85 84 86 85 84 91 99 96 90 89 94 94 93 94 94 99 98 99 93 100 100 100 100 100 100 99 96 100 90 83 82 81 82 82 81 80 92 97 94 92 88 87 84 83 84 82
94 93 93 94 92 93 88 86 87 86 83 93 97 99 94 92 93 96 100 97 95 96 98 94 86 89 94 99 100 99 100 100 100 99 99 100 98 88 90 89 84 80 78 82 79 80 78 81 87 90 87 86 83 80
92 91 92 94 95 92 89 87 84 89 93 95 95 95 98 95 99 98 99 99 98 94 100 100 98 93 100 96 96 100 100 100 99 98 100 100 96 93 92 90 87 83 80 80 78 82 82 80 80 82 84 85 85 86
89 88 87 89 94 95 84 93 96 93 92 95 95 96 99 100 100 99 99 99 100 100 99 100 100 99 99 95 100 100 100 100 99 100 99 98 98 98 98 96 97 95 92 90 86 84 84 85 83 86 92 92 95 95
90 90 89 90 91 94 95 95 93 94 96 100 100 98 99 98 98 98 99 100 100 100 100 100 100 100 100 100 100 100 100 100 98 97 97 99 100 100 97 94 91 95 96 93 92 88 89 92 95 97 97 97 96 95
93 93 93 94 94 93 92 94 92 96 99 100 98 98 98 99 99 99 100 100 100 100 100 100 100 98 100 100 100 99 97 97 96 98 98 98 100 99 99 97 96 97 97 97 96 96 98 97 95 96 96 95 93 95
93 94 95 91 92 89 96 94 95 97 99 98 94 96 97 97 97 97 97 98 98 99 100 97 99 99 99 98 91 96 93 94 96 97 98 98 99 99 99 98 98 98 97 97 96 96 95 96 95 93 94 92 93 90
90 99 96 90 89 93 94 96 94 96 98 95 97 96 98 98 98 98 98 97 99 100 99 92 93 96 90 93 92 91 95 95 96 96 98 99 99 99 98 98 98 98 97 96 95 95 94 93 92 85 86 86 88 89
98 99 95 92 87 91 97 95 92 90 94 96 96 97 96 97 96 96 97 96 98 95 89 95 84 88 94 93 92 93 92 94 97 97 97 98 99 99 98 97 97 96 96 95 94 95 94 95 92 92 88 84 79 76
96 94 90 93 94 94 94 93 88 92 96 95 89 87 90 89 80 80 85 83 83 82 87 84 88 91 93 92 94 95 95 95 95 95 94 95 95 96 96 96 96 95 94 94 93 91 91 92 91 89 90 88 90 86
94 94 97 95 78 92 92 96 88 90 93 94 89 76 76 80 79 82 77 73 71 77 88 90 93 94 94 93 94 95 95 95 94 92 93 93 94 94 95 94 93 93 91 90 90 91 88 89 89 90 92 91 92 92
72 75 75 78 86 86 94 97 98 97 95 92 92 91 89 79 78 82 80 68 76 90 91 93 95 93 94 94 94 93 93 91 92 92 92 91 93 91 90 92 91 90 90 92 92 92 92 93 91 91 95 95 94 94
85 69 87 79 82 83 86 88 97 97 95 98 94 92 98 100 98 95 78 85 89 91 92 92 92 91 88 91 93 94 95 93 92 89 90 88 90 90 91 93 90 93 92 94 92 94 92 90 90 91 93 94 91 91
71 77 88 82 81 81 87 87 89 87 93 95 90 92 96 98 94 68 94 77 89 89 90 88 89 89 88 92 86 87 91 88 90 92 92 92 92 93 92 92 92 94 93 91 87 88 90 86 86 90 89 88 88 91
68 86 90 90 84 94 90 94 88 88 91 95 96 98 91 96 82 90 93 92 89 84 82 82 79 76 72 74 83 85 82 72 80 86 82 77 84 85 80 83 82 85 79 77 81 87 88 91 90 88 92 91 92 92
83 94 85 93 93 86 97 100 97 92 100 99 96 97 98 87 96 98 95 91 90 93 92 85 81 82 86 88 86 84 79 71 77 85 87 80 82 80 82 82 87 88 84 90 95 94 95 96 95 94 92 95 92 95
96 98 97 99 99 96 99 99 100 100 97 97 98 94 91 92 94 97 89 94 96 93 96 96 94 87 89 85 86 87 89 77 73 88 89 84 84 89 91 92 90 92 89 97 96 98 96 96 98 98 95 92 99 100
98 99 95 82 93 91 100 98 90 94 99 100 97 97 92 100 100 94 90 91 88 91 86 90 84 86 88 88 86 87 84 85 88 85 82 80 84 87 92 96 99 93 88 94 99 100 100 100 99 97 99 96 97 99
99 91 94 98 97 94 100 100 100 100 100 92 86 100 100 100 96 94 92 89 89 80 83 86 86 86 89 91 91 92 93 91 90 86 81 82 88 92 95 96 96 100 95 96 99 100 97 98 99 98 98 98 98 94
100 99 93 100 98 98 98 100 100 93 89 92 98 100 98 89 96 94 92 92 92 89 92 94 97 96 94 92 96 96 94 88 83 94 100 100 100 95 96 100 100 100 100 98 100 98 97 96 99 92 94 96 95 96
98 97 99 99 95 100 100 98 99 99 90 96 87 85 86 95 95 94 94 94 95 99 100 100 100 98 100 98 100 98 100 100 98 96 100 100 99 97 100 100 100 100 100 100 100 96 100 98 95 92 92 92 94 94
96 97 98 98 100 100 98 100 100 98 99 98 100 99 99 98 97 96 95 97 99 100 99 100 100 100 100 100 100 100 99 99 100 100 100 100 100 100 100 100 100 100 100 100 100 100 100 98 98 97 95 95 96 96
99 100 98 100 100 99 98 99 100 100 100 100 100 100 99 99 100 98 99 98 99 100 100 100 100 100 100 100 100 100 100 100 100 100 100 100 100 100 100 100 100 100 100 100 100 100 100 100 98 98 97 97 96 96
98 100 100 100 98 100 98 96 98 99 100 100 100 100 100 96 97 96 99 99 94 94 97 99 100 100 100 100 100 100 99 100 100 100 100 100 100 100 100 100 100 100 97 97 98 99 97 96 96 96 96 98 97 96

GFSWCAN_sfc_rhum_054.txt.gz
RH
87 85 88 87 85 83 90 89 86 87 84 82 83 89 86 86 86 78 89 73 74 70 55 48 49 56 41 45 60 49 56 58 65 73 71 65 78 56 49 38 58 59 67 83 62 89 77 31 29 31 27 31 27 31
91 81 83 89 90 89 87 85 84 85 84 84 90 86 87 86 79 76 97 78 72 78 95 82 75 72 78 34 41 53 42 38 48 55 64 54 96 92 52 60 46 62 48 52 47 43 33 34 26 26 29 25 33 32
92 85 84 83 89 89 88 86 86 83 89 90 87 87 87 85 78 76 95 92 71 77 65 70 76 64 64 60 52 52 54 34 42 37 54 60 87 63 94 59 48 50 53 61 54 32 34 34 26 31 29 29 29 29
94 95 93 91 89 91 88 88 89 92 90 89 87 86 89 85 87 76 84 78 63 67 85 60 54 64 56 56 62 58 43 50 49 53 66 86 88 43 63 44 54 37 52 49 48 40 39 40 35 30 36 39 38 33
93 93 92 94 94 95 94 93 91 92 92 90 91 89 90 90 80 83 75 65 56 56 89 71 65 57 74 78 72 61 61 59 70 74 90 76 60 67 71 67 62 42 44 63 56 37 46 29 32 35 38 43 40 40
89 90 92 92 92 93 93 93 92 92 91 90 90 91 85 79 72 68 96 74 64 62 74 97 68 65 78 80 81 64 58 59 61 66 77 52 53 58 91 66 37 38 36 38 39 47 46 52 48 40 43 42 43 44
87 87 88 89 89 90 91 91 90 89 88 89 90 91 83 76 69 66 68 64 72 67 78 97 83 59 57 74 84 79 67 63 62 68 72 62 67 69 94 76 39 33 35 38 49 55 52 54 47 56 52 49 55 45
88 88 87 87 86 86 85 85 86 87 87 87 88 89 82 77 66 66 88 85 76 78 91 100 94 86 70 92 100 90 93 87 76 70 69 68 61 79 77 45 39 38 46 52 55 54 57 57 58 60 55 55 57 57
89 89 88 88 87 87 87 86 85 86 86 84 83 81 81 75 87 86 93 85 84 89 100 100 100 99 95 99 99 99 95 100 73 97 79 65 73 86 47 40 44 46 54 46 54 54 59 58 58 64 61 62 62 71
91 90 89 89 89 89 88 87 87 88 84 79 77 76 96 92 89 92 97 98 98 97 93 93 96 100 97 100 100 97 99 100 100 98 79 98 74 46 58 61 61 61 59 62 70 74 72 72 67 66 64 62 64 68
93 90 89 88 88 87 88 87 85 85 82 72 77 86 77 90 84 87 95 83 76 87 81 82 88 100 89 99 99 96 100 100 100 100 97 98 86 66 72 67 64 64 60 58 56 59 60 60 67 73 74 75 74 74
93 93 90 86 88 87 87 86 80 66 73 89 88 74 84 78 91 98 99 98 97 82 88 98 91 82 96 83 86 95 100 100 100 98 100 99 97 96 91 83 72 68 64 64 63 65 68 67 69 72 74 75 74 74
92 94 90 85 86 87 86 85 88 94 92 93 69 78 77 96 100 96 97 97 98 99 98 99 99 98 95 79 100 100 100 100 100 100 96 96 96 96 96 94 94 84 80 78 80 78 77 76 75 80 88 88 91 93
89 94 91 87 93 90 92 90 88 89 85 98 100 99 100 97 94 96 96 98 100 100 100 98 100 100 100 100 100 100 100 100 100 97 97 94 99 99 99 99 97 98 98 98 96 96 97 96 96 97 96 96 96 96
91 92 94 93 90 90 91 91 90 90 94 96 97 97 97 98 96 98 99 100 100 100 100 100 100 99 100 100 100 100 100 95 89 92 93 93 99 100 100 100 99 98 98 97 97 97 98 97 96 97 97 97 95 97
91 83 84 93 93 88 88 88 89 93 100 95 90 94 95 96 96 96 97 98 99 99 100 100 100 100 99 96 93 95 83 88 90 90 92 97 96 96 97 98 98 98 97 96 96 95 95 95 96 95 95 94 97 95
91 98 92 92 89 89 89 88 93 100 96 95 96 96 96 96 96 97 97 96 97 100 99 94 92 96 76 78 83 81 91 90 90 88 92 98 97 98 98 98 98 98 96 94 92 93 94 93 92 88 89 89 84 86
94 94 93 90 83 88 86 86 88 78 89 91 92 95 94 95 95 95 91 85 93 82 72 86 64 78 87 84 86 89 87 89 92 91 92 93 94 95 95 95 96 96 96 95 93 93 92 92 87 87 85 84 81 83
96 94 93 92 88 85 89 88 63 80 90 87 81 80 78 80 75 72 78 74 69 65 66 67 79 83 88 86 91 91 92 92 91 91 90 93 93 94 94 94 94 92 87 88 86 84 84 87 86 84 85 84 86 87
97 95 92 81 74 82 85 91 66 66 73 73 64 67 69 71 71 82 77 66 60 61 75 79 87 91 90 90 90 91 91 93 89 89 89 89 91 92 94 91 89 90 84 85 85 86 81 82 84 85 86 86 86 88
88 93 80 65 70 71 80 86 94 79 81 80 76 60 65 65 78 83 79 57 74 76 83 88 91 89 91 90 87 87 88 86 87 88 89 88 89 87 87 88 88 84 83 85 85 86 85 86 85 83 89 91 89 88
77 65 74 69 72 74 72 72 81 80 72 78 73 65 80 84 83 82 60 76 79 86 85 83 83 81 78 86 89 90 92 90 90 85 88 86 87 86 87 88 82 88 85 87 82 88 85 78 80 81 87 89 81 82
64 65 76 81 82 85 82 65 81 69 81 82 72 75 77 78 68 50 78 66 78 81 82 81 85 83 82 87 78 82 86 85 85 87 86 85 83 83 81 78 78 82 80 73 66 72 79 72 76 81 79 78 78 81
61 82 85 84 77 86 83 86 67 71 79 81 78 84 81 77 61 70 79 78 82 74 74 77 71 71 66 65 66 66 59 54 62 65 63 62 68 70 67 69 70 72 69 67 72 78 78 84 78 76 80 80 81 81
82 92 84 90 81 82 91 91 88 80 93 88 85 86 84 67 81 80 80 78 80 85 82 76 71 66 68 69 64 65 62 54 61 65 66 63 67 64 65 64 69 70 70 80 82 82 84 82 81 80 78 82 81 79
96 96 88 94 90 86 88 92 93 93 84 89 92 78 78 79 81 86 72 81 86 84 90 88 82 73 69 62 63 66 68 59 57 67 68 64 66 75 76 76 74 78 75 83 84 82 80 80 82 80 80 77 81 82
93 94 81 68 72 75 88 83 74 82 90 93 88 85 79 88 88 79 75 75 73 81 77 76 66 66 69 70 67 67 64 65 69 65 63 64 67 68 78 83 84 80 71 79 81 83 83 81 81 81 81 79 80 83
82 77 86 90 85 76 91 88 88 92 88 78 72 92 86 83 82 78 75 75 77 71 75 75 72 70 72 75 76 77 78 77 81 73 70 71 72 78 81 81 84 88 81 85 82 80 79 80 80 80 80 82 83 82
92 85 77 96 87 87 90 91 89 82 77 74 87 86 85 74 82 80 80 78 78 76 78 80 86 82 80 78 82 79 79 77 59 69 73 81 82 84 80 82 81 84 85 82 80 81 78 80 84 83 82 85 84 81
92 83 85 86 91 91 93 87 91 89 76 78 70 70 72 82 85 81 82 84 85 90 91 88 88 84 86 82 86 85 86 87 87 82 81 85 87 86 85 85 85 86 87 85 84 77 83 81 78 79 80 81 83 84
84 83 86 83 89 86 86 88 86 83 85 84 85 84 85 86 87 86 84 86 86 89 85 88 90 89 86 85 83 81 85 90 91 89 86 87 86 84 86 87 87 88 87 84 84 84 85 82 83 83 82 83 84 85
91 91 87 89 92 89 90 91 92 89 91 86 90 89 92 88 89 88 90 90 90 88 97 91 88 89 89 88 90 89 98 88 87 88 82 87 85 86 86 84 86 86 85 84 84 84 84 84 84 85 85 83 85 86
93 89 88 89 92 92 90 89 84 91 90 89 91 92 90 84 85 88 89 90 88 84 84 87 90 90 88 86 85 89 93 88 88 91 94 95 98 96 88 85 85 85 83 84 84 84 83 81 82 84 83 87 87 87

GFSWCAN_sfc_rhum_057.txt.gz
RH
91 92 86 88 84 88 89 88 86 85 84 84 83 81 82 82 89 91 83 59 57 59 44 39 39 54 37 34 48 39 43 53 64 78 66 50 59 35 36 30 50 69 67 85 67 73 74 27 23 30 27 24 19 20
93 90 82 87 86 91 89 88 90 90 84 86 82 81 82 85 86 90 86 61 58 73 71 59 69 68 56 32 30 42 45 44 39 47 53 50 77 80 42 54 24 53 46 56 43 43 30 30 29 23 21 21 23 23
93 87 77 87 89 89 88 86 92 85 86 85 84 82 83 88 90 81 85 76 72 77 77 62 61 77 77 60 56 60 48 32 38 33 36 48 65 41 86 57 38 36 34 46 42 33 29 27 27 27 23 23 21 22
96 92 88 92 90 89 88 87 87 86 86 84 84 88 90 88 84 73 79 72 64 65 97 66 39 50 74 70 61 56 51 36 32 34 48 68 73 27 55 39 39 35 35 39 36 26 26 26 31 33 26 25 25 24
94 95 93 95 92 86 86 84 86 85 85 86 89 85 86 82 77 76 69 71 55 57 82 60 46 42 50 73 68 60 64 59 39 52 79 71 39 35 36 44 46 23 28 46 47 26 42 36 29 30 28 27 30 28
94 93 92 94 94 94 93 89 92 92 92 90 89 88 88 81 82 80 97 76 66 72 54 71 55 45 39 63 64 63 64 62 44 46 64 40 28 37 77 61 28 19 20 24 32 31 33 32 37 32 29 27 28 31
92 93 93 92 91 92 92 92 92 92 94 93 91 86 80 76 66 89 77 54 59 43 54 69 56 53 51 65 65 66 63 60 62 61 67 51 44 42 76 72 26 22 24 23 28 36 47 39 33 37 38 31 40 32
89 90 91 91 91 92 93 94 93 92 91 87 82 81 87 88 86 72 63 65 52 52 53 77 94 90 65 94 93 67 73 67 66 60 60 65 53 68 73 37 32 27 26 32 38 36 44 46 44 43 43 44 44 40
89 89 90 89 90 90 91 90 89 88 87 87 83 78 83 86 72 82 82 74 65 62 70 100 100 100 89 87 94 89 78 85 56 80 70 59 65 77 44 35 32 32 39 35 38 38 41 48 43 45 48 50 47 56
90 91 90 88 88 87 87 88 89 88 86 82 69 54 76 79 94 85 93 86 70 70 88 100 90 100 98 100 100 100 97 85 88 89 61 77 67 43 81 62 52 54 53 49 58 57 55 54 49 50 51 50 49 54
89 90 90 89 88 89 87 85 83 79 78 54 66 85 74 90 95 94 88 96 94 99 79 77 81 100 97 100 100 95 99 97 100 98 78 81 74 78 90 86 64 58 55 53 51 52 52 51 53 59 58 59 58 61
88 89 90 90 87 86 82 77 76 68 71 83 71 72 88 91 81 93 96 86 80 72 75 82 83 76 86 92 98 98 100 100 100 98 100 98 98 83 95 95 86 76 65 60 56 57 61 57 56 58 62 66 69 78
88 89 89 88 86 85 90 89 88 87 78 68 55 69 66 91 100 91 92 86 94 95 96 95 96 85 81 80 100 100 100 100 99 99 95 95 81 84 97 98 96 91 87 81 79 77 80 83 81 85 90 88 89 90
89 89 89 87 88 90 90 91 92 91 84 98 100 100 100 100 96 96 96 100 100 100 100 96 100 100 100 100 100 100 100 100 100 96 97 88 91 98 100 100 97 98 98 96 96 96 96 96 97 97 97 97 96 97
90 89 88 90 92 92 92 90 88 73 74 96 90 96 94 95 95 94 98 100 97 99 100 100 100 100 100 100 100 100 100 96 88 91 90 92 100 99 97 99 99 98 98 97 97 97 97 97 96 97 98 97 96 96
88 84 94 92 90 86 86 83 77 73 83 86 83 91 86 90 92 94 96 96 98 97 100 100 100 100 98 94 95 98 87 88 91 90 91 92 95 95 96 97 99 99 98 96 95 94 95 95 95 96 95 95 97 96
85 86 90 86 84 84 82 80 76 90 90 95 94 93 95 91 92 94 95 94 96 100 98 95 94 98 88 86 86 83 90 91 93 90 89 93 94 96 96 97 99 99 96 96 95 95 96 96 93 89 92 93 91 92
80 87 86 83 71 71 67 77 83 84 91 91 93 95 93 95 96 94 94 93 96 88 87 92 86 88 92 91 90 91 89 91 91 91 92 93 93 94 94 95 96 95 96 95 95 95 93 94 90 91 89 86 82 82
90 90 93 88 81 74 82 80 59 80 88 90 89 90 92 94 91 86 88 90 79 75 79 77 88 88 89 86 90 91 91 93 90 89 89 93 93 94 94 94 93 92 90 90 88 88 88 88 88 84 85 81 85 85
96 92 83 79 71 71 78 82 53 62 73 73 64 68 68 72 72 84 79 62 54 58 72 80 88 91 90 89 88 89 89 94 86 87 88 88 90 91 93 90 88 90 85 85 86 84 78 78 80 80 81 81 83 86
89 89 70 55 59 66 77 75 74 69 73 73 64 57 68 66 77 82 76 55 76 73 81 85 88 85 87 87 85 84 87 83 85 85 88 86 88 86 85 86 86 83 83 86 86 86 86 86 85 83 88 90 87 86
72 63 68 65 65 65 68 64 64 64 59 62 62 57 75 82 81 77 56 71 80 86 83 84 86 81 79 86 86 85 88 81 81 76 82 78 82 82 84 86 80 86 82 83 78 82 75 69 69 72 79 80 72 75
63 59 71 77 96 94 90 55 83 60 81 74 63 68 74 75 62 47 73 62 78 77 75 72 76 72 73 71 61 66 71 70 72 76 75 74 71 72 71 69 69 75 74 67 62 68 75 66 71 76 74 73 72 76
62 90 92 90 82 92 88 85 59 63 72 72 70 78 74 72 56 65 76 77 73 64 64 67 63 62 56 54 56 54 50 48 55 58 56 56 61 61 59 61 63 66 62 59 65 72 72 78 71 70 75 75 75 75
76 90 88 86 81 80 83 86 83 71 80 73 76 77 78 64 75 73 75 75 76 82 79 66 60 57 61 62 58 57 53 49 55 58 58 58 62 57 57 56 60 60 64 76 78 77 78 76 75 74 73 77 75 72
88 88 82 83 80 79 78 84 83 84 78 81 84 74 80 76 74 79 69 83 86 81 87 86 76 65 58 52 55 59 59 52 50 59 58 55 59 70 71 72 71 73 68 76 79 76 74 72 74 71 73 70 72 73
83 86 74 57 61 66 81 78 68 77 82 84 82 81 78 80 82 76 71 71 72 76 68 69 58 57 58 58 57 59 58 59 62 56 55 56 60 62 74 80 81 77 66 72 75 76 76 75 75 74 74 74 76 77
75 71 84 83 77 66 80 76 77 79 78 69 67 85 82 79 77 79 72 72 73 65 66 65 61 58 61 64 65 67 70 70 72 65 63 64 64 70 71 74 77 73 74 78 78 75 76 76 76 75 76 77 78 75
81 75 69 86 76 78 82 80 78 73 69 70 81 78 79 67 79 78 74 71 69 69 72 74 79 76 73 70 74 71 74 73 58 58 57 76 76 80 72 74 75 76 76 74 71 75 74 77 79 80 76 78 76 74
85 74 76 79 81 84 88 80 87 83 67 70 64 64 71 79 78 74 76 77 78 86 83 79 80 78 80 79 80 78 80 80 82 80 77 80 82 78 77 78 78 78 78 77 76 69 72 72 66 72 73 75 77 79
73 73 75 74 83 87 87 85 83 79 79 82 80 81 81 83 83 77 75 78 80 82 81 82 82 79 79 78 76 76 83 84 81 80 75 77 77 78 80 79 80 80 78 76 76 76 78 76 75 75 74 75 76 77
82 77 79 83 88 86 84 82 82 82 81 81 86 82 85 83 82 84 82 83 83 83 90 82 81 84 80 80 80 84 83 79 78 78 62 78 78 76 77 75 78 78 77 77 76 76 75 76 77 76 78 75 77 79
79 80 79 82 86 84 85 78 73 81 80 80 83 81 81 79 80 88 81 83 88 85 81 80 82 83 80 75 74 82 82 80 87 88 86 87 90 89 85 78 78 77 76 78 76 76 75 74 76 77 76 78 79 79

GFSWCAN_sfc_rhum_060.txt.gz
RH
90 92 93 93 88 86 87 86 85 84 87 87 90 91 88 85 83 87 92 88 94 80 56 62 60 62 47 41 52 39 45 55 91 84 75 63 74 42 32 23 60 77 88 94 82 93 87 31 25 32 35 34 30 26
94 94 87 84 86 88 88 87 88 90 87 87 89 89 89 86 86 82 93 88 86 88 85 66 64 68 49 57 57 44 45 65 61 73 59 57 88 78 44 59 23 55 51 70 67 59 42 44 37 35 37 37 34 34
96 88 82 88 88 88 90 90 89 87 86 87 89 90 87 85 85 80 85 90 96 96 86 72 69 58 54 53 59 73 45 39 54 46 44 55 73 44 93 67 48 39 41 53 55 41 43 45 39 37 35 38 28 26
96 89 87 89 91 89 93 91 88 86 87 85 88 87 88 87 83 80 93 89 92 73 94 59 47 62 53 53 55 66 66 77 56 48 58 84 80 40 76 50 46 37 38 46 48 38 39 34 31 37 42 35 32 28
96 94 90 87 88 90 89 89 87 88 84 85 86 85 90 85 81 94 89 87 76 70 80 75 50 52 51 57 54 60 71 76 85 92 87 84 55 50 52 47 49 28 31 50 59 38 47 42 30 29 33 29 31 32
95 95 92 89 88 89 89 90 90 87 85 84 89 91 87 85 84 87 97 91 86 64 70 99 55 56 55 53 51 60 72 80 81 84 80 49 39 47 86 54 27 26 26 24 29 26 36 36 36 37 40 41 36 35
95 94 95 92 93 92 89 89 88 90 87 89 88 89 87 83 73 92 90 76 66 59 59 68 56 46 56 62 62 57 59 77 86 80 75 52 48 45 72 69 30 27 25 25 25 29 38 43 48 46 46 43 43 36
94 94 94 93 93 94 92 92 94 91 91 90 90 90 86 85 86 76 65 71 65 58 47 71 72 71 58 83 82 56 73 74 72 74 64 66 53 63 68 34 32 29 28 29 29 35 43 44 44 43 43 44 49 49
92 93 92 92 92 92 91 90 91 90 89 88 88 84 86 93 95 83 75 68 66 67 67 95 86 100 88 80 81 79 69 88 65 88 77 71 75 79 78 81 67 60 61 57 51 50 39 49 47 48 48 52 54 61
91 92 92 89 90 89 89 87 85 81 78 76 73 72 96 91 78 68 70 65 61 64 76 88 81 97 98 98 94 86 86 78 81 75 65 84 79 69 71 77 84 73 64 57 64 64 64 62 57 54 53 54 55 56
90 89 91 91 89 89 88 88 87 86 84 68 83 99 86 84 81 82 90 78 68 78 66 72 78 100 98 100 100 89 99 91 96 80 84 83 89 84 75 83 91 80 70 61 57 56 58 60 62 64 60 62 63 65
90 89 88 88 87 86 87 87 84 83 76 82 76 70 83 89 90 89 96 92 78 71 70 82 86 88 99 99 100 100 100 100 100 96 99 97 94 79 86 86 94 87 79 74 73 76 76 73 70 75 83 87 88 89
88 87 86 88 88 89 88 86 85 84 80 68 70 79 79 92 95 97 83 86 96 99 98 98 98 94 97 99 100 100 100 100 99 100 95 94 86 89 96 87 87 87 86 86 86 86 87 90 88 90 95 92 92 94
89 87 87 90 92 92 90 86 82 76 67 86 99 90 99 90 86 95 96 97 100 100 98 99 100 100 100 100 100 100 100 100 100 96 95 94 97 98 96 93 85 95 97 97 97 96 96 95 96 95 95 95 94 96
89 88 86 89 92 89 88 85 80 57 70 90 83 90 89 94 87 88 95 96 97 95 98 100 100 99 100 100 100 98 97 89 87 93 92 94 97 95 94 93 94 95 97 97 96 96 97 96 95 96 97 96 95 95
85 82 87 87 86 86 84 73 66 63 73 74 81 91 85 84 86 87 89 90 88 94 99 100 100 100 93 87 80 92 73 88 93 92 93 91 94 95 96 96 97 97 96 96 95 95 95 95 95 96 95 95 96 94
80 88 92 86 84 83 77 69 66 73 76 91 93 87 88 84 93 94 95 92 92 98 97 93 85 94 76 75 79 80 92 93 91 91 92 94 94 95 96 96 97 96 96 96 95 95 96 96 93 88 93 95 94 94
84 80 86 84 81 71 66 65 73 74 90 92 90 92 88 92 91 89 90 92 95 85 78 89 67 78 89 85 87 91 92 94 92 93 94 95 95 95 95 96 96 95 94 95 94 95 95 94 92 94 93 93 91 92
83 84 86 84 80 71 76 77 61 83 93 94 94 91 90 93 91 94 94 92 87 80 77 84 86 88 92 93 96 96 96 95 94 93 93 95 95 96 96 95 94 94 94 94 91 90 89 92 92 90 89 88 92 92
88 86 82 77 73 66 76 78 57 67 76 83 84 82 81 87 88 87 86 82 87 87 89 91 93 95 94 94 94 94 95 94 88 89 91 92 93 93 95 93 92 92 89 87 88 88 85 85 85 85 88 88 88 91
86 74 72 56 60 68 75 71 68 71 74 81 66 67 79 72 78 82 77 59 79 79 85 88 92 90 89 90 87 84 88 82 88 88 90 89 92 89 90 91 90 88 88 89 89 89 88 89 87 82 86 88 88 88
61 65 70 71 73 66 73 68 65 66 62 66 63 61 75 84 83 78 62 78 84 85 86 85 86 82 82 88 90 89 92 88 86 82 82 78 84 83 86 86 81 85 80 82 79 84 81 77 76 78 86 87 79 79
65 62 80 88 96 96 89 61 80 61 74 68 61 66 76 77 62 49 76 68 83 85 76 76 82 77 75 71 66 70 73 73 76 76 75 74 70 73 73 73 74 80 79 71 65 74 80 72 77 83 81 80 79 84
64 93 95 92 84 92 87 81 55 61 66 67 65 75 72 71 56 66 80 82 80 64 71 86 72 64 58 56 58 55 53 53 60 66 60 58 62 62 60 62 67 73 68 65 71 79 79 84 78 77 81 81 81 82
78 87 88 86 84 78 77 78 73 66 75 67 71 75 74 61 72 73 80 84 85 88 80 67 64 60 64 64 60 57 52 50 57 60 61 62 64 60 63 60 64 63 70 82 82 81 83 82 80 79 79 82 77 78
87 82 77 78 77 75 72 79 77 75 72 76 79 71 74 71 72 82 78 88 89 85 91 90 75 64 58 54 58 62 61 52 53 62 61 59 65 73 74 75 76 77 72 79 81 77 75 76 78 77 79 75 81 79
81 83 70 54 59 62 76 73 64 73 77 77 76 75 72 76 81 81 75 78 78 79 70 71 59 59 60 61 60 61 60 60 62 59 58 59 62 65 76 81 82 81 70 77 76 78 77 77 78 78 80 79 80 81
71 70 85 80 75 64 76 73 74 76 77 65 65 81 80 79 85 88 76 74 76 66 65 64 66 63 66 67 68 69 71 74 74 69 67 67 66 71 74 81 74 75 79 77 80 80 79 78 79 78 79 80 84 80
77 67 69 88 75 76 80 77 77 70 67 70 76 77 76 74 80 77 75 72 70 71 74 76 80 76 74 72 76 73 76 80 68 68 69 78 81 83 74 75 77 77 77 76 82 81 74 79 80 80 79 78 79 81
81 66 75 78 84 85 90 77 86 80 66 68 63 66 71 77 85 74 74 76 83 89 86 84 84 85 85 84 82 80 81 82 85 88 83 85 84 78 80 79 80 79 78 77 77 72 81 76 74 76 76 80 79 82
66 70 72 74 83 86 86 84 82 78 78 84 81 82 81 83 80 78 78 79 80 83 82 81 82 79 78 77 78 76 90 86 82 83 78 76 77 81 81 79 80 80 78 77 78 78 78 79 78 76 77 78 81 82
77 75 78 82 87 83 89 91 80 80 83 82 86 81 87 88 85 85 80 81 83 87 93 80 82 87 81 80 82 83 85 80 80 77 72 79 80 78 76 74 77 78 78 79 78 77 78 77 80 79 80 80 82 83
81 81 79 81 85 81 82 75 70 76 75 77 81 81 85 88 88 90 76 83 91 90 81 88 84 84 79 75 76 83 81 86 92 91 92 94 91 91 89 81 81 79 77 79 78 78 77 76 79 80 82 84 84 85

GFSWCAN_sfc_rhum_063.txt.gz
RH
90 90 90 92 94 92 92 91 88 85 85 86 87 86 86 88 82 91 95 91 97 97 70 59 64 72 58 56 66 60 62 63 90 86 76 86 89 69 68 54 76 83 93 99 99 98 96 50 42 42 45 42 36 35
93 95 95 95 89 88 86 86 87 86 86 86 86 85 86 87 85 88 98 90 92 99 92 73 72 68 72 63 79 59 53 53 89 86 92 86 88 85 64 60 45 86 74 83 72 83 62 60 54 49 49 46 48 45
97 92 85 88 89 89 89 91 92 89 88 87 86 86 86 86 87 89 94 88 95 99 98 95 90 81 73 77 80 88 68 58 79 81 94 90 79 70 87 76 48 50 51 68 70 59 53 49 57 59 58 57 47 36
95 88 88 92 90 90 91 90 88 94 89 86 86 86 85 84 90 86 92 87 93 98 98 91 76 77 69 71 79 79 82 79 84 87 94 96 97 60 78 65 62 55 53 62 71 53 52 48 43 56 53 54 47 41
94 89 88 93 91 91 91 90 90 88 92 90 90 90 91 93 89 87 92 86 92 97 97 92 78 75 66 73 74 80 81 88 96 96 99 93 85 76 78 71 71 45 45 77 87 64 57 47 38 47 56 49 44 50
95 90 90 93 93 91 90 89 89 90 90 88 88 90 89 89 85 93 99 93 94 96 91 99 78 72 68 67 70 77 84 89 97 95 98 91 70 75 94 78 42 34 34 35 38 34 34 38 42 47 51 52 50 54
94 95 93 92 92 90 88 88 88 88 88 87 87 88 88 87 90 93 96 91 87 90 85 97 90 72 70 73 78 76 85 94 96 95 96 94 86 87 94 82 52 46 39 31 43 48 45 42 54 55 53 55 57 54
94 95 92 93 94 91 91 90 90 90 92 88 84 86 92 92 89 88 85 80 81 70 69 94 96 86 78 94 94 79 90 93 94 96 93 96 85 87 95 86 81 79 73 68 66 63 65 56 56 54 55 57 61 64
93 94 94 92 92 91 92 94 89 87 89 90 87 87 95 97 97 93 82 79 82 81 92 98 96 96 95 92 90 92 91 98 91 98 92 92 98 97 93 89 86 90 83 80 69 68 64 70 68 62 58 62 67 72
93 93 94 93 91 90 90 89 88 87 83 85 88 93 99 98 81 80 84 83 82 85 91 97 91 99 96 100 99 99 97 96 98 92 86 95 99 95 93 85 85 88 80 74 81 86 80 81 76 75 74 75 78 85
92 92 91 90 91 91 89 89 90 88 86 89 95 99 95 84 93 92 96 90 83 91 93 91 94 98 97 99 100 99 99 97 93 90 87 99 94 90 97 96 82 82 78 76 75 80 81 84 88 89 90 90 88 88
86 85 86 87 87 87 85 86 85 92 92 90 85 88 96 91 94 90 98 98 92 93 92 95 98 95 100 98 99 99 99 98 95 93 98 98 96 92 89 87 89 88 83 83 81 86 88 88 89 90 91 92 91 90
88 89 90 90 89 87 84 80 82 85 82 87 84 90 87 96 91 95 96 95 99 99 99 100 99 98 99 99 100 100 100 99 96 95 97 97 93 92 94 89 89 89 87 86 87 86 86 89 88 90 92 90 90 92
89 88 91 90 89 87 84 79 75 76 83 93 95 92 95 95 97 97 97 98 99 99 98 99 100 100 100 99 100 99 100 97 98 96 96 96 97 97 96 96 92 96 96 96 96 96 96 95 96 96 96 96 95 96
85 86 83 89 89 88 83 76 70 74 86 93 87 98 97 98 96 95 95 98 98 94 98 99 100 99 100 99 99 99 97 96 95 97 97 97 97 97 96 96 97 96 96 96 96 96 96 95 93 95 96 96 95 95
82 83 92 90 88 84 83 75 76 82 91 87 90 95 94 94 95 96 96 97 95 96 98 100 98 98 98 95 95 96 92 95 97 97 96 96 96 96 97 96 97 96 96 96 96 95 95 94 94 96 94 94 95 93
84 93 88 81 77 72 72 81 82 82 89 91 98 95 97 96 98 98 97 98 97 99 99 96 93 97 87 89 90 93 97 96 96 95 95 96 96 96 96 95 96 96 96 96 95 94 95 95 89 84 93 96 94 94
94 95 87 87 92 90 80 82 86 79 90 97 96 97 96 98 96 97 98 96 97 94 93 94 84 91 97 96 97 97 96 96 96 95 96 96 96 95 95 95 95 95 95 94 93 92 93 91 91 94 93 91 89 89
91 88 80 82 83 84 85 86 77 90 97 97 96 96 97 96 93 92 96 92 85 81 89 89 90 96 97 97 97 97 97 96 96 96 95 95 95 96 96 95 95 94 94 94 92 91 91 92 92 90 90 88 93 93
83 82 79 81 79 84 85 90 80 87 93 95 90 87 86 90 88 85 80 81 75 80 88 93 96 96 96 96 96 96 96 96 94 93 94 94 94 93 95 94 93 94 91 91 90 90 86 86 88 88 89 87 89 94
88 80 78 73 79 82 90 93 92 95 98 97 89 78 84 74 76 81 78 63 79 87 94 95 96 96 94 94 93 90 92 87 92 91 93 93 94 92 92 93 92 91 90 92 92 93 92 94 93 81 88 91 92 89
76 71 89 90 91 86 91 85 87 87 86 88 89 89 95 93 94 88 69 83 93 95 94 93 94 91 90 93 94 92 94 91 91 90 91 88 92 92 93 94 90 92 88 88 86 90 90 87 87 89 95 92 86 88
77 84 95 93 88 86 92 86 85 80 89 89 89 86 91 94 88 73 93 82 95 90 85 84 84 79 83 82 84 90 89 87 91 89 87 86 82 83 85 87 88 89 92 90 84 90 93 89 87 90 93 92 93 95
78 97 96 97 90 99 91 90 85 85 88 88 86 89 87 94 84 91 95 96 92 84 92 85 72 71 66 64 70 68 66 64 72 84 82 76 80 83 80 84 85 92 87 86 90 94 93 97 94 91 92 95 95 97
79 88 91 93 92 88 90 88 87 88 92 87 88 93 89 88 92 94 91 97 98 98 93 79 80 74 81 85 81 77 70 66 77 82 80 89 87 82 83 82 87 88 88 95 97 98 99 95 96 97 92 94 93 98
95 90 86 87 92 89 91 92 89 89 90 95 96 85 92 92 93 99 92 97 100 98 97 97 90 81 77 72 79 83 81 76 73 84 83 80 88 96 96 96 97 96 93 99 97 99 97 95 95 95 98 95 98 97
95 95 80 74 86 85 92 90 85 91 92 94 90 92 90 96 100 97 96 94 98 96 86 86 74 77 81 82 80 86 88 84 84 79 80 81 83 84 93 100 100 98 96 95 96 99 100 99 98 98 99 98 98 99
85 85 97 94 90 85 91 93 94 96 97 92 90 96 99 99 99 97 98 96 95 83 82 82 82 84 88 90 95 97 96 94 94 88 88 90 94 97 97 97 98 98 94 96 99 98 99 99 99 99 99 100 100 99
94 89 87 92 89 92 95 96 97 92 83 92 96 98 97 96 97 97 95 94 94 90 94 97 97 97 95 94 95 96 97 98 91 93 99 99 100 99 98 98 97 97 99 98 92 99 96 97 95 95 98 98 99 97
93 91 90 91 94 98 98 97 97 96 88 91 87 82 87 97 97 96 95 96 96 98 98 97 97 98 98 98 100 100 99 100 100 100 99 100 100 100 100 100 100 100 99 97 98 97 96 98 99 98 96 96 98 97
92 92 88 92 98 97 97 96 87 85 92 91 89 93 97 99 96 96 97 97 97 97 96 98 99 98 98 99 100 100 100 100 97 97 98 100 100 100 98 99 98 98 99 97 98 98 94 96 98 99 97 96 98 99
94 92 92 96 98 98 98 97 95 97 98 96 98 97 99 99 100 99 96 95 97 98 98 97 97 100 100 100 100 99 98 99 99 100 100 100 100 100 100 99 99 98 95 95 98 99 95 96 98 99 100 98 98 99
88 88 90 96 99 99 96 95 92 92 95 96 99 97 98 98 100 99 96 97 98 96 97 98 98 98 99 98 98 100 100 100 100 100 100 100 100 100 100 100 99 98 100 99 99 99 99 99 100 99 98 99 100 100

GFSWCAN_sfc_rhum_066.txt.gz
RH
91 92 92 91 90 90 91 91 90 90 88 86 85 86 85 85 83 90 91 90 94 100 94 72 60 71 64 62 74 70 71 74 88 87 87 84 92 79 80 72 86 93 95 99 100 99 93 57 51 57 58 53 50 52
94 95 96 96 96 94 95 93 91 91 91 89 90 88 87 89 85 85 95 91 84 96 98 82 69 61 49 51 64 70 68 63 70 86 92 90 90 92 78 77 55 84 74 90 85 77 60 60 61 69 66 65 62 60
94 89 88 90 91 90 90 90 88 88 86 87 88 88 88 89 90 90 97 93 93 97 95 94 76 73 73 76 72 85 81 67 83 83 94 92 80 81 81 76 57 56 58 70 72 54 55 54 52 49 58 54 50 57
90 90 93 90 91 91 91 91 90 91 91 90 87 90 89 88 86 90 96 85 85 96 99 93 74 74 77 77 75 78 82 83 88 94 94 98 96 76 84 64 59 45 51 50 71 60 56 55 55 49 46 47 53 48
90 91 94 92 93 92 93 90 92 91 90 89 87 88 90 89 87 92 93 82 87 90 98 99 86 86 84 81 76 81 81 88 93 93 99 95 94 86 88 85 73 58 62 81 79 61 62 58 39 42 52 44 42 53
94 94 94 91 92 92 92 90 92 88 87 84 89 89 87 90 92 95 99 94 82 94 99 100 91 87 87 86 87 88 82 91 96 94 97 92 88 86 97 87 86 84 81 65 69 62 65 48 43 46 52 58 55 57
94 93 94 91 91 90 92 90 92 92 91 88 88 87 92 89 92 94 96 90 81 91 100 100 98 84 72 76 82 86 87 91 92 92 96 95 90 77 99 92 88 82 84 80 78 76 69 60 50 63 59 60 62 58
94 91 93 92 92 91 89 89 89 91 92 90 91 88 85 82 89 96 90 86 90 97 86 95 99 95 89 96 95 89 95 96 94 92 94 88 93 92 99 90 81 81 81 81 80 76 76 73 68 63 62 63 66 70
94 93 94 94 89 88 90 89 91 90 89 87 88 86 93 95 99 98 88 91 93 84 94 97 95 100 92 96 94 93 94 98 92 99 93 87 100 98 94 94 88 91 92 87 81 80 80 82 80 78 75 77 81 88
92 92 92 92 90 89 91 90 87 84 91 91 96 95 99 100 91 87 83 90 87 90 92 96 94 98 96 98 100 98 99 96 99 96 93 97 98 99 91 95 89 84 86 80 92 94 92 89 90 90 88 84 84 82
89 88 90 93 93 92 90 88 87 87 85 92 96 99 95 87 91 91 96 89 87 90 93 90 93 98 95 96 99 99 99 99 98 92 94 97 93 91 96 95 91 82 85 89 84 84 86 88 92 92 91 89 88 87
89 89 88 89 88 87 84 84 84 94 96 89 88 93 95 92 90 91 98 97 90 96 98 96 98 97 97 94 99 99 100 99 93 96 93 98 96 92 89 88 84 83 83 85 89 93 93 90 90 90 90 91 90 89
91 91 90 88 87 84 80 81 80 81 86 90 88 88 83 90 89 94 98 97 99 99 98 99 100 99 99 99 99 99 99 99 96 96 94 96 95 93 94 88 88 88 88 85 86 86 85 87 89 92 93 92 90 91
89 90 90 90 86 82 77 75 78 76 79 88 89 91 94 94 98 97 98 98 99 99 98 99 99 100 100 99 100 99 99 88 96 96 96 96 97 97 95 94 90 94 94 94 95 95 95 95 95 96 96 96 95 95
87 85 79 81 83 83 73 75 71 77 83 92 87 99 96 98 97 97 97 96 97 97 98 99 100 99 99 98 98 94 96 97 96 98 98 96 97 96 96 95 95 95 95 95 96 96 96 96 95 95 96 96 95 95
85 80 82 87 90 83 76 74 78 85 91 89 91 94 96 95 95 97 100 99 98 97 99 98 97 97 97 96 91 97 88 96 97 97 96 95 95 95 96 96 96 96 96 95 95 96 95 95 95 96 95 95 95 94
84 92 88 90 90 82 76 82 82 85 92 92 98 99 100 100 98 98 99 97 96 99 99 93 94 97 86 93 94 93 97 96 96 96 96 96 96 96 96 96 96 95 95 95 96 96 96 96 92 86 92 95 94 94
98 94 88 90 87 87 85 84 85 80 92 98 97 98 98 99 99 98 97 93 96 95 87 94 78 91 98 96 96 96 96 96 95 95 95 96 96 95 95 95 95 95 95 95 94 94 94 92 90 93 92 92 90 91
94 90 82 82 85 86 85 88 79 92 97 97 96 91 95 97 93 95 90 86 82 81 88 90 92 96 97 96 97 97 96 96 95 95 94 95 94 94 95 95 94 94 93 94 92 92 92 92 92 90 90 86 91 91
82 79 77 81 80 85 82 93 83 89 94 96 92 91 90 94 85 82 78 73 69 77 90 94 97 97 98 97 96 96 96 95 89 91 94 94 94 94 95 94 93 94 92 90 90 88 82 85 86 87 87 87 91 94
88 80 80 83 87 84 92 95 98 93 95 92 90 77 82 70 77 80 77 63 77 94 95 96 96 96 95 95 94 90 93 88 93 90 93 94 95 92 92 93 92 90 89 91 92 92 91 93 87 87 94 95 94 90
77 76 90 88 90 83 87 89 92 92 86 90 95 86 94 95 94 86 68 81 92 95 95 94 95 93 91 93 95 94 95 92 91 90 90 86 92 91 92 93 88 92 92 94 91 95 94 90 93 92 93 96 94 93
80 86 93 85 87 83 86 86 86 84 89 95 90 88 94 96 94 75 95 89 95 94 87 86 82 82 90 93 88 89 84 83 90 90 88 90 90 92 92 93 92 94 94 95 91 90 95 94 92 95 96 96 96 99
78 95 97 95 91 100 91 90 88 85 87 91 92 98 91 94 86 92 98 97 96 91 82 77 72 76 73 72 83 81 76 77 87 92 87 84 92 95 93 94 93 95 95 91 92 97 94 97 98 93 96 99 100 100
79 86 87 91 91 87 92 93 91 88 96 92 94 98 95 88 96 98 98 97 96 98 96 86 80 81 89 92 88 86 78 77 88 92 94 87 91 88 91 92 93 94 95 95 99 99 100 98 97 96 96 97 96 100
96 90 84 94 95 89 94 96 94 96 98 100 95 93 92 94 96 100 96 98 99 98 100 98 92 89 87 82 86 89 96 86 82 93 93 89 94 97 100 100 100 98 97 100 97 99 100 100 100 99 100 100 100 99
99 99 91 76 93 86 94 92 88 94 100 96 96 96 93 100 100 98 97 97 98 99 98 95 81 84 89 90 85 90 90 89 90 90 87 82 86 89 94 98 100 99 98 96 99 100 100 100 100 100 100 100 100 100
92 89 94 96 92 90 96 98 100 100 100 94 88 100 100 100 100 98 100 98 96 89 90 91 90 91 96 98 99 98 97 97 93 93 93 96 98 99 98 100 100 100 100 100 100 100 100 100 100 100 100 100 100 100
96 94 87 97 94 96 99 100 100 99 94 96 100 100 100 97 100 99 96 96 95 91 94 95 100 98 96 96 98 99 99 99 99 100 100 100 100 100 100 100 100 100 100 100 100 100 100 98 95 98 100 100 98 100
97 93 92 97 97 100 100 99 99 99 93 98 94 86 91 96 97 98 98 96 97 99 99 100 99 98 100 100 100 100 100 100 100 96 100 100 100 100 100 100 100 100 100 100 100 97 100 99 100 99 98 99 100 100
92 93 94 97 100 98 98 98 87 87 96 97 98 99 99 98 97 97 98 99 97 98 96 100 100 100 99 100 100 100 100 100 100 100 100 100 100 100 100 100 100 100 100 100 100 100 100 100 100 100 100 100 100 100
95 97 95 97 98 98 98 99 100 100 100 100 100 100 100 100 100 100 100 99 100 100 100 100 100 100 100 100 100 100 99 100 100 100 100 100 100 100 100 100 100 100 100 100 100 100 100 100 100 100 100 100 100 100
95 90 97 98 98 100 99 96 100 99 100 100 100 99 99 98 100 98 98 100 100 97 100 100 100 100 100 100 100 100 100 100 100 100 100 100 98 100 100 100 100 100 100 100 100 100 100 100 100 100 100 100 100 100

GFSWCAN_sfc_rhum_069.txt.gz
RH
92 93 94 94 92 91 88 87 88 87 84 84 83 83 83 82 81 91 96 92 97 100 91 78 63 69 64 68 82 73 72 77 93 87 93 87 96 80 73 76 93 93 96 97 98 100 89 65 70 91 71 68 69 60
94 94 89 88 88 92 95 90 90 92 89 87 85 84 83 82 82 82 98 93 91 98 95 95 86 77 49 50 61 70 63 73 79 88 93 89 93 96 81 90 68 85 80 87 86 79 61 56 73 71 77 73 68 65
94 88 88 87 90 91 90 89 88 94 92 90 90 87 85 84 84 85 96 97 97 99 96 92 89 74 75 56 59 84 84 66 80 78 91 88 82 85 92 84 66 63 66 76 84 59 59 48 52 59 61 60 57 58
90 91 93 91 92 92 91 90 90 89 89 90 90 89 87 85 86 85 97 94 91 96 99 88 63 71 62 75 58 69 78 88 92 95 92 97 96 77 86 69 74 62 60 60 57 49 55 55 54 51 51 52 53 54
94 94 93 92 93 92 91 90 89 91 90 87 88 88 88 88 86 91 97 90 74 86 93 88 89 75 85 89 85 83 84 89 95 97 99 98 94 93 91 88 88 92 92 97 84 81 91 51 51 50 55 53 51 56
94 92 93 92 92 92 95 92 90 92 92 89 87 89 88 90 92 96 100 95 82 93 97 100 89 93 95 89 87 84 87 92 95 95 98 94 90 91 96 85 89 88 84 86 95 85 87 79 57 56 52 54 58 61
94 93 92 92 91 94 94 91 88 90 88 90 89 89 92 92 92 95 94 93 88 92 97 100 100 93 82 87 90 90 90 94 94 97 99 96 93 86 100 99 89 80 85 82 79 88 89 85 88 75 69 67 68 70
95 92 91 91 92 92 90 90 89 92 89 88 89 92 93 84 87 94 94 80 81 95 96 99 100 98 89 96 96 90 96 97 95 94 94 94 93 96 99 85 81 84 80 84 83 82 89 89 82 84 82 81 82 80
93 93 92 90 91 91 87 89 93 89 88 90 87 86 89 96 98 99 80 77 97 95 98 99 98 99 93 97 96 95 96 99 93 100 95 91 97 98 89 85 87 85 90 91 82 82 82 90 90 89 86 86 86 88
92 90 89 88 86 88 94 87 87 85 79 83 89 94 100 99 89 85 95 99 100 96 91 98 96 99 96 98 100 98 99 98 96 97 94 95 98 94 96 84 82 85 82 84 95 93 91 94 92 92 93 90 86 86
87 88 88 87 87 87 88 89 90 89 88 96 98 100 99 94 96 96 98 96 93 93 93 97 93 99 96 96 92 98 98 97 99 94 95 96 94 91 95 90 79 82 88 84 83 84 86 89 91 90 90 89 87 85
88 89 87 84 83 82 84 84 84 93 95 87 89 92 95 91 87 91 97 96 91 98 98 100 96 96 99 92 98 99 99 99 98 96 96 96 95 92 91 85 84 82 84 84 82 85 86 84 88 90 91 90 89 91
90 90 89 85 80 78 77 82 84 84 86 85 80 78 80 89 88 93 98 97 98 99 97 98 99 97 98 95 97 99 97 99 98 96 97 97 94 88 91 84 85 86 83 81 84 86 86 87 86 84 88 91 93 93
81 82 87 89 86 75 76 71 72 69 75 87 87 92 92 95 98 98 98 98 99 99 98 98 99 99 100 99 99 99 98 91 96 96 98 95 97 96 94 93 87 94 93 92 94 93 94 93 95 95 95 95 94 95
82 85 83 90 86 78 70 73 66 76 82 92 86 99 96 97 97 98 98 98 97 97 98 99 100 99 98 97 97 92 93 97 95 99 98 96 96 95 95 94 96 95 95 95 95 95 95 94 92 95 95 95 94 94
86 82 88 90 85 76 68 68 79 84 90 88 90 94 96 95 95 96 98 98 95 97 99 98 98 97 97 96 90 96 87 96 98 98 96 95 96 96 96 96 96 96 95 96 96 95 94 93 93 95 93 94 94 94
87 94 90 89 85 70 69 80 83 87 92 92 98 99 100 100 98 98 98 96 92 98 98 96 95 97 85 94 94 93 97 97 96 96 95 95 95 96 95 95 95 94 95 95 95 95 95 95 88 84 92 95 93 94
96 94 89 87 85 82 83 84 86 84 96 97 96 97 100 98 98 98 96 87 95 94 80 94 73 90 98 95 95 96 95 95 95 95 95 95 95 95 95 95 95 95 95 95 94 95 94 92 89 92 91 92 88 88
94 92 84 81 86 84 83 87 79 92 97 98 97 96 98 98 87 88 89 86 82 82 86 88 93 95 98 97 96 97 98 97 96 96 95 96 95 95 95 95 95 94 94 94 91 90 90 92 91 88 88 84 90 90
85 79 80 79 79 85 87 97 85 87 94 95 88 88 86 90 87 94 82 73 71 80 92 96 98 98 98 98 98 97 98 97 90 93 94 94 95 94 95 93 93 93 89 88 89 87 84 86 87 88 87 87 93 96
80 79 82 79 86 86 94 97 94 94 94 90 78 73 77 69 78 82 81 69 85 95 95 97 97 96 95 95 94 92 94 90 94 91 94 94 95 91 91 92 91 89 90 93 92 94 92 95 94 90 93 95 96 97
84 80 89 86 85 81 87 90 94 96 92 92 94 85 94 96 96 92 80 90 95 96 96 95 96 92 91 94 96 94 94 90 89 88 88 86 92 91 92 94 89 94 93 94 93 97 97 94 92 93 94 98 93 95
77 83 91 85 84 81 89 86 91 88 92 98 88 88 92 98 94 72 98 90 96 94 89 86 86 84 91 90 85 86 85 86 92 93 92 93 93 94 94 95 95 97 98 97 90 95 98 97 98 99 99 95 94 98
72 91 97 94 90 99 91 92 86 82 88 92 93 99 93 94 82 92 98 98 97 90 84 80 77 80 77 78 87 88 84 82 88 90 92 91 95 96 95 96 97 98 97 94 92 97 97 100 100 98 100 100 100 100
80 86 86 91 92 88 93 94 93 89 98 95 96 99 95 89 97 98 98 98 96 98 99 88 81 80 90 98 94 91 84 81 91 97 98 93 96 94 95 93 96 97 97 96 100 100 100 100 98 99 100 100 100 100
97 94 91 98 96 91 95 98 97 98 98 99 96 96 94 95 98 100 97 99 99 100 100 98 96 94 91 86 93 96 98 93 86 95 93 92 91 96 100 100 100 99 98 100 100 100 100 100 100 100 100 100 100 100
99 100 90 72 90 85 95 95 89 95 100 98 99 97 96 100 100 99 97 98 99 100 98 96 84 83 89 93 92 96 96 94 92 88 89 87 89 90 95 99 100 99 98 98 99 98 100 100 100 100 100 100 100 100
92 88 94 96 95 91 99 100 100 100 100 94 89 100 100 99 100 99 100 99 98 94 95 96 94 91 93 96 97 96 99 99 97 95 94 96 98 100 100 100 100 100 100 100 100 100 100 100 100 100 100 100 100 100
98 96 88 99 96 97 98 100 100 97 94 97 99 100 100 96 98 100 98 99 97 92 96 99 100 100 98 98 100 99 100 100 100 100 100 100 100 100 100 100 100 100 100 100 100 100 99 98 100 100 100 100 100 100
99 94 95 98 97 100 100 99 100 100 96 99 95 88 92 97 98 99 96 96 95 98 99 99 99 97 99 97 100 99 100 100 100 99 100 100 98 99 100 100 100 100 100 100 100 96 100 100 100 100 100 100 100 100
92 94 96 97 100 100 97 100 97 89 98 98 99 100 99 99 98 97 98 99 99 100 100 100 100 100 100 100 100 100 99 100 100 100 100 100 100 100 100 100 100 100 100 100 100 100 100 100 100 100 100 100 100 100
96 100 95 98 99 98 98 100 100 100 100 100 100 100 100 100 100 98 98 98 98 100 100 100 100 100 100 100 100 100 100 100 100 100 100 100 100 100 100 100 100 100 100 100 100 100 100 100 100 100 100 100 100 100
95 96 98 97 100 100 98 95 99 100 100 100 100 100 100 99 100 97 98 100 99 98 99 99 100 100 100 100 100 100 100 100 100 100 100 100 99 100 100 100 100 100 100 100 100 100 100 100 100 100 100 100 100 100

GFSWCAN_sfc_rhum_072.txt.gz
RH
87 92 94 90 86 86 86 92 87 86 86 84 86 84 86 90 91 95 96 93 97 100 95 80 70 82 71 67 82 76 82 87 94 95 91 89 95 78 70 79 90 92 96 97 95 98 94 60 75 79 78 74 74 68
93 93 89 87 86 86 87 89 92 87 87 86 84 85 82 91 91 93 99 95 94 98 99 91 85 80 56 54 58 66 69 78 83 92 94 89 95 96 83 92 82 87 80 90 86 83 66 66 63 64 73 53 63 68
95 93 87 90 92 92 91 89 87 94 89 90 88 84 83 86 90 90 98 97 97 100 98 96 90 73 74 71 59 75 79 68 84 76 92 88 82 84 91 86 69 68 72 86 80 54 58 51 58 60 68 67 58 56
93 92 92 93 93 93 93 93 92 90 92 92 92 86 84 83 82 86 96 95 93 97 100 91 70 73 67 72 73 66 68 86 88 94 92 98 95 80 88 70 75 62 68 70 65 56 71 55 56 60 60 60 64 63
92 90 92 92 91 92 94 91 91 91 87 91 93 91 86 84 82 88 96 92 83 86 97 91 88 66 60 70 82 74 78 85 94 92 98 96 94 91 93 92 92 93 83 90 83 97 92 91 83 81 81 70 61 64
92 92 93 93 93 94 93 88 90 92 89 91 91 91 90 85 85 95 100 97 80 92 94 99 86 88 78 87 88 80 70 92 95 95 96 91 92 93 98 93 91 81 81 83 84 88 89 89 88 83 88 79 78 76
94 94 92 92 94 92 93 92 91 91 89 88 91 90 90 85 91 98 95 95 86 91 99 99 97 90 78 90 98 98 94 96 96 98 95 89 98 92 100 99 94 88 78 77 79 88 92 90 94 82 80 80 74 70
92 91 91 91 93 92 90 91 92 89 86 90 91 90 91 89 92 94 94 82 80 95 96 100 99 100 90 99 99 96 98 97 97 95 98 97 96 96 99 89 80 79 78 79 82 81 88 82 84 82 78 78 79 84
89 89 92 94 92 93 90 90 90 88 90 92 93 87 94 96 98 99 85 83 95 94 98 100 99 99 95 98 98 96 95 100 95 100 96 93 96 98 94 88 85 85 90 89 82 83 83 89 88 85 84 85 88 90
88 87 90 90 91 92 88 88 89 90 91 88 91 97 100 99 86 87 94 97 98 97 99 99 99 100 99 99 100 99 98 97 95 93 91 96 97 95 91 84 79 83 82 85 93 93 95 95 91 90 90 86 84 86
90 87 85 86 88 92 90 91 88 89 91 96 99 100 98 86 92 98 99 99 99 99 99 99 97 99 97 96 97 98 97 98 99 97 93 97 94 93 95 87 79 78 83 84 87 86 86 87 89 88 86 84 83 82
88 89 87 81 80 82 89 88 87 94 97 94 96 94 90 93 96 97 98 95 94 94 96 97 99 95 96 95 94 98 97 97 92 97 95 97 95 91 81 85 79 80 86 86 89 90 90 88 88 86 85 86 88 89
87 88 88 83 77 75 77 79 83 85 84 85 78 74 76 89 89 94 98 95 97 98 97 98 97 92 96 94 98 99 99 99 96 96 95 97 92 87 88 84 84 86 89 86 86 88 87 86 85 83 88 91 91 92
85 87 88 86 76 76 72 66 67 68 75 85 85 93 92 95 98 98 98 98 98 99 99 100 98 99 99 96 100 96 98 93 96 95 97 94 96 96 93 93 88 95 96 95 95 94 94 93 94 94 95 95 93 94
83 85 84 87 81 70 67 68 62 79 83 92 86 99 97 97 97 97 97 97 96 97 99 99 98 94 97 96 97 94 95 96 94 98 96 96 96 94 94 94 95 95 96 95 95 94 95 95 94 95 95 95 94 94
87 83 89 90 73 69 62 68 78 84 89 87 89 94 96 96 97 97 97 98 96 97 99 98 98 96 96 96 92 96 87 96 98 98 95 94 95 95 95 95 96 95 95 95 95 95 95 94 95 95 94 94 94 94
84 97 86 90 84 68 67 80 83 86 93 91 98 98 98 98 98 98 99 95 90 98 98 95 95 96 89 92 90 91 96 97 96 96 96 96 96 96 96 95 95 95 95 95 95 95 95 95 93 86 91 95 94 94
96 93 88 87 86 78 86 85 85 80 96 99 97 98 98 99 98 98 96 88 96 87 89 94 88 93 96 94 95 96 95 96 95 95 96 96 96 96 95 96 95 95 95 95 95 94 94 93 91 93 92 93 91 92
93 95 86 83 79 84 82 88 77 92 100 99 98 97 99 98 94 89 91 86 82 80 83 88 92 94 96 96 96 97 97 97 97 96 95 95 95 95 95 95 95 95 94 94 92 92 92 93 92 90 90 87 91 89
86 79 83 78 74 86 89 97 83 82 95 95 92 85 94 93 87 96 85 76 72 79 91 96 99 99 99 99 98 98 98 96 90 92 95 94 94 94 95 94 94 94 92 92 92 91 88 88 86 84 87 88 93 97
76 82 81 82 88 89 94 94 96 91 94 90 76 81 88 80 80 87 87 71 88 94 96 97 97 96 95 96 95 93 94 90 94 92 95 95 96 93 92 93 93 92 92 93 93 93 92 96 89 86 95 98 98 97
90 78 85 82 86 82 88 94 92 94 92 90 92 84 94 97 96 94 83 90 95 97 97 95 95 93 92 94 95 95 95 93 93 91 92 90 93 92 93 94 91 95 95 97 93 98 98 91 89 91 96 100 97 97
75 81 89 81 83 86 96 91 94 89 95 96 87 85 90 96 92 72 98 90 96 94 92 90 91 87 92 92 86 89 87 86 92 93 93 94 94 95 95 97 96 97 98 98 95 97 100 98 98 96 97 96 96 100
69 89 96 95 88 99 92 93 83 82 89 93 94 98 91 95 84 93 99 98 96 92 88 87 82 86 81 81 93 92 87 83 90 93 95 92 96 99 97 99 98 99 96 92 96 100 100 100 100 98 100 100 100 100
81 89 87 94 93 88 94 96 94 92 100 98 97 99 96 90 97 99 100 100 99 100 100 92 84 84 93 99 97 96 91 88 91 97 99 95 98 96 97 96 98 98 96 97 100 100 100 100 100 100 100 100 100 100
97 97 94 98 96 91 96 100 99 99 98 99 100 95 94 95 98 100 97 100 100 100 100 99 97 96 95 91 95 96 99 95 91 97 98 97 93 99 100 100 100 99 98 100 100 100 100 100 100 100 100 100 100 100
99 100 90 71 87 85 96 96 90 95 100 99 99 97 96 100 100 99 98 100 99 100 97 96 90 90 94 97 96 98 97 93 93 94 92 91 91 92 96 99 100 98 99 98 100 100 100 100 100 100 100 100 100 100
91 87 91 96 96 90 100 100 100 100 100 93 90 100 100 98 99 98 99 99 99 95 95 95 94 92 94 96 98 97 99 99 95 95 94 96 98 100 100 100 100 100 100 100 100 100 100 100 100 100 100 100 100 100
98 95 89 100 96 98 99 100 100 97 94 95 99 100 100 96 98 99 98 100 97 92 96 98 100 100 99 99 100 100 100 100 98 100 100 100 100 100 100 100 100 100 100 100 100 100 100 100 100 100 100 100 100 100
98 93 97 99 99 100 100 98 99 100 96 99 97 88 94 97 97 99 98 97 97 100 100 100 100 100 100 100 100 100 100 100 100 99 100 100 98 99 100 100 100 100 100 100 100 98 100 100 100 100 100 100 100 100
92 96 97 97 100 98 97 100 100 91 99 99 100 100 99 100 98 98 100 100 100 100 99 100 100 100 98 100 100 100 99 100 100 100 100 100 100 100 100 100 100 100 100 100 100 100 100 100 100 100 100 100 100 100
97 100 95 99 100 98 98 100 100 100 100 100 100 100 100 99 100 98 99 99 100 100 100 100 100 100 100 100 100 100 100 100 100 100 100 100 100 100 100 100 100 100 100 100 100 100 100 100 100 100 100 100 100 100
96 97 98 99 100 100 100 96 98 100 100 100 100 100 100 99 99 97 98 100 99 99 100 100 100 100 100 100 100 100 100 100 100 100 100 100 100 100 100 100 100 100 100 100 100 100 100 100 100 100 100 100 100 100

GFSWCAN_sfc_rhum_075.txt.gz
RH
86 87 89 91 91 84 84 85 86 86 89 87 84 84 89 86 89 94 96 92 96 100 95 71 70 85 78 80 88 81 93 94 99 96 90 85 87 69 61 60 78 76 78 84 85 89 83 50 58 58 50 59 57 44
89 91 92 92 85 86 90 87 86 84 88 89 86 82 87 91 87 89 98 94 91 97 98 92 80 73 57 61 71 81 72 79 79 84 84 77 85 86 68 68 73 78 75 76 72 66 55 56 53 45 55 57 53 51
92 93 91 86 90 92 91 91 90 88 92 89 86 83 84 88 91 92 97 96 98 100 99 98 94 73 72 68 61 86 75 66 77 71 88 81 79 71 86 74 65 65 63 72 72 52 53 47 47 66 71 75 69 63
93 91 92 92 91 88 89 89 91 89 89 92 88 86 83 84 85 91 97 96 95 98 100 97 75 75 69 70 71 69 68 82 82 87 89 93 83 69 75 62 61 52 60 63 65 52 65 47 71 77 77 72 71 67
94 94 92 92 92 93 93 93 92 91 89 92 89 90 86 86 90 93 96 94 91 92 97 90 82 68 67 74 74 77 74 77 88 89 99 90 83 85 85 82 76 68 65 75 61 85 88 80 74 78 78 80 72 68
92 89 94 93 93 92 94 93 90 91 90 92 92 89 87 90 88 95 100 97 92 93 98 98 83 82 68 72 70 77 81 76 90 89 93 90 85 82 91 83 81 79 76 78 83 80 81 82 76 75 78 75 70 69
91 92 90 92 91 92 92 93 90 92 89 94 92 89 86 92 93 98 94 94 85 89 95 94 90 85 76 80 93 87 87 93 89 97 96 86 88 87 94 95 93 84 78 78 76 82 86 80 89 75 74 71 71 67
92 90 89 87 90 90 90 91 90 88 92 94 91 88 86 82 86 96 96 85 81 93 90 98 97 95 83 99 100 96 99 98 98 98 97 95 94 91 93 88 79 76 72 74 76 78 93 83 80 76 74 72 73 79
90 92 92 93 86 92 92 84 84 91 91 93 92 88 93 96 98 99 87 86 93 92 98 96 97 98 90 99 98 99 98 100 98 100 98 92 95 97 94 86 80 82 85 82 75 74 83 89 87 84 82 84 82 81
88 89 90 93 95 88 90 93 95 94 90 88 89 95 100 99 91 90 94 98 98 97 99 97 97 100 100 99 100 100 96 98 97 97 92 96 94 92 88 79 75 75 77 74 84 83 85 90 94 93 92 94 90 82
87 85 82 82 90 87 90 91 92 91 87 96 99 99 97 85 93 95 100 98 99 99 97 98 97 99 98 97 99 97 98 95 97 96 94 91 88 87 83 80 73 72 74 75 77 82 88 90 91 91 91 90 87 82
87 85 79 78 82 88 89 86 86 91 97 96 92 89 91 92 92 91 98 98 94 96 96 99 99 98 100 92 96 96 96 96 90 94 94 92 90 80 73 76 76 74 76 78 81 83 86 89 90 89 91 89 88 87
88 86 79 77 76 75 77 82 79 83 78 79 73 69 70 83 88 92 98 95 95 97 97 98 99 96 93 91 97 94 96 96 82 92 91 90 88 79 80 76 77 78 79 79 83 84 82 84 81 83 87 89 91 91
86 86 82 73 75 69 70 69 69 67 70 81 83 91 92 96 96 96 94 96 96 96 96 98 99 97 95 94 97 86 96 88 94 93 92 89 93 92 89 89 82 91 91 91 92 92 92 89 93 93 94 95 93 94
85 84 84 79 74 68 68 63 61 77 78 91 85 99 96 96 96 96 96 96 93 94 96 98 94 87 93 93 94 89 89 91 88 92 90 90 92 92 92 92 94 94 95 93 93 94 95 94 94 95 95 94 93 94
85 81 90 88 69 62 62 67 77 79 86 86 89 94 94 95 96 96 96 96 93 94 96 92 93 91 96 90 84 94 81 89 90 91 89 88 91 93 94 93 94 94 94 94 95 94 94 94 94 95 94 94 94 93
84 95 87 89 69 64 64 78 79 81 88 89 98 96 97 96 97 98 97 93 90 95 96 93 90 95 87 90 90 88 93 92 91 92 93 94 95 95 95 95 95 95 94 95 94 94 94 94 92 87 91 94 92 93
96 95 89 86 84 74 82 80 78 71 93 95 95 97 96 97 98 96 96 91 94 86 87 92 80 91 94 92 94 94 94 94 94 93 93 94 94 95 95 95 95 94 94 94 93 94 93 93 89 91 90 91 89 89
93 93 84 75 75 82 79 83 73 91 99 96 95 93 95 96 91 86 90 85 79 73 79 87 90 92 93 92 94 94 94 92 91 91 91 94 94 94 95 94 94 94 93 93 92 89 89 91 90 87 85 79 84 81
84 81 80 77 72 86 84 91 77 76 90 90 86 84 87 87 86 94 86 75 67 74 88 92 94 95 94 94 92 93 93 90 85 89 90 90 90 91 93 90 89 90 87 88 87 88 85 82 77 78 79 80 86 89
76 84 77 79 86 86 89 88 88 82 86 83 73 78 85 80 82 91 85 67 86 92 91 93 94 94 94 94 91 88 91 83 88 83 85 88 90 86 87 88 88 86 86 88 88 85 84 87 83 82 91 95 93 91
89 72 83 81 85 82 88 89 88 91 87 83 88 76 91 95 96 93 75 88 91 93 92 90 90 87 86 93 94 92 94 89 87 85 87 84 87 87 88 89 86 90 87 89 84 89 85 78 84 88 93 96 90 90
74 80 88 81 86 89 100 95 95 85 94 95 85 78 87 91 85 66 96 83 91 90 86 84 87 84 87 89 82 85 84 83 86 88 88 89 87 88 85 84 85 91 92 90 80 81 85 88 90 92 90 89 88 92
68 89 92 94 88 99 92 95 82 82 89 91 91 96 88 89 77 90 97 96 92 88 85 87 80 82 77 77 85 85 81 76 82 84 82 81 86 90 85 84 82 85 84 85 87 90 88 93 95 86 92 94 96 95
79 91 87 94 92 88 93 95 94 89 100 96 97 99 96 84 96 98 97 97 94 94 93 85 79 78 86 92 89 88 85 74 80 86 88 81 87 85 86 84 86 81 81 93 98 99 100 99 97 94 94 92 88 92
97 97 95 98 98 90 96 100 98 99 97 100 100 93 91 93 95 100 92 97 98 96 98 94 91 85 83 79 85 87 90 81 78 86 90 83 79 88 93 92 90 92 86 88 93 94 97 99 98 97 100 98 100 99
99 99 89 71 87 85 97 95 88 95 100 100 98 96 91 99 100 95 92 93 93 96 87 86 79 79 84 87 87 88 86 85 87 86 84 80 81 79 86 90 91 92 87 90 93 90 91 95 96 97 98 100 99 98
95 89 90 94 96 88 99 100 100 100 98 87 86 99 97 94 96 94 93 94 96 88 88 88 86 83 83 87 88 90 94 93 93 89 85 86 90 94 96 97 98 100 97 96 95 97 94 93 95 100 99 95 97 100
97 94 88 100 96 97 99 100 99 92 90 88 98 100 98 92 95 94 94 94 91 85 89 93 100 96 95 95 98 94 94 92 91 100 100 100 98 92 98 100 98 98 100 97 99 99 94 95 97 99 99 99 99 98
99 92 97 98 99 100 100 97 99 98 93 96 91 88 91 95 95 93 94 93 92 96 98 98 100 97 100 99 100 100 100 100 99 97 100 99 96 92 100 100 100 100 100 100 98 90 99 98 100 99 99 100 100 100
91 94 97 98 100 98 98 100 100 95 99 97 98 98 99 98 97 97 96 98 99 99 99 100 99 99 97 100 98 99 95 98 100 100 98 98 99 100 100 100 100 100 100 100 100 100 100 99 98 98 98 97 97 100
98 100 96 100 100 98 99 100 100 100 100 100 100 100 98 98 100 96 98 98 98 98 100 99 100 97 98 97 99 99 100 100 100 100 100 100 100 100 100 99 100 100 100 100 100 100 100 100 100 100 100 100 100 100
96 98 98 99 99 100 100 96 97 100 100 100 100 100 100 98 99 97 97 98 97 96 100 99 99 100 100 100 99 100 100 100 100 100 100 100 100 100 98 98 99 100 99 100 100 100 100 99 97 97 97 98 97 96

GFSWCAN_sfc_rhum_078.txt.gz
RH
86 88 87 88 89 90 90 91 87 82 83 85 89 91 89 88 90 92 92 84 87 98 77 56 55 66 56 66 73 88 95 97 99 96 74 65 66 48 45 43 63 63 72 83 70 79 76 39 37 45 42 38 39 39
90 90 91 92 92 91 87 86 86 87 85 84 86 91 89 83 90 90 98 90 84 95 94 65 58 54 51 57 73 83 66 74 61 69 63 57 67 68 46 53 37 59 44 53 46 45 41 49 42 44 54 57 55 56
91 94 92 91 91 90 88 88 90 90 90 88 85 90 88 84 90 91 97 92 97 98 97 93 95 68 58 60 58 94 75 58 61 47 61 58 66 43 69 51 40 42 39 56 53 36 31 38 43 51 54 57 54 51
93 93 92 92 93 93 92 92 90 90 91 88 87 91 87 86 90 90 97 92 94 98 100 91 64 87 69 64 64 64 59 58 59 65 69 70 65 47 52 41 44 36 40 41 40 33 40 33 52 59 59 54 56 51
92 91 91 90 90 91 92 93 91 91 90 88 92 90 85 86 91 93 94 93 80 78 92 84 76 66 76 74 67 68 76 79 89 96 98 79 57 65 60 61 49 33 39 50 46 63 68 56 53 67 63 59 58 58
90 90 90 88 91 92 92 93 94 91 90 90 92 90 90 91 93 96 100 97 85 87 94 93 64 70 64 69 75 75 84 92 94 97 95 71 65 71 76 55 53 59 61 63 66 66 65 61 58 63 63 60 58 57
91 90 91 90 92 88 90 93 92 91 89 91 93 91 90 91 94 94 86 92 91 89 88 93 84 66 59 66 80 84 90 94 95 97 96 71 71 69 86 73 83 68 65 61 68 73 73 80 88 72 65 60 58 58
90 90 92 90 91 90 91 91 93 92 94 92 92 91 91 92 91 92 84 86 81 85 78 92 90 82 62 80 88 84 96 94 97 97 95 75 68 70 87 85 70 65 64 70 67 65 72 83 81 76 73 72 71 72
89 88 86 90 90 91 91 91 89 91 92 91 91 90 93 94 98 99 82 82 85 74 87 97 91 95 71 82 96 98 96 100 97 100 98 94 99 98 90 80 72 70 72 69 64 56 70 81 79 75 74 77 81 84
89 82 86 90 90 94 95 94 94 92 92 89 88 95 100 98 81 82 92 97 88 86 81 87 81 98 86 100 98 98 100 100 99 99 97 100 92 86 81 70 65 67 66 68 75 72 75 76 79 78 80 81 81 84
86 82 84 89 89 91 89 89 88 82 82 92 97 100 96 82 85 93 100 93 93 95 81 88 81 99 98 100 98 100 100 100 98 97 98 91 83 78 70 71 62 61 63 64 66 66 71 73 77 82 77 77 77 85
82 78 77 80 86 89 90 86 83 84 86 86 92 90 86 92 87 88 96 100 92 88 96 100 99 98 100 94 85 98 99 96 94 86 92 89 82 62 59 62 63 62 63 65 65 70 73 75 77 76 75 79 84 88
85 76 75 76 81 79 78 80 78 71 67 56 54 58 56 74 86 82 92 91 93 95 94 100 100 99 92 92 100 92 97 96 76 94 86 84 73 65 64 62 63 63 64 64 66 67 69 73 72 71 78 82 83 85
86 82 75 75 73 72 67 65 62 56 48 63 74 84 84 87 86 86 85 89 91 94 94 97 92 94 89 93 94 92 96 85 92 87 85 78 81 79 76 73 71 82 83 84 86 85 86 85 89 91 92 93 89 90
85 84 75 72 70 66 64 64 56 48 55 79 73 91 88 88 87 89 88 90 90 92 93 90 85 76 88 89 86 85 83 88 79 84 80 81 82 80 81 82 84 88 90 91 90 91 92 92 91 92 93 93 92 92
82 78 71 70 64 61 60 53 50 51 64 72 80 84 88 91 92 91 92 93 87 91 88 78 86 83 88 78 79 86 72 81 85 83 81 76 84 85 86 88 90 91 92 92 92 92 92 92 92 93 92 92 93 91
81 76 88 63 63 62 59 51 54 64 71 78 91 86 89 88 92 92 92 90 84 92 97 84 84 92 72 78 80 77 87 87 85 85 84 87 90 91 91 91 92 92 92 92 92 92 92 92 91 88 90 92 91 91
77 79 84 82 64 59 54 53 57 60 82 80 86 90 84 87 86 87 85 80 83 78 75 87 66 81 87 83 87 89 89 90 88 87 86 88 89 89 89 90 91 91 91 92 92 92 91 92 89 88 89 90 86 83
82 77 79 74 60 58 56 59 52 76 83 79 79 75 75 78 72 73 76 69 63 61 74 75 80 82 86 83 86 88 86 82 84 83 83 87 86 87 88 89 89 90 90 90 89 86 86 90 87 83 77 66 72 69
79 81 78 75 63 57 59 65 50 62 74 73 62 66 63 68 71 82 76 63 58 63 77 82 86 87 87 86 79 82 82 78 72 78 81 80 81 84 86 83 81 86 82 86 85 87 81 73 65 67 67 68 76 79
73 71 70 59 61 58 61 60 65 61 62 62 59 51 62 62 74 80 75 55 74 77 81 83 88 86 86 84 76 72 76 67 71 70 75 79 80 74 77 80 82 80 80 82 83 75 73 74 70 70 83 87 86 83
65 66 66 61 63 62 65 58 63 61 60 65 64 55 75 83 83 82 57 75 78 83 78 78 78 74 76 83 84 82 84 79 77 72 75 72 75 76 77 78 74 81 74 76 69 77 72 63 70 74 83 86 76 78
68 65 71 70 85 82 88 76 78 65 80 76 62 66 72 77 68 50 79 66 78 77 72 72 77 73 77 79 72 75 74 72 72 76 74 71 66 68 67 68 69 77 76 68 60 66 74 73 79 81 80 77 77 80
61 83 87 84 80 96 86 82 61 67 70 75 74 78 73 72 61 72 82 77 78 70 69 73 65 68 64 62 63 64 62 55 58 63 62 59 63 66 60 61 64 70 66 64 68 75 75 82 78 72 78 78 79 79
73 89 82 89 78 81 83 83 82 74 87 82 84 84 85 66 80 80 82 80 76 80 77 70 65 60 65 71 64 64 65 53 56 62 65 62 67 64 63 60 63 63 67 81 84 84 88 85 83 81 77 78 74 75
92 93 85 84 86 76 77 84 85 87 85 89 89 78 78 78 80 88 72 81 84 81 89 84 79 71 64 59 64 65 65 60 58 64 68 61 62 73 75 75 73 76 70 77 82 81 83 84 82 77 81 81 92 77
93 94 78 61 68 72 87 82 73 81 88 88 82 81 73 80 88 81 78 76 72 77 66 65 59 56 59 63 66 68 66 66 70 66 66 62 64 64 73 77 70 76 72 78 80 77 77 80 80 79 80 82 82 82
81 76 82 88 84 74 89 87 87 90 88 72 69 84 76 77 84 80 77 80 80 71 72 71 63 57 59 65 69 74 76 78 82 75 72 72 72 78 81 80 80 90 83 85 84 85 81 80 80 80 79 79 82 85
85 77 71 93 84 85 90 90 88 80 75 70 83 84 85 76 85 82 83 79 73 71 74 78 86 82 80 78 80 74 80 81 74 76 70 82 85 86 81 82 82 83 84 81 86 80 76 82 83 84 75 83 84 87
89 74 83 87 89 90 92 86 90 90 76 80 69 72 73 85 89 82 82 78 78 85 85 84 87 84 86 84 88 86 87 89 90 87 82 81 84 86 86 86 86 88 88 84 82 76 76 81 88 87 87 86 85 84
75 80 84 82 88 88 90 92 88 84 85 85 83 85 85 88 89 88 86 88 88 90 88 89 89 86 86 88 84 86 88 91 90 84 85 87 88 88 88 89 89 88 87 84 84 83 84 85 83 82 81 81 80 88
86 84 85 88 90 89 90 91 88 87 88 84 89 87 90 85 89 89 91 90 90 88 94 85 86 86 86 90 91 92 98 89 88 88 85 87 88 90 89 87 91 89 88 87 86 86 85 84 85 83 84 81 81 82
83 83 83 88 93 93 93 86 80 88 87 87 91 92 91 85 90 90 88 90 89 88 88 88 92 91 89 86 85 93 87 90 94 95 97 96 92 88 84 85 85 85 80 84 84 85 81 81 83 82 82 84 84 84

GFSWCAN_sfc_rhum_081.txt.gz
RH
81 84 88 88 90 90 91 90 89 90 90 90 90 90 91 91 89 91 85 64 74 89 52 41 40 55 35 69 98 73 90 97 100 99 73 59 62 46 37 35 53 63 79 81 68 82 72 24 26 42 50 40 38 38
84 89 90 91 93 92 90 87 89 87 87 86 84 87 89 92 91 91 98 76 68 83 62 47 44 42 43 51 77 83 54 81 58 66 58 54 71 59 44 52 39 74 43 51 43 41 36 41 52 44 45 46 45 45
89 91 92 92 90 92 92 91 89 87 87 87 87 85 87 90 91 92 97 85 91 93 73 63 66 55 43 53 58 90 76 55 76 48 80 74 75 40 61 45 50 34 40 53 72 42 42 54 48 45 44 46 44 42
91 93 92 90 91 90 90 90 90 90 88 87 88 87 87 91 91 91 98 84 92 97 89 61 38 52 52 53 57 60 62 75 71 86 78 73 69 37 49 41 54 33 44 34 37 38 30 35 45 54 46 44 46 45
94 92 90 91 90 89 90 91 92 92 92 88 89 89 89 91 90 94 95 85 71 54 80 61 56 48 44 63 68 73 84 90 95 97 94 73 52 56 44 50 48 30 47 48 56 60 58 48 48 56 50 52 51 52
92 91 90 90 89 89 92 91 91 93 91 90 89 84 89 91 89 97 100 94 68 76 94 92 50 61 60 65 71 82 84 93 96 98 98 62 48 63 75 62 74 55 51 57 68 56 55 56 65 67 66 58 53 52
92 89 88 87 90 92 91 88 90 93 89 88 93 93 92 90 95 96 93 88 78 82 91 90 78 58 59 70 82 88 84 96 95 97 88 68 69 60 77 76 71 57 52 56 55 57 58 60 80 70 67 63 61 59
90 90 86 90 95 92 92 92 92 89 88 93 92 91 90 90 87 84 80 81 76 93 85 92 88 86 64 90 93 92 98 97 98 97 84 69 63 81 84 75 60 54 51 56 54 53 60 64 65 61 56 57 62 70
91 86 94 94 94 94 92 91 92 90 92 92 91 92 95 95 98 98 82 78 87 85 90 94 89 100 65 77 93 97 97 100 97 100 93 73 70 98 88 68 61 60 62 58 52 48 55 60 61 60 59 62 65 71
86 91 93 93 94 95 94 92 90 90 90 90 89 93 100 98 91 93 93 97 96 83 70 81 79 100 76 85 90 98 99 98 100 98 79 100 91 85 66 57 53 53 52 53 61 64 64 68 68 71 69 70 72 74
81 84 91 90 93 92 89 88 86 83 80 90 97 99 96 84 82 82 100 83 84 85 67 78 80 93 86 95 89 78 96 91 93 91 99 92 87 73 62 59 52 50 51 53 55 59 62 66 70 71 70 70 70 72
74 78 90 91 89 89 85 81 79 81 85 80 93 92 86 93 95 90 93 88 80 93 86 86 87 95 96 97 92 98 100 97 98 96 100 93 84 58 56 56 55 54 56 58 58 63 68 74 78 75 74 75 77 77
79 78 84 88 86 90 84 83 79 76 62 50 53 81 63 76 95 99 95 86 93 90 87 100 100 99 98 98 99 99 100 99 78 99 89 85 74 67 68 61 64 62 63 62 66 68 68 72 76 73 81 84 86 87
80 76 75 75 70 73 74 66 62 54 44 62 80 88 92 90 84 87 92 93 93 91 92 100 98 99 92 94 100 99 93 84 90 89 90 88 81 79 74 73 69 78 79 79 80 80 85 85 88 88 91 92 92 92
79 75 68 65 65 64 61 63 59 43 51 81 73 90 86 89 88 91 93 92 88 86 98 99 87 88 94 98 87 85 92 84 82 88 85 80 83 83 84 84 83 84 87 88 86 88 90 90 91 92 92 93 92 93
79 71 58 66 64 60 60 53 46 45 59 72 82 88 88 94 92 91 93 96 88 91 91 76 90 92 90 82 83 85 71 83 88 88 82 77 85 86 87 86 89 88 88 88 88 88 90 91 91 92 92 92 92 91
79 71 65 62 61 58 60 46 49 59 69 78 89 85 87 87 93 92 90 90 85 94 94 81 91 94 65 77 81 77 90 90 85 85 81 81 82 84 83 83 84 83 85 88 88 88 90 90 89 87 89 92 90 91
64 74 67 59 55 51 45 46 54 58 81 84 85 92 87 89 90 90 89 82 86 73 70 85 60 79 84 82 84 87 87 88 85 83 82 82 82 84 83 84 85 84 85 86 87 89 89 90 86 85 88 88 85 79
72 62 85 76 56 48 52 53 48 73 82 78 78 75 77 79 72 71 76 70 61 58 65 66 77 80 85 80 85 86 86 82 82 80 80 85 85 85 84 83 84 85 86 86 84 78 79 86 82 74 74 69 67 62
83 80 75 70 60 48 54 60 47 59 73 73 64 65 64 71 72 80 73 59 53 59 73 78 83 90 85 85 79 81 82 76 70 77 81 80 79 81 84 80 78 83 76 80 79 81 73 68 60 59 58 59 67 70
66 60 63 50 47 49 53 55 59 56 58 66 52 53 70 66 74 77 70 50 71 72 79 82 86 84 87 84 74 70 74 67 66 71 74 77 77 72 72 75 76 74 74 77 78 74 69 66 60 61 75 81 79 76
51 60 52 49 55 54 59 49 56 52 58 61 58 53 74 82 81 77 53 71 74 83 77 76 76 71 71 79 79 77 78 73 71 66 67 69 72 71 72 74 71 78 72 72 63 71 65 55 61 66 75 78 68 72
65 58 64 64 90 79 86 68 74 56 75 66 57 65 73 76 62 45 74 61 76 74 67 66 71 67 72 73 65 66 66 64 66 69 66 63 59 61 60 58 61 69 67 58 52 62 69 64 70 74 72 70 71 74
60 89 97 91 78 90 79 76 53 57 62 69 66 72 70 71 57 67 77 74 75 62 63 66 58 60 56 54 55 54 49 44 49 53 52 50 53 54 51 52 57 60 55 52 58 67 68 75 70 66 71 72 72 73
68 87 88 88 77 79 79 80 74 68 78 71 76 75 78 62 75 74 75 78 75 76 70 61 56 53 59 62 55 56 51 44 47 51 54 53 58 54 52 49 53 53 58 74 75 75 77 75 74 72 69 72 65 63
84 87 82 78 81 72 67 77 77 77 75 78 79 69 77 76 75 80 66 77 84 79 84 79 73 61 53 49 51 52 55 52 48 53 56 52 54 67 68 68 66 68 61 71 74 73 71 71 72 62 72 72 78 74
84 86 70 54 58 62 78 74 62 72 76 78 77 77 71 74 81 76 74 67 68 71 61 58 52 50 52 54 56 58 57 59 65 57 55 52 55 57 69 74 64 70 61 68 71 70 70 70 71 70 71 72 71 72
74 71 80 83 78 66 79 76 76 79 79 61 60 73 70 73 78 81 74 74 72 62 62 60 53 49 51 57 62 67 70 71 74 66 64 63 62 69 71 74 74 80 74 80 75 74 72 71 71 70 69 72 73 73
78 69 67 85 76 78 81 80 78 71 63 64 77 75 79 71 78 78 78 71 69 69 72 75 79 76 73 68 70 68 72 73 63 60 52 73 77 81 70 72 73 73 74 74 78 70 62 72 73 76 70 75 74 76
82 69 76 78 81 84 88 81 87 82 64 67 63 69 75 84 87 77 76 74 75 81 80 79 80 79 81 80 82 79 80 80 81 79 77 76 79 78 77 76 76 77 77 75 74 71 70 73 76 79 79 75 76 75
66 74 76 74 84 87 89 87 82 79 82 77 76 81 82 86 86 82 80 82 82 83 83 84 81 77 77 77 76 78 82 85 83 79 76 77 77 77 78 78 78 78 76 75 74 74 75 76 75 74 73 72 71 75
79 75 79 82 87 84 88 82 81 85 82 83 86 81 84 81 84 85 86 84 84 82 84 77 81 83 81 84 84 87 80 82 80 80 63 76 78 76 76 75 80 78 76 76 75 76 74 74 76 74 75 73 73 74
78 76 75 79 86 85 84 78 68 80 76 78 83 82 84 79 84 87 83 87 92 83 81 88 87 87 83 76 78 83 75 83 86 86 82 84 83 81 78 78 77 78 72 77 76 76 74 73 76 74 75 76 76 76

GFSWCAN_sfc_rhum_084.txt.gz
RH
74 82 82 83 87 90 91 91 91 91 91 89 89 88 91 89 89 92 78 68 79 92 63 48 41 51 44 46 76 73 98 91 99 99 95 63 71 56 51 42 52 59 80 81 71 73 75 28 29 45 57 49 45 45
81 83 84 88 90 91 92 91 91 90 89 91 90 91 90 92 91 91 98 66 68 86 57 46 45 42 45 53 93 85 90 79 59 72 60 62 87 75 53 54 38 65 48 58 49 50 35 46 54 47 45 47 48 48
83 85 89 90 92 92 91 91 91 90 90 89 88 88 87 91 92 92 97 78 90 95 72 61 58 45 39 46 68 92 93 78 84 83 95 82 82 50 72 51 56 63 41 84 62 67 73 83 57 46 44 50 45 44
86 90 94 93 91 89 89 90 90 91 90 90 87 86 85 88 91 92 98 86 92 94 90 61 40 52 39 44 45 59 65 66 68 88 98 91 96 46 61 47 49 56 66 53 56 65 83 84 70 62 48 47 48 46
90 93 92 91 90 88 89 90 89 89 90 90 89 88 88 86 89 94 95 87 83 58 80 62 42 35 38 47 54 62 74 76 93 99 100 95 56 61 55 54 72 70 77 84 97 68 82 86 62 56 57 55 54 52
91 92 90 89 89 89 88 92 92 92 91 91 89 87 87 86 90 98 100 95 74 63 95 98 59 40 47 52 62 64 76 83 96 98 97 69 52 72 95 73 79 53 54 56 65 54 57 58 64 59 62 61 60 58
92 90 90 88 91 93 94 91 86 92 92 90 88 87 88 90 92 93 85 79 79 82 99 99 95 52 52 58 77 80 76 95 96 98 95 77 79 77 90 97 96 59 53 52 50 53 58 62 76 60 55 54 56 58
92 90 88 94 94 95 92 91 89 92 91 89 89 88 89 88 84 86 70 81 74 96 88 96 95 83 64 91 92 80 99 98 98 97 85 72 72 91 99 72 58 55 53 55 53 48 59 54 53 54 53 56 59 65
90 90 93 93 94 93 92 91 92 92 92 93 91 92 94 95 98 95 82 77 79 82 93 98 92 100 76 94 96 99 98 100 98 100 95 79 91 96 94 73 61 57 59 57 51 48 52 58 58 58 61 67 72 75
87 91 93 96 94 94 94 92 92 92 89 82 86 95 100 98 87 84 94 98 97 92 91 90 80 100 79 88 90 98 99 99 100 93 78 97 94 76 64 57 54 54 51 52 61 67 65 69 70 72 76 74 76 78
82 93 93 92 90 91 91 89 86 83 88 95 98 99 97 84 88 94 100 100 99 99 76 76 79 94 87 96 94 87 94 93 88 94 93 95 89 83 62 59 54 52 52 53 54 63 66 71 78 83 77 75 74 76
80 92 92 91 88 85 84 87 90 93 84 84 95 94 93 92 92 89 94 84 71 77 78 88 95 84 94 94 87 89 94 91 91 94 99 93 89 65 62 66 58 57 62 65 62 71 75 79 85 81 80 82 84 82
89 92 92 92 85 83 85 88 82 81 70 64 71 81 69 79 98 89 86 87 92 98 95 97 96 90 93 98 100 94 100 98 84 98 90 91 79 67 67 67 66 65 66 65 69 70 71 74 78 78 83 86 83 89
84 85 87 88 88 89 72 62 62 57 56 74 85 84 90 83 88 92 93 95 97 99 100 99 96 100 100 92 100 88 95 90 89 90 91 90 88 86 79 72 72 84 83 81 82 82 86 88 92 93 94 92 91 94
75 75 71 69 75 71 64 62 60 55 60 80 73 88 86 88 89 95 96 91 92 98 100 98 94 92 95 91 85 87 87 87 86 92 91 89 86 80 84 84 86 87 91 89 86 89 92 92 91 93 93 93 93 94
74 68 61 63 62 58 59 53 48 49 61 72 80 89 95 88 95 92 98 96 96 99 94 86 94 93 92 79 75 88 83 89 92 90 85 77 82 84 85 84 87 88 88 88 87 86 87 91 91 92 92 93 94 93
82 64 70 64 65 63 59 48 51 59 67 75 88 87 92 91 96 96 95 93 87 96 94 89 81 83 64 78 80 79 91 90 84 86 82 85 86 86 88 88 91 90 89 89 88 87 89 88 89 84 88 92 88 89
75 60 66 64 54 51 44 46 56 59 81 85 87 94 88 93 94 93 89 86 87 72 70 80 62 76 88 86 88 91 92 93 92 90 88 88 89 92 89 88 90 88 88 89 87 88 87 89 83 83 85 86 85 80
71 56 68 63 56 48 54 56 51 73 84 83 85 80 79 84 78 76 78 71 63 58 65 68 80 86 90 83 87 88 87 84 87 82 82 86 85 85 84 85 85 86 88 88 82 79 80 86 83 78 76 70 69 64
83 84 80 65 58 50 58 61 49 64 80 76 70 69 71 77 76 82 77 63 56 61 74 80 87 93 90 90 82 81 79 75 73 83 84 82 78 78 87 83 80 80 79 83 82 83 75 71 64 64 65 69 74 76
56 56 64 51 48 48 54 58 60 61 66 70 62 62 76 70 76 78 72 54 72 74 82 83 86 85 90 86 76 71 80 76 86 79 74 81 79 75 75 76 77 79 81 84 81 80 78 71 63 66 81 85 84 78
50 65 51 52 59 56 61 51 57 55 64 64 61 63 84 87 81 76 56 72 75 88 79 76 74 73 74 82 80 76 76 72 70 66 72 76 83 78 76 78 74 80 74 74 68 76 68 59 66 69 79 84 87 85
66 56 63 67 87 76 86 64 71 60 76 66 60 67 74 75 62 49 74 63 80 72 67 69 72 69 76 76 66 65 66 66 70 71 68 64 60 62 60 59 62 69 68 60 56 67 73 70 71 77 75 75 76 79
63 92 98 87 75 87 81 73 54 57 60 65 65 72 70 71 56 67 77 78 74 62 64 68 61 63 58 54 54 50 47 45 50 53 51 50 54 55 51 54 58 62 57 54 62 71 72 76 77 68 74 74 78 76
69 85 90 87 79 76 76 75 69 66 77 68 72 74 77 65 73 72 77 82 76 77 70 62 58 59 63 63 57 54 48 44 49 53 54 52 57 54 53 50 55 53 60 76 78 77 79 77 74 72 68 75 71 72
85 84 79 76 78 70 69 79 77 76 72 77 75 67 73 72 73 78 70 83 87 80 86 81 72 60 53 49 52 55 56 50 46 58 58 53 56 70 70 66 69 81 65 76 73 73 72 69 73 69 73 78 82 77
82 83 66 53 56 62 77 69 61 71 73 77 77 79 73 75 81 80 83 72 78 79 69 61 52 52 55 60 57 58 60 64 67 59 53 53 58 61 78 89 86 80 62 70 71 74 73 71 70 71 73 71 72 76
71 70 84 81 78 68 79 74 74 77 74 58 61 74 75 75 80 80 80 77 77 63 63 58 53 52 56 62 66 71 73 74 75 69 66 66 64 71 75 76 75 85 78 84 84 76 76 74 73 71 72 76 82 77
77 67 69 87 75 76 80 79 77 69 64 63 76 77 78 74 79 86 76 74 72 70 74 78 80 77 72 69 73 70 72 74 73 71 66 74 88 86 72 74 74 75 76 84 82 76 75 83 82 88 83 81 82 81
78 64 75 76 80 83 89 80 84 79 65 69 65 75 83 91 88 75 77 80 80 84 81 80 81 80 82 81 83 80 79 80 83 85 86 88 91 79 76 75 75 78 77 77 77 79 78 77 81 88 92 88 80 82
64 70 73 73 82 85 85 84 87 83 82 80 81 83 82 87 86 88 89 84 83 84 82 83 84 78 78 79 80 80 92 89 84 83 76 77 76 81 82 79 80 80 77 76 78 78 80 80 78 79 76 77 80 80
74 74 77 81 86 90 93 84 83 87 85 84 89 85 85 82 85 86 86 86 84 86 82 79 82 90 84 83 87 87 85 83 81 78 71 78 82 78 76 74 76 76 78 78 77 77 77 76 80 79 80 78 81 83
80 78 77 80 85 80 84 79 70 83 77 83 89 89 90 82 88 89 80 84 94 84 90 90 89 86 81 80 81 82 83 88 88 89 87 92 92 93 86 78 78 77 76 78 78 77 76 75 78 80 81 83 82 83

GFSWCAN_sfc_rhum_087.txt.gz
RH
67 67 73 79 82 84 86 90 91 90 91 91 91 89 88 87 88 94 91 68 83 96 70 65 61 73 69 90 98 89 94 96 95 98 98 90 90 76 71 61 82 74 86 95 90 90 83 47 43 65 76 61 55 58
65 69 76 81 85 86 89 90 91 92 92 92 92 92 89 89 87 91 98 73 73 90 76 64 57 53 57 63 94 97 98 98 91 92 89 90 97 92 94 94 73 94 68 83 70 72 86 79 73 72 56 61 60 63
66 75 80 86 89 92 93 92 92 90 90 91 91 89 91 90 90 94 97 83 91 98 86 79 67 54 49 58 81 97 96 87 91 94 98 97 96 82 99 83 85 94 73 74 73 90 89 89 78 54 60 59 55 57
70 79 86 90 92 94 92 90 90 89 90 90 90 90 90 90 91 92 98 93 93 97 98 78 51 59 44 44 66 84 77 85 86 96 98 96 98 80 89 75 78 95 85 83 93 92 90 90 88 75 59 57 56 56
77 85 89 91 92 91 90 89 88 89 89 89 90 90 88 86 87 94 95 92 83 73 94 82 60 52 52 54 57 72 84 89 97 99 97 98 95 89 85 85 99 71 97 99 99 98 94 94 78 63 65 65 62 67
83 86 90 92 91 89 89 90 91 92 91 89 89 90 87 84 87 99 100 96 80 67 98 99 86 78 58 63 65 71 89 94 95 98 98 97 85 95 98 99 96 73 60 70 95 90 75 71 64 58 62 64 65 70
86 91 91 91 89 89 93 94 92 90 86 87 90 90 85 84 95 98 95 92 85 90 99 99 92 76 66 72 84 87 86 94 96 97 99 95 87 87 99 98 98 98 73 66 57 69 69 64 68 61 61 60 64 64
90 93 92 89 93 93 93 94 90 88 93 92 91 88 84 85 84 94 94 85 82 97 96 99 97 99 77 94 97 90 98 98 99 98 97 94 90 95 97 77 61 71 64 64 63 60 64 61 60 64 65 69 70 75
93 90 88 92 95 95 91 92 90 89 91 93 92 91 93 96 98 98 87 80 90 94 98 98 97 98 89 96 99 99 98 99 98 100 98 94 96 97 96 85 68 63 63 62 56 61 63 70 72 72 70 74 81 86
91 90 94 94 93 95 94 94 90 93 93 88 87 95 100 99 90 89 97 98 98 95 97 99 96 100 96 100 100 99 100 99 99 94 94 97 98 94 79 63 61 61 60 61 77 80 77 78 85 86 85 82 84 86
88 94 92 95 94 92 90 88 87 87 88 96 99 100 96 88 95 98 99 96 94 98 95 96 95 100 95 100 100 98 99 100 100 99 99 97 94 94 76 69 63 67 67 70 72 80 82 89 89 85 83 82 82 82
92 92 91 91 90 86 88 89 90 95 95 93 95 97 95 96 98 98 96 98 97 95 98 96 99 97 100 96 99 99 97 98 98 99 99 96 96 79 80 72 72 73 72 75 73 77 81 85 86 87 87 88 90 87
93 93 86 88 94 91 81 85 79 80 86 77 82 96 94 97 99 94 99 100 100 100 100 100 99 99 98 97 99 92 98 94 99 98 98 97 92 82 78 74 75 74 75 75 78 77 77 80 80 78 85 87 87 92
92 91 90 92 92 71 66 69 70 66 75 88 91 92 94 94 97 98 98 98 100 99 100 99 99 99 100 96 100 91 96 99 98 98 99 97 98 95 89 83 88 96 94 94 94 94 95 94 96 95 96 95 92 95
83 85 87 86 76 64 64 66 64 68 80 91 86 97 96 98 98 99 99 97 99 100 100 99 98 96 97 96 91 91 89 97 97 99 99 98 96 96 95 92 97 97 97 96 97 97 97 96 95 96 96 95 94 94
78 77 67 69 68 59 62 64 66 71 86 86 91 97 98 96 97 96 98 99 99 99 100 98 98 97 98 96 88 97 96 99 99 98 97 97 97 96 97 96 97 96 96 96 96 95 95 95 96 96 95 94 95 94
84 78 70 67 66 62 61 67 72 73 84 86 98 98 97 97 98 99 99 99 99 99 99 93 89 94 91 91 95 98 99 99 97 97 96 95 95 97 97 97 97 96 97 98 98 97 98 96 96 90 95 98 93 93
79 78 70 70 67 61 64 68 80 76 93 96 97 98 98 98 98 98 98 90 95 95 93 90 85 90 99 96 99 98 97 97 97 97 97 97 96 97 97 98 97 96 97 97 96 96 95 94 93 94 94 94 93 89
64 66 72 68 69 68 72 75 71 85 97 96 98 97 96 98 94 92 95 93 90 87 92 92 92 98 99 98 97 98 97 98 98 99 99 97 95 96 96 96 95 96 96 97 94 95 96 96 96 96 96 91 89 85
70 70 72 70 64 72 72 83 75 84 96 96 91 92 92 97 93 95 90 82 74 84 91 95 98 98 97 97 94 95 96 93 93 98 99 98 97 95 97 97 97 95 95 96 96 95 92 87 79 85 89 92 93 96
64 67 69 66 70 73 77 84 81 85 88 91 82 81 92 92 95 95 93 75 90 95 97 97 97 97 94 94 88 89 94 91 96 92 97 98 98 97 96 96 96 96 98 98 98 94 88 91 94 90 96 99 98 97
68 70 78 77 82 76 80 75 80 78 84 86 87 86 97 96 95 95 84 89 97 97 97 95 95 92 94 96 97 93 93 89 89 91 94 93 97 96 97 98 96 96 96 96 94 95 96 94 97 97 98 97 96 96
74 74 89 88 85 86 95 86 87 80 91 88 88 86 93 95 89 71 93 83 98 95 88 87 86 83 92 91 81 82 84 85 94 95 92 94 94 93 91 90 89 95 93 94 91 93 95 96 95 97 95 96 95 94
77 95 94 93 85 95 92 87 76 81 87 88 83 86 86 92 84 91 97 98 97 88 81 81 78 81 76 65 76 76 76 70 78 84 90 85 85 90 87 90 91 94 95 94 93 95 96 93 93 94 93 92 93 97
81 85 92 95 90 90 90 88 84 88 91 84 87 92 89 92 93 93 94 99 93 96 94 84 76 76 82 91 88 83 71 76 75 82 84 90 92 90 87 84 87 87 91 98 97 97 96 95 96 94 95 96 95 100
95 91 89 88 91 87 90 93 91 91 92 91 91 91 94 93 90 99 95 95 93 96 97 96 96 88 80 71 77 85 90 85 77 84 88 81 88 98 99 97 96 97 95 98 98 97 93 94 91 85 98 93 82 85
95 94 85 70 84 84 92 90 87 91 89 93 96 96 92 94 100 100 95 94 93 96 92 92 85 74 80 80 81 85 88 85 85 79 82 83 87 92 97 100 100 99 97 97 98 97 97 90 93 89 93 97 96 94
87 84 97 94 92 84 92 92 91 91 92 89 90 96 95 94 99 98 98 92 86 78 80 80 75 75 81 87 92 93 96 94 91 90 91 93 96 97 94 96 96 95 97 97 98 98 96 99 99 98 99 98 97 98
94 87 84 90 88 91 95 98 97 93 89 93 95 98 98 98 97 95 91 85 83 86 91 92 96 92 92 94 97 97 96 98 92 84 89 99 100 98 98 97 98 98 98 95 94 99 90 97 99 95 99 100 98 97
92 88 90 90 94 97 97 98 96 95 92 94 94 90 92 95 96 93 93 92 91 94 96 96 97 96 98 96 99 99 97 98 99 100 99 100 100 98 99 98 99 96 97 97 99 98 98 99 100 100 99 99 99 99
87 91 88 91 97 96 96 89 86 85 85 86 88 89 98 97 97 96 96 93 92 94 96 97 96 96 95 97 96 98 100 99 98 97 97 99 98 98 100 100 99 99 98 97 97 99 95 96 98 98 97 96 97 99
92 89 92 95 97 96 97 94 95 92 94 94 99 95 98 97 99 98 97 97 96 96 96 94 95 98 97 96 95 94 93 97 100 100 100 98 99 100 97 97 98 98 94 95 99 97 95 96 97 98 100 100 97 98
88 88 87 93 97 98 97 96 94 96 96 97 97 97 98 97 99 100 97 97 97 94 95 95 94 95 94 94 96 97 95 98 100 100 100 100 100 100 98 99 100 100 99 99 99 98 98 97 99 98 97 99 100 100

GFSWCAN_sfc_rhum_090.txt.gz
RH
68 69 68 70 69 71 74 78 84 87 90 90 90 91 91 88 86 93 96 72 82 98 72 70 70 83 81 98 99 94 91 93 99 97 95 93 96 78 80 65 76 82 95 90 92 92 89 76 63 87 81 66 65 67
70 72 68 68 74 76 79 85 88 90 91 91 89 88 89 88 86 90 99 75 71 94 80 67 62 60 64 76 94 94 98 100 96 98 97 97 97 95 93 96 85 98 86 89 76 77 87 76 80 71 65 75 73 73
72 68 65 67 76 79 84 89 92 93 92 90 90 87 88 90 89 90 98 87 94 98 87 80 67 56 54 66 78 91 96 92 96 96 99 97 98 95 98 97 100 99 90 92 87 95 87 90 81 71 74 76 67 64
65 62 63 71 78 86 90 92 94 91 88 90 89 89 88 88 89 90 98 94 94 98 99 80 60 70 49 58 83 81 76 80 86 96 100 98 98 87 99 95 99 97 95 99 99 96 95 94 89 83 72 65 68 69
62 62 68 79 84 88 90 92 91 90 91 90 90 89 87 87 87 93 97 94 88 78 96 86 72 59 56 60 60 71 84 90 98 98 98 95 97 97 96 98 99 93 99 100 99 100 98 99 86 84 82 78 71 71
65 66 78 84 87 90 91 91 90 89 90 90 90 89 90 89 87 98 100 98 87 96 98 99 88 84 68 71 71 69 88 97 96 91 92 87 84 96 100 99 98 94 97 98 100 99 98 88 73 64 67 70 67 70
69 75 82 88 90 92 91 90 90 92 94 94 94 90 90 89 95 98 94 93 87 95 99 96 90 86 77 81 88 90 94 95 94 94 97 92 92 96 99 98 97 99 98 99 95 90 78 70 76 67 67 66 68 69
76 79 86 91 92 90 90 92 94 94 94 92 89 91 89 90 94 97 96 88 86 98 98 100 97 94 86 95 95 95 97 96 97 94 95 96 97 95 97 88 70 84 94 78 75 83 82 69 67 70 68 70 77 82
81 86 92 92 90 94 95 95 93 88 90 88 88 92 96 97 99 100 89 85 93 96 96 93 97 96 94 98 98 98 98 99 98 99 98 97 95 97 96 86 74 72 75 73 67 67 70 81 78 76 76 79 81 85
87 93 93 95 94 92 92 88 89 92 95 91 91 97 100 99 92 90 98 99 100 98 98 97 97 99 99 95 100 99 100 99 100 97 97 96 97 95 77 69 72 72 72 72 75 79 73 84 84 81 81 79 84 86
92 93 94 95 95 94 94 93 91 86 86 97 99 100 98 84 95 99 100 98 98 95 98 98 98 99 99 99 98 99 99 99 99 99 99 96 93 92 78 77 76 74 73 74 76 80 84 84 85 81 78 77 77 81
91 94 94 93 93 93 94 92 90 95 97 93 94 95 98 98 99 92 91 92 91 94 99 98 94 98 100 98 99 98 99 99 98 99 96 98 96 87 74 76 77 74 74 75 73 78 82 81 82 79 77 82 86 87
95 94 94 87 84 82 78 88 84 81 78 80 90 99 89 96 98 93 93 97 99 99 99 100 99 100 97 98 99 99 98 98 99 96 96 98 90 81 79 77 80 76 74 74 78 75 76 80 80 77 83 88 89 93
93 96 87 83 70 76 77 72 69 75 75 86 86 92 93 96 99 100 99 99 99 100 98 98 99 99 100 98 99 92 96 96 97 98 98 98 97 97 91 82 85 95 95 95 97 95 96 94 96 96 96 96 95 96
94 94 93 86 66 70 69 66 66 77 82 92 89 99 98 97 98 99 99 97 99 100 100 97 97 95 98 94 94 91 89 100 98 98 99 98 98 97 96 95 97 98 99 99 99 98 99 98 97 96 96 96 95 96
80 77 83 85 68 62 62 66 73 77 87 88 91 96 98 95 97 98 98 99 99 99 99 96 99 95 98 96 89 98 94 98 97 100 99 98 99 99 99 98 99 98 97 98 98 97 96 97 99 100 98 97 98 96
79 81 69 71 67 66 70 71 77 83 90 90 98 99 99 98 98 99 99 98 99 97 98 94 93 96 91 95 98 98 98 98 97 98 98 97 98 100 100 99 99 98 99 98 98 97 98 97 97 94 98 100 94 94
80 75 71 72 68 67 71 76 83 83 96 98 97 99 100 100 98 98 96 96 96 96 93 93 84 92 100 98 100 98 98 97 98 98 98 99 99 99 97 100 100 98 99 99 97 99 98 98 97 98 96 96 95 94
77 74 69 65 69 73 76 81 77 95 99 99 99 98 99 99 94 92 96 92 95 90 88 92 94 99 99 99 97 100 100 98 97 100 100 99 98 98 100 99 98 99 98 98 97 98 98 97 97 96 93 92 94 88
71 69 69 66 65 75 75 86 82 87 98 97 95 96 99 99 98 95 87 82 80 87 93 96 99 99 99 100 99 95 96 94 93 98 100 100 100 98 98 97 98 97 98 98 99 96 96 94 92 92 93 92 96 98
69 69 70 72 76 78 82 86 88 92 93 94 91 88 97 92 95 95 94 80 91 98 98 99 98 97 96 98 97 92 98 89 97 96 97 99 99 97 99 98 97 98 98 98 98 96 96 98 98 93 98 100 100 99
72 72 83 78 84 81 83 84 86 88 90 94 93 94 98 97 97 97 88 93 98 99 99 98 98 95 93 95 94 93 97 91 93 96 97 96 98 98 99 99 97 99 99 99 93 97 99 99 97 98 99 100 99 98
78 82 92 84 86 86 90 91 90 83 92 94 95 92 95 95 90 71 96 93 99 99 96 94 95 89 91 94 83 84 87 84 93 95 93 95 93 96 93 94 96 95 98 99 93 93 96 100 97 99 100 98 96 98
78 95 92 92 89 98 92 88 82 83 90 93 90 95 88 92 87 93 99 100 99 96 91 86 84 86 78 68 79 84 79 72 78 88 95 81 89 97 91 94 95 98 96 93 97 99 96 97 100 97 100 100 100 99
74 85 90 96 94 90 92 92 92 88 94 92 92 96 89 94 96 98 99 99 99 99 95 84 84 86 83 97 94 88 86 74 78 85 94 96 96 94 92 89 95 98 98 98 98 100 100 100 100 99 99 99 94 100
91 90 87 95 95 88 92 96 94 94 94 94 93 95 96 94 96 100 96 98 99 97 98 94 94 86 86 78 86 90 96 94 77 89 97 94 97 96 97 98 99 98 98 100 99 96 98 100 97 97 100 95 90 96
98 98 92 81 88 86 93 94 87 90 95 96 97 100 93 100 100 98 99 98 97 99 96 93 80 82 90 93 88 93 94 90 89 88 92 91 95 97 97 97 100 98 98 97 99 100 97 97 96 97 99 100 98 98
96 92 94 96 91 89 95 96 96 98 96 93 88 98 98 95 98 98 98 94 92 88 88 86 80 82 87 90 91 92 94 94 92 92 91 96 97 98 96 99 99 99 100 100 100 100 100 99 100 100 100 100 100 100
97 92 85 92 91 94 99 99 100 99 95 98 97 100 100 98 98 96 95 92 86 84 89 93 99 94 95 97 98 97 99 97 98 100 100 100 100 100 100 100 100 100 100 97 100 100 100 99 98 96 98 98 99 100
93 92 91 96 97 99 98 98 99 99 96 99 97 90 93 96 96 94 90 91 91 94 99 91 99 94 98 96 100 99 99 100 99 94 99 100 99 99 100 100 100 100 100 100 100 100 100 98 99 100 100 100 100 100
94 92 94 98 100 98 98 94 87 89 97 95 97 98 99 97 97 96 98 98 93 92 92 98 100 99 96 98 99 100 100 98 100 100 98 99 100 100 100 100 100 100 100 100 100 100 100 100 100 100 100 100 100 100
96 96 96 100 98 97 98 98 99 99 99 99 99 100 98 96 99 98 97 98 96 97 100 96 97 100 99 98 98 98 93 99 100 100 100 100 100 100 100 100 100 100 100 100 100 100 99 100 100 100 100 100 100 100
93 96 99 99 100 100 97 98 99 96 100 98 97 99 98 97 99 97 97 98 97 94 96 98 96 97 96 96 96 98 97 99 100 100 100 100 100 100 99 100 100 100 100 100 100 100 100 100 100 100 100 100 100 100

GFSWCAN_sfc_rhum_093.txt.gz
RH
61 69 67 70 72 67 68 68 71 74 81 85 88 90 89 90 87 94 97 73 85 99 80 73 68 77 92 91 96 92 89 92 96 98 96 92 96 80 83 68 79 84 97 98 93 93 90 81 76 86 84 78 76 76
67 68 69 73 72 62 67 68 72 79 85 89 90 90 90 91 87 88 99 75 68 97 82 77 66 65 68 79 90 92 96 98 97 99 97 97 98 96 92 93 84 96 87 96 81 80 86 83 87 82 78 81 78 76
66 67 71 73 63 64 69 71 78 84 88 91 91 89 86 87 90 89 97 87 96 100 94 90 73 56 60 68 71 89 94 93 97 96 100 98 86 96 98 96 93 96 96 100 96 94 93 93 86 81 82 87 79 72
68 69 71 67 63 64 70 78 85 90 92 92 87 83 83 85 87 91 99 94 94 99 99 82 64 73 55 63 79 78 74 85 89 97 99 96 98 87 91 93 96 98 97 100 100 98 96 96 95 95 95 76 79 82
68 70 74 64 63 68 76 82 89 91 92 91 87 83 85 86 85 93 98 95 88 82 96 88 76 69 64 62 77 85 86 88 97 97 98 98 96 94 96 99 96 98 99 99 99 100 99 100 97 94 95 93 72 71
63 73 72 68 64 76 82 86 89 91 91 90 90 88 89 86 85 99 100 97 85 94 100 98 84 86 77 73 70 78 85 93 96 96 93 81 73 97 99 96 96 98 98 98 100 100 100 100 90 81 79 73 68 70
70 73 69 68 74 82 87 89 91 91 90 90 89 90 90 90 96 98 97 93 89 94 100 99 89 84 80 81 88 90 92 95 95 94 96 93 92 96 98 96 96 98 95 96 98 98 92 91 90 72 70 70 72 70
73 69 68 76 83 87 89 92 91 90 90 90 91 92 90 90 92 97 97 88 85 98 98 99 97 90 85 95 96 95 98 96 94 96 94 96 98 98 96 85 84 80 81 89 94 77 81 75 72 73 71 72 78 80
70 70 79 84 86 91 92 92 92 92 92 93 92 94 98 99 99 99 90 87 96 96 96 92 97 94 90 94 96 98 98 99 94 99 99 97 94 98 96 87 86 87 85 77 70 70 73 82 80 77 75 76 78 79
72 81 83 89 93 94 95 94 92 92 87 87 96 98 100 99 93 93 98 100 100 99 98 96 96 99 94 94 98 99 100 97 98 97 97 96 98 95 91 83 79 79 79 73 74 76 75 83 83 79 79 78 80 83
76 82 91 93 94 94 93 91 88 84 85 97 100 100 97 85 95 99 99 98 100 98 98 96 95 98 99 99 94 98 97 94 96 97 98 98 95 94 85 79 75 72 73 76 79 82 82 85 84 80 78 76 77 80
87 90 93 95 95 94 89 85 86 94 98 95 95 95 95 97 100 97 98 98 90 93 96 98 99 99 100 100 99 99 98 99 98 99 97 98 95 84 78 79 78 74 72 74 75 80 80 78 82 80 80 82 86 86
94 95 92 91 92 91 87 86 86 82 76 83 93 98 96 98 98 84 98 90 96 99 99 100 99 99 100 100 100 99 99 98 95 96 98 99 92 84 82 77 79 74 73 73 76 73 74 79 80 75 84 88 88 93
88 81 79 87 92 90 86 86 81 77 78 86 85 94 94 98 98 100 98 96 99 99 98 98 99 99 98 98 99 93 97 94 98 97 95 97 96 97 88 81 82 94 94 93 95 94 96 95 98 97 98 99 96 99
81 78 78 82 82 83 78 74 69 79 85 93 88 100 99 97 98 99 99 98 99 100 99 97 97 94 98 94 97 94 94 100 97 95 98 98 97 95 96 94 96 97 98 98 97 98 100 98 98 99 99 98 97 98
86 89 94 74 71 74 72 68 73 76 89 89 92 95 98 96 98 98 98 99 99 100 99 96 95 93 97 96 89 98 94 95 96 99 99 97 98 98 97 95 96 97 97 99 98 97 97 97 98 100 98 98 98 98
85 92 94 84 73 72 69 72 82 87 91 90 98 98 98 98 98 98 98 98 98 96 97 94 92 94 87 94 97 98 95 96 98 99 100 98 98 100 100 100 99 97 98 98 98 97 99 98 97 95 97 98 94 95
89 94 84 73 66 70 75 78 83 84 96 98 97 98 98 98 98 98 98 93 94 94 91 95 84 92 98 95 99 98 99 99 100 99 100 100 100 100 98 99 100 98 99 98 96 97 98 100 98 97 94 96 94 94
78 80 70 68 72 75 77 81 79 96 99 99 98 99 98 99 93 92 94 93 97 93 90 93 94 98 99 99 100 100 100 99 98 100 99 100 98 97 100 100 100 100 98 99 98 98 98 97 96 95 93 92 93 90
74 70 66 68 67 78 79 91 83 88 97 97 94 97 98 99 97 96 89 85 84 87 92 96 99 98 97 100 98 94 97 96 95 99 100 100 100 99 100 98 99 99 97 97 98 96 97 97 92 94 95 95 96 96
70 72 77 72 79 79 84 89 92 91 91 94 92 85 96 92 94 95 92 79 91 98 98 99 98 99 100 100 92 91 94 86 96 96 98 100 99 99 100 100 97 99 99 99 99 99 98 100 99 96 100 100 100 99
74 73 80 78 84 80 85 87 89 91 92 93 96 91 97 96 96 97 88 94 99 99 99 98 99 98 96 98 100 96 95 95 96 97 97 96 98 100 100 99 98 100 98 98 96 99 100 100 98 98 100 100 100 99
80 80 89 81 85 84 89 93 90 82 96 99 96 92 93 96 90 71 97 95 99 99 98 96 97 89 94 96 88 90 91 92 98 98 96 97 97 98 98 98 97 98 98 98 97 97 98 100 99 100 100 99 99 100
76 93 92 93 90 99 92 92 84 85 93 96 93 97 86 96 90 94 100 100 99 96 93 91 87 90 84 80 92 90 86 83 89 92 95 88 94 97 97 98 99 98 97 96 98 99 98 100 100 100 100 100 100 100
77 84 90 97 94 90 92 96 96 89 95 95 95 97 93 94 98 99 97 99 98 99 98 93 87 82 88 98 97 97 90 78 85 95 98 97 97 95 97 98 98 99 98 100 100 100 100 100 100 100 100 100 99 100
92 90 86 97 96 91 94 97 96 96 96 95 94 97 96 95 98 100 95 98 100 99 99 95 94 86 90 84 92 96 97 93 83 94 99 97 94 93 97 98 98 98 99 100 99 100 100 100 100 100 100 98 99 100
96 97 93 78 89 89 94 95 89 92 96 96 97 98 95 100 100 98 99 98 96 97 92 94 78 80 89 95 94 97 96 92 92 91 95 92 94 97 96 97 99 97 98 100 100 100 97 100 98 100 100 100 98 98
97 91 94 95 93 90 97 98 98 100 99 94 89 98 98 94 97 98 99 99 96 94 94 93 88 86 88 93 96 96 96 94 93 93 93 94 97 97 98 100 100 100 100 100 100 100 100 100 100 100 100 100 100 100
95 93 86 94 92 96 99 100 100 97 94 95 98 100 100 98 98 99 97 99 91 90 94 94 99 93 96 96 98 98 98 92 96 100 100 100 100 100 100 100 100 100 100 98 100 100 100 100 99 99 100 100 100 100
94 93 93 98 96 99 98 98 99 98 95 99 98 96 94 98 97 97 96 96 92 93 96 91 95 91 97 97 100 99 99 100 99 94 98 100 98 99 100 100 100 100 100 100 100 99 100 100 100 100 100 100 100 100
92 92 95 97 100 99 98 98 97 96 98 98 99 98 99 98 97 96 96 98 94 93 94 99 100 99 96 98 97 95 96 98 100 99 99 100 100 100 100 100 100 100 100 100 100 100 100 100 100 100 100 100 100 100
95 97 96 100 99 98 98 99 99 99 99 99 98 100 97 96 100 98 98 98 96 98 100 97 96 99 100 99 100 98 92 98 98 98 99 100 100 100 100 100 100 100 100 100 100 100 100 100 100 100 100 100 100 100
97 99 100 99 99 100 98 97 100 99 100 99 96 100 100 97 98 97 98 98 96 95 98 100 99 98 97 96 96 98 98 100 100 100 100 100 100 100 100 100 100 100 100 100 100 100 100 100 100 100 100 100 100 100

GFSWCAN_sfc_rhum_096.txt.gz
RH
71 63 65 65 67 66 67 70 64 68 70 72 77 83 85 88 86 92 98 76 96 99 87 72 70 72 78 88 91 88 88 91 97 95 96 94 96 83 84 69 79 80 94 97 84 96 94 88 80 91 88 81 83 83
71 64 67 68 70 68 67 68 66 70 70 74 80 85 87 88 87 88 99 79 79 98 88 87 73 64 71 82 91 88 91 99 99 99 97 96 98 97 94 93 84 94 98 97 84 83 92 87 92 81 74 82 87 95
68 66 65 70 69 68 71 64 68 72 72 77 85 89 88 89 87 92 98 87 98 100 98 96 83 67 68 69 74 87 97 92 94 96 100 100 95 97 99 97 94 88 89 99 99 98 96 95 90 92 94 98 95 97
68 66 66 67 68 71 68 64 71 73 76 84 89 92 90 85 85 91 99 95 94 99 99 85 68 74 61 67 76 79 76 90 90 94 98 97 95 88 88 89 96 92 89 98 100 97 98 98 98 99 98 93 85 88
69 68 68 69 70 71 66 64 69 75 80 86 89 88 84 82 83 94 97 95 88 89 96 91 81 74 68 74 79 86 85 88 96 97 99 98 97 95 91 90 91 97 99 98 99 100 100 100 99 98 94 95 92 89
69 66 68 68 73 74 61 66 73 78 84 88 90 88 86 81 86 98 100 98 85 96 100 99 86 85 80 77 83 91 93 92 95 94 96 88 67 95 99 99 96 94 95 94 98 100 100 100 100 98 92 84 71 72
67 65 60 67 72 74 69 68 77 82 87 89 91 90 87 85 96 98 96 93 88 96 100 99 96 86 82 84 89 88 84 90 96 98 98 94 94 96 98 98 97 95 97 94 97 99 97 93 94 84 77 75 74 71
70 65 64 72 74 70 69 74 83 86 87 90 90 91 89 87 92 98 97 89 92 98 99 99 97 90 87 96 97 96 98 95 92 99 96 98 98 96 96 92 84 81 80 80 86 75 89 77 71 73 71 72 76 77
70 72 73 74 71 72 79 84 86 87 90 90 90 90 96 98 100 99 90 88 97 99 99 91 97 97 89 92 96 98 96 99 92 97 98 94 92 98 94 83 86 84 84 81 70 67 82 79 77 75 74 74 76 78
71 74 76 76 76 80 85 89 92 92 92 91 97 100 100 99 92 88 98 100 100 100 98 94 96 98 92 90 97 96 96 99 92 94 96 95 99 95 90 84 80 77 77 74 72 77 77 78 80 78 79 77 78 82
68 71 72 74 80 85 91 93 94 95 94 99 100 100 98 89 96 99 99 99 99 99 97 94 89 96 95 98 97 91 87 86 96 96 98 96 93 93 86 83 77 73 72 77 80 76 74 77 77 78 78 77 78 79
71 71 74 80 87 91 95 90 90 94 97 93 95 95 98 98 100 98 98 98 91 92 96 95 95 94 99 99 99 98 95 98 98 98 97 98 98 89 80 81 79 74 71 74 76 79 77 75 76 78 81 86 88 88
79 83 86 89 92 94 89 88 88 90 90 88 94 99 99 98 98 94 98 95 98 95 98 100 99 99 100 100 100 95 91 98 97 97 97 97 93 86 82 77 78 72 73 74 76 74 76 80 81 78 88 90 89 95
93 93 94 96 92 91 87 92 79 81 80 92 96 97 98 98 96 95 95 95 96 98 98 96 99 99 100 99 99 96 97 97 95 97 94 98 96 94 87 79 82 94 94 93 95 94 97 96 99 98 99 98 96 99
94 96 91 90 93 90 90 78 66 78 85 94 87 99 98 96 98 98 99 97 99 97 96 98 97 95 98 96 97 96 96 100 96 94 97 98 98 95 96 93 96 96 98 98 97 98 100 99 98 99 99 100 97 100
89 86 89 85 78 79 74 68 75 79 89 88 91 95 98 96 98 98 98 99 99 100 96 95 95 94 97 94 90 94 93 94 93 98 99 96 97 97 97 96 97 97 97 98 98 98 98 98 98 100 99 99 100 99
87 98 86 90 74 73 66 74 80 85 91 90 98 98 98 99 98 98 98 98 97 93 96 96 90 92 84 92 95 97 95 95 98 100 100 98 97 99 98 97 98 97 99 98 98 97 99 99 98 96 98 99 98 98
92 85 90 78 68 70 76 80 83 82 96 98 97 98 99 99 98 98 97 95 93 88 91 92 82 92 95 90 97 98 100 100 100 99 100 100 100 100 97 99 99 97 98 98 97 98 98 100 98 98 97 97 98 97
85 88 77 73 73 78 78 82 79 96 99 98 98 98 98 98 92 90 92 88 86 86 87 93 92 97 98 98 100 100 99 99 97 99 99 100 99 98 99 99 99 100 97 98 98 98 98 96 97 95 93 94 97 97
85 75 76 74 69 78 79 90 83 87 97 97 97 98 97 97 95 96 90 86 82 87 92 96 98 98 98 99 98 93 98 96 95 98 98 99 100 100 100 100 100 99 98 98 98 98 98 97 95 94 98 97 97 98
80 80 76 73 80 82 86 90 93 93 93 96 93 84 96 89 93 95 94 80 91 98 98 99 97 97 100 100 92 91 94 87 97 96 98 100 100 98 100 100 99 99 99 100 99 99 98 99 98 97 100 100 100 100
79 71 80 78 82 80 86 88 89 90 91 92 94 84 95 96 97 97 91 94 99 99 99 98 92 99 95 97 99 94 95 93 96 96 97 96 98 99 100 100 98 99 98 98 96 99 99 100 98 97 100 100 100 100
80 78 86 82 85 83 94 93 90 81 97 100 94 89 94 98 93 73 98 95 99 99 99 98 98 93 97 98 93 95 93 92 98 98 98 98 99 99 98 99 98 99 100 98 98 99 99 100 100 100 100 100 100 100
72 89 92 95 91 99 92 95 85 88 98 96 93 97 88 97 88 93 99 100 98 97 97 94 90 93 90 88 97 96 94 90 94 95 96 92 96 99 98 99 99 99 98 97 98 100 99 100 100 100 100 100 100 100
77 85 89 97 93 90 94 97 96 90 98 97 97 99 98 94 97 99 96 99 98 98 98 96 90 86 93 100 98 97 89 85 88 96 99 96 98 98 98 98 98 100 98 99 100 100 100 100 100 100 100 100 100 100
96 94 89 99 97 90 95 99 98 97 97 97 95 98 96 96 98 96 95 97 99 98 99 94 93 91 94 93 95 96 96 95 86 96 100 98 96 95 99 99 98 97 99 100 100 100 100 100 100 100 100 100 100 100
95 99 95 74 90 89 96 95 89 94 98 96 99 99 96 100 100 98 98 98 97 98 95 87 79 82 89 97 97 97 96 93 93 92 93 92 94 96 95 97 98 96 98 99 100 100 100 100 100 100 100 100 100 98
97 92 94 96 96 91 99 100 100 100 99 94 91 99 98 97 99 98 98 99 96 92 94 95 92 86 91 96 96 96 96 92 92 92 91 92 95 97 99 100 100 100 100 100 100 100 100 100 99 100 100 100 100 100
96 94 87 96 94 97 99 100 100 98 95 95 98 100 100 97 98 98 96 99 93 92 95 96 99 96 96 97 98 98 96 93 91 98 100 100 100 98 100 100 100 100 100 100 100 100 100 100 100 100 100 100 100 100
95 94 95 99 99 100 99 99 99 98 96 99 98 95 95 98 97 97 97 97 96 97 99 92 97 91 96 96 100 100 100 100 98 93 96 98 95 99 100 100 100 100 100 100 100 99 100 100 100 100 100 100 100 100
92 95 97 98 100 99 98 99 98 99 100 99 100 98 99 99 98 96 96 99 96 93 93 97 100 99 94 98 99 99 99 99 100 98 97 99 100 100 100 100 100 100 100 100 100 100 100 100 100 100 100 100 100 100
97 100 97 100 100 98 99 100 100 100 99 99 99 100 98 97 100 98 98 97 96 96 99 95 94 99 100 100 99 99 93 98 97 98 98 100 100 100 100 100 100 100 100 100 100 100 100 100 100 100 100 100 100 100
99 100 100 100 99 100 100 96 99 97 99 100 99 100 100 98 98 98 97 98 97 94 96 99 100 98 97 97 97 98 97 99 100 100 100 100 100 100 100 100 100 100 100 100 100 100 100 100 100 100 100 100 100 100

GFSWCAN_sfc_rhum_099.txt.gz
RH
68 67 69 65 63 65 81 63 64 70 62 66 70 73 78 84 84 93 98 79 97 96 76 73 65 64 64 83 88 81 84 86 94 90 87 90 88 79 77 70 79 73 80 88 77 82 82 81 69 84 89 88 93 93
70 72 74 67 66 67 68 64 67 69 65 68 71 74 79 83 85 89 99 79 86 99 85 82 72 63 58 69 85 82 83 95 99 88 86 89 90 89 87 81 75 94 97 93 84 94 97 91 96 92 84 94 97 98
70 69 72 68 67 68 71 66 68 69 64 71 71 75 82 84 85 90 99 88 99 100 95 94 83 72 70 66 70 80 87 85 89 90 95 97 91 91 93 88 88 93 78 90 88 100 99 98 98 98 97 94 93 94
76 70 69 70 66 68 70 69 71 64 67 72 74 81 87 88 87 91 98 97 94 99 99 81 66 74 61 68 71 70 71 84 86 90 91 90 90 82 84 88 91 86 80 96 98 94 98 97 99 97 94 92 88 89
76 72 71 69 68 71 70 70 71 61 69 72 77 84 87 89 89 96 97 95 92 88 91 83 78 71 64 75 76 76 76 78 90 92 94 89 85 85 98 87 86 82 91 91 98 99 96 100 98 94 91 91 90 76
77 80 76 70 72 70 73 74 71 63 68 73 80 89 91 90 88 99 100 98 88 95 100 97 80 78 77 77 82 82 84 87 91 92 89 83 70 87 94 90 92 88 86 93 95 100 98 98 98 95 92 78 67 68
74 76 76 70 70 67 68 72 70 64 67 73 81 88 93 92 96 98 95 88 89 96 100 97 88 80 78 79 85 88 85 91 90 91 92 88 87 93 97 93 94 95 96 96 96 99 95 89 89 76 74 69 67 64
72 75 70 70 66 63 70 73 74 64 68 73 84 89 90 93 95 98 96 89 93 98 99 98 94 85 81 90 92 91 91 88 87 86 96 94 95 92 96 88 82 80 88 89 92 91 90 88 68 66 64 63 67 68
74 75 72 72 70 68 73 75 70 66 74 79 84 86 95 99 99 98 91 89 95 98 99 95 96 96 86 89 89 96 90 95 85 93 95 90 88 96 88 80 79 76 75 70 66 77 72 70 69 67 66 65 68 74
75 75 74 73 73 73 76 72 72 74 80 81 96 100 100 99 92 92 98 100 100 100 100 90 90 96 92 90 96 93 95 88 86 84 91 96 92 89 83 75 70 70 71 66 69 73 71 74 73 72 73 71 72 75
75 74 70 70 70 74 73 73 75 78 86 99 100 100 94 87 95 100 99 99 99 99 97 91 86 92 94 94 95 88 92 82 89 89 91 92 87 86 83 77 69 65 68 71 69 69 68 70 73 72 73 71 72 75
73 68 67 67 70 71 73 77 82 95 98 93 95 95 98 100 100 98 97 98 92 87 94 96 88 90 98 92 94 92 87 88 84 98 96 96 91 80 76 75 71 66 66 70 69 72 70 70 71 72 75 80 82 82
68 67 69 70 72 75 81 88 91 90 91 93 97 100 100 98 98 95 97 97 94 97 96 98 96 96 99 98 100 96 90 90 96 96 93 89 86 80 76 72 72 68 68 69 72 71 71 76 71 72 82 82 83 89
71 73 76 78 81 87 90 93 91 92 96 98 98 97 97 97 94 93 92 94 93 96 94 90 99 94 95 99 99 97 93 95 95 96 90 90 91 90 81 75 76 89 89 87 89 88 91 92 96 96 96 94 94 95
83 87 88 91 91 93 93 92 84 84 86 96 86 96 97 92 97 96 98 99 100 90 94 97 95 93 97 97 95 95 96 94 87 89 90 93 94 91 90 88 91 92 95 94 92 95 96 96 96 98 97 95 94 95
95 97 98 93 91 81 78 78 74 77 83 84 90 95 96 96 98 98 98 100 99 98 92 91 94 96 96 92 92 92 90 90 87 91 92 91 93 93 94 91 93 94 93 94 94 93 94 95 94 96 95 94 95 92
86 98 92 86 82 72 66 76 77 81 88 89 98 96 98 99 98 98 98 97 94 94 96 89 88 86 79 89 88 89 91 87 93 96 94 92 94 96 96 95 96 95 95 94 94 93 93 93 93 88 91 92 90 92
97 90 84 67 66 70 77 78 78 80 95 95 96 97 98 97 97 97 97 95 92 86 81 85 82 91 90 86 88 93 96 96 95 93 93 95 95 95 92 95 96 94 94 95 92 94 93 95 90 84 87 87 86 85
93 78 77 73 71 77 75 81 76 95 98 97 97 96 95 96 93 92 90 83 80 76 81 83 83 88 91 91 93 98 96 92 95 96 96 97 95 95 96 95 95 94 92 91 90 82 82 89 87 84 81 81 82 82
79 80 77 72 68 78 76 86 78 83 93 95 92 93 90 91 88 92 89 80 73 77 86 89 93 95 94 92 91 90 94 91 88 94 95 94 94 96 95 92 89 92 89 92 90 92 87 84 81 82 83 84 86 87
87 83 75 73 80 80 84 87 91 90 90 92 88 86 93 82 87 91 88 74 88 93 93 95 93 94 96 95 87 86 88 80 85 82 86 93 94 90 92 92 93 90 89 90 90 91 91 88 84 80 90 95 96 92
82 74 83 77 80 78 86 86 84 86 90 90 90 79 92 93 91 92 79 90 93 95 93 92 92 92 90 93 94 88 91 89 91 88 92 91 94 93 93 92 91 94 91 92 88 92 89 85 82 82 90 96 95 91
75 73 83 78 85 85 94 91 89 78 95 98 85 85 92 93 84 68 95 88 94 93 92 92 93 88 93 93 84 87 88 85 89 92 92 91 89 91 90 89 89 94 93 88 80 84 87 96 94 94 92 92 92 95
69 88 92 96 90 98 90 95 84 90 95 92 89 96 89 92 81 87 95 95 93 91 92 92 87 92 86 83 89 90 87 82 88 90 87 84 85 87 84 86 85 86 81 79 82 86 89 96 100 92 95 93 94 95
78 90 89 96 91 90 95 97 94 89 99 97 97 100 98 86 93 93 91 95 94 95 95 91 86 82 87 95 93 90 86 81 85 88 86 79 88 86 86 83 85 86 84 89 91 91 91 97 97 96 95 99 94 96
99 96 93 99 97 90 95 99 98 97 96 97 96 95 92 94 96 92 87 95 96 94 97 93 92 91 89 82 89 88 86 82 77 83 88 80 79 84 89 89 87 87 89 92 94 94 92 96 98 96 95 94 99 96
98 100 94 73 88 86 95 94 86 93 97 97 99 98 96 99 99 94 94 92 92 93 87 85 78 80 84 89 89 89 86 84 85 83 86 84 84 83 85 88 89 86 89 92 94 94 95 96 96 95 95 95 99 95
97 90 94 95 96 89 98 99 100 100 99 92 90 99 98 95 96 94 93 93 95 89 90 89 87 82 85 89 89 90 90 89 91 88 86 85 87 91 94 94 94 100 94 95 95 97 95 95 95 96 96 97 99 99
96 93 85 98 95 96 99 100 99 94 92 91 97 100 99 92 96 94 93 94 90 87 91 93 100 95 95 93 95 91 89 87 84 86 88 91 93 94 94 94 95 96 94 94 100 98 94 96 94 95 97 97 97 100
94 90 95 99 99 100 98 97 98 97 91 95 93 91 91 96 96 94 94 95 94 94 95 93 97 93 96 94 98 96 97 97 91 88 90 91 90 92 97 96 98 100 100 98 98 94 97 96 96 95 98 99 98 97
90 94 97 98 100 99 98 99 98 96 98 97 100 97 97 97 96 95 95 96 95 95 94 96 97 96 94 95 94 96 97 97 96 91 89 93 96 98 100 100 100 100 99 97 96 96 96 97 98 98 95 94 96 99
97 100 97 100 99 98 98 100 100 100 99 98 99 99 96 96 99 96 96 96 95 96 95 92 92 95 95 94 94 94 92 98 95 95 94 97 100 100 98 97 99 100 100 100 100 99 98 99 100 100 99 98 98 97
99 100 100 100 98 100 99 95 97 95 98 100 100 100 100 97 98 97 95 96 96 95 93 95 96 96 94 95 95 96 95 97 97 100 100 100 98 100 100 100 99 99 99 100 100 100 100 100 99 99 96 95 94 93

GFSWCAN_sfc_rhum_102.txt.gz
RH
77 83 72 73 72 67 66 68 70 67 70 62 62 69 72 74 80 92 95 78 84 90 55 56 50 53 46 52 65 57 70 66 76 72 69 71 69 60 56 60 67 57 66 71 62 69 76 91 50 73 95 94 94 91
75 77 77 74 73 67 65 80 72 68 69 65 64 70 72 76 78 90 98 78 77 98 66 64 57 51 47 47 61 57 63 70 69 76 77 78 77 75 74 64 55 88 83 83 86 96 99 98 97 91 85 94 97 96
74 73 73 74 74 71 67 70 71 69 71 66 62 69 70 76 81 85 98 88 97 100 89 76 60 50 53 54 49 60 60 62 62 67 85 85 86 68 76 70 68 80 61 83 98 98 96 97 92 91 82 88 83 84
76 76 75 75 74 72 72 71 74 73 72 63 65 73 75 78 82 85 98 96 96 97 93 60 49 57 48 52 54 53 52 64 66 62 77 78 67 60 69 71 72 69 64 98 100 95 84 80 88 87 85 76 71 70
74 77 76 74 73 72 72 73 75 74 70 59 67 73 76 83 87 91 97 96 88 93 80 56 58 55 53 55 57 57 57 58 60 66 79 70 56 63 66 71 72 64 85 86 94 100 91 95 89 82 80 83 76 66
70 75 74 73 76 73 73 74 73 74 67 63 69 74 81 88 92 97 100 98 92 96 96 84 59 65 61 59 59 60 58 62 62 69 68 57 52 69 82 76 83 76 77 85 93 95 98 99 96 85 85 76 54 52
68 76 78 77 77 71 73 74 74 73 65 65 70 76 85 90 98 98 94 71 88 95 100 93 67 68 61 61 63 65 63 66 73 68 74 63 61 69 94 81 95 82 85 88 93 95 92 76 76 69 61 55 54 50
68 72 77 78 75 72 74 74 71 70 64 64 71 77 91 92 96 97 82 87 90 98 98 93 83 74 65 72 76 65 67 66 62 62 78 74 77 81 90 80 69 70 71 80 83 82 83 79 61 53 51 52 56 54
65 70 74 79 77 74 72 72 69 72 67 67 71 86 95 97 99 96 88 86 88 96 98 91 87 95 73 79 79 88 67 91 65 81 72 71 69 90 83 64 62 60 61 57 73 73 75 72 56 53 52 53 57 62
64 74 74 79 77 75 71 71 72 72 65 71 90 98 100 97 92 92 97 100 100 100 99 88 68 90 82 88 89 90 82 73 83 74 76 81 74 81 67 57 53 53 51 49 59 59 61 63 62 59 61 60 62 64
63 70 76 76 78 71 72 72 76 69 76 97 100 100 91 90 92 98 100 100 97 100 95 78 73 89 76 88 82 76 81 74 78 76 84 82 74 82 69 59 51 50 51 52 52 54 55 58 60 60 60 60 60 64
65 70 75 75 72 70 69 77 73 83 98 94 91 92 98 99 100 99 94 97 84 73 81 89 82 68 88 76 76 79 84 81 83 82 90 84 88 69 63 60 54 51 52 54 53 57 58 58 58 59 62 67 71 73
69 71 74 74 70 68 70 73 74 78 87 95 100 100 100 100 99 97 92 87 87 90 86 88 94 86 96 87 97 87 94 90 88 99 83 84 76 67 62 56 57 54 55 56 57 58 58 59 57 60 70 72 74 82
72 74 72 68 70 73 74 73 77 82 98 100 99 97 96 97 89 82 73 82 90 92 91 90 89 88 93 99 100 100 94 92 96 92 89 82 80 78 68 63 65 77 78 76 78 78 82 85 89 89 89 88 87 89
72 69 68 70 74 76 78 84 86 97 99 99 94 95 98 96 96 97 98 96 87 85 88 96 92 81 97 100 98 95 99 88 78 85 85 81 84 81 81 81 85 87 90 88 86 89 90 89 89 91 89 87 87 88
71 75 79 77 80 83 88 93 91 94 90 84 80 96 93 94 98 98 100 100 92 90 83 75 95 99 98 91 96 92 81 80 90 84 80 81 85 83 85 84 86 86 85 87 87 86 87 88 86 88 87 86 86 82
90 99 87 86 88 88 76 79 71 81 88 89 94 93 99 98 96 97 100 97 92 93 100 85 96 92 77 86 90 79 92 88 85 84 79 81 84 88 88 88 89 88 87 86 86 84 87 86 85 78 81 84 77 80
99 95 89 86 72 69 69 60 62 64 87 87 89 94 92 95 95 96 96 90 87 76 69 80 66 85 87 83 83 88 85 84 81 81 81 84 86 86 85 86 87 85 85 86 83 85 86 86 78 70 77 78 74 74
93 85 72 71 58 58 69 68 56 79 87 84 87 86 86 91 88 87 86 78 71 58 68 72 86 81 86 81 88 88 87 84 87 83 84 86 84 88 87 87 87 84 83 83 80 68 68 76 72 65 63 62 66 62
80 77 76 70 61 57 61 68 56 66 79 83 77 81 78 83 86 95 81 70 65 66 77 80 83 88 87 85 79 79 79 77 72 80 83 81 80 86 84 77 71 79 74 79 75 78 67 64 58 59 60 60 68 69
71 71 71 59 60 57 61 63 69 67 71 78 76 72 84 80 87 92 84 58 80 78 78 83 88 85 85 81 74 73 74 63 66 65 74 81 78 70 75 74 78 72 69 70 71 72 76 68 63 60 78 81 80 75
71 71 66 61 62 63 67 61 64 64 71 78 76 69 88 94 94 92 62 77 76 81 77 76 77 78 79 82 78 73 78 76 73 70 75 76 77 73 72 74 72 78 73 77 68 75 72 61 66 70 77 83 80 74
69 67 71 66 79 76 84 72 76 66 83 83 69 77 83 82 70 53 84 67 79 76 71 71 77 69 78 81 71 72 72 67 66 72 72 69 69 73 72 71 71 78 76 70 62 66 70 81 81 82 79 78 76 80
63 84 89 86 78 94 86 83 70 74 78 77 72 85 78 78 63 72 80 79 81 74 70 77 67 70 65 62 62 65 63 58 66 71 69 67 69 69 63 64 66 68 61 61 66 72 73 82 90 76 82 81 80 81
75 90 84 91 80 84 87 88 87 77 89 82 84 86 86 71 80 76 76 83 84 84 78 70 64 60 64 70 69 69 65 59 65 72 70 58 67 66 67 62 64 62 67 81 82 82 83 84 85 83 79 81 74 75
92 94 85 87 88 80 82 89 86 87 82 84 85 83 86 84 82 76 67 83 86 84 89 84 77 70 67 63 68 69 71 65 62 65 64 57 57 70 75 77 77 77 72 81 84 83 80 82 84 83 81 80 90 86
92 95 80 64 73 71 86 81 71 78 84 87 88 92 87 86 81 80 75 76 74 75 69 67 63 62 68 72 71 72 69 68 67 63 67 65 67 66 74 79 78 76 74 80 83 81 78 77 80 82 83 83 82 85
82 78 88 88 85 76 90 88 88 90 87 78 79 90 84 78 80 83 78 79 80 73 75 74 66 65 68 72 76 80 83 82 85 77 73 73 77 83 86 86 84 85 81 80 82 82 81 81 82 82 81 81 83 86
86 78 71 90 84 86 90 90 88 80 77 77 87 86 86 77 84 82 79 82 83 78 81 85 92 87 84 81 81 78 80 76 71 72 70 80 84 85 80 82 83 82 84 83 88 82 82 84 85 84 78 85 86 88
86 76 82 87 88 90 92 86 89 90 75 80 70 72 73 83 88 83 83 87 89 90 88 88 90 87 90 87 91 88 87 88 85 75 75 78 81 86 87 87 87 89 88 83 82 81 79 83 83 84 84 83 82 82
76 80 84 83 89 89 90 93 92 87 87 85 88 85 85 88 90 89 88 90 90 90 90 92 91 87 88 89 86 86 88 90 88 83 84 88 88 88 89 89 90 88 86 84 83 82 82 82 82 77 74 78 79 85
86 89 86 89 92 92 90 89 90 89 88 86 91 89 91 88 91 90 91 91 91 90 90 85 88 91 87 88 88 89 84 90 88 87 85 88 90 90 88 87 88 86 84 85 86 85 80 77 83 81 81 78 78 78
91 89 89 88 90 90 93 84 81 87 87 87 91 91 92 89 91 91 87 91 92 91 92 90 90 88 86 86 88 91 85 89 89 90 90 92 88 88 88 89 87 86 78 83 84 84 74 71 76 74 74 78 79 81

GFSWCAN_sfc_rhum_108.txt.gz
RH
81 79 80 79 77 79 78 77 73 74 72 71 68 66 70 73 75 80 78 64 66 84 54 49 47 51 49 48 62 48 56 62 74 74 62 60 65 51 76 50 56 66 88 78 77 83 89 76 60 80 98 99 95 86
89 82 82 80 80 80 79 77 75 78 73 75 70 69 70 70 71 80 94 66 62 85 63 62 54 49 48 48 61 51 49 59 64 74 69 71 81 71 56 97 51 84 73 75 84 94 88 79 88 84 75 86 84 78
81 83 83 81 81 80 79 76 76 78 75 76 72 66 66 68 72 78 98 86 83 96 77 60 55 42 38 44 46 60 62 57 68 56 76 77 84 49 70 80 66 62 52 83 89 91 84 79 72 68 68 72 64 60
82 83 84 77 81 79 78 78 78 80 77 77 73 67 65 67 68 75 96 95 96 98 90 60 34 41 40 41 44 49 52 48 50 50 71 70 74 45 58 59 68 60 60 89 90 84 76 74 74 70 68 58 52 47
81 83 84 81 81 80 77 79 77 78 75 74 69 64 64 68 73 69 94 86 79 89 99 73 46 40 41 43 43 46 49 51 47 52 69 73 58 53 54 57 75 58 76 88 93 100 84 87 70 64 65 60 51 48
82 80 80 81 81 80 78 79 80 77 77 76 68 66 68 74 78 86 100 92 85 89 99 89 59 55 45 47 46 48 49 48 45 47 58 53 49 58 76 80 71 67 72 80 91 86 91 87 73 60 56 50 43 44
83 80 78 80 81 80 79 78 78 77 77 76 69 65 70 76 85 94 94 92 84 90 100 90 65 53 46 46 52 55 49 50 57 60 58 54 55 58 81 74 84 77 75 76 78 77 81 70 69 56 50 44 43 42
81 80 80 80 79 80 80 78 74 74 73 70 65 66 74 83 90 96 79 88 90 96 97 87 77 72 49 72 77 55 67 59 55 63 58 56 54 64 74 72 65 70 66 70 70 67 72 64 57 48 40 41 45 50
81 80 79 79 79 80 79 77 74 72 74 66 65 70 88 97 99 97 88 90 92 95 90 87 80 93 54 72 71 65 58 87 55 79 64 56 62 79 75 61 59 59 58 63 58 60 56 52 46 45 46 48 54 57
78 81 80 80 79 78 79 78 76 75 72 67 77 98 100 99 89 90 98 100 99 98 91 84 60 92 65 72 76 77 79 81 83 72 57 75 68 69 53 48 48 50 44 48 58 59 54 56 57 56 57 58 59 61
71 74 77 80 82 80 79 77 76 75 73 80 100 99 90 89 94 99 100 100 99 99 80 70 59 84 58 86 85 76 80 70 72 69 74 73 69 76 54 50 45 44 43 45 46 49 50 53 57 57 57 58 59 63
65 69 75 76 80 78 77 77 77 71 64 74 92 95 98 99 100 100 98 90 71 62 68 78 68 59 76 64 72 73 80 76 74 70 83 76 89 64 55 52 49 46 46 47 47 52 53 52 54 56 60 65 70 73
64 64 71 76 78 78 77 76 75 69 80 82 98 100 100 100 100 93 91 80 84 87 81 82 91 80 74 71 93 78 82 83 69 87 75 88 72 60 57 53 53 52 52 52 53 53 53 55 56 59 68 72 75 83
65 65 68 74 79 80 77 77 77 86 98 100 100 99 99 97 84 73 68 80 90 92 84 86 87 77 87 91 100 83 89 78 82 81 75 82 78 73 61 57 57 71 77 72 76 81 87 88 92 92 92 92 92 91
62 64 71 76 79 79 79 79 79 90 100 100 99 97 92 91 96 100 100 91 87 80 84 90 86 79 98 86 84 80 89 80 69 76 94 88 83 77 76 79 84 87 90 88 86 91 92 92 91 92 92 90 89 91
62 65 68 78 78 76 80 82 98 98 89 97 88 97 100 98 100 100 100 100 84 85 80 74 86 94 86 79 85 80 69 71 96 95 91 83 83 83 86 85 88 87 85 87 88 87 87 91 90 85 87 88 89 89
68 62 72 79 77 79 82 98 99 100 82 90 91 95 99 100 100 100 100 96 80 87 99 74 91 80 65 74 75 68 93 96 94 91 86 84 87 90 89 88 89 87 86 86 85 83 83 83 86 80 86 85 86 85
65 71 78 75 77 90 98 99 78 81 88 83 89 98 96 100 100 100 99 87 86 78 69 73 65 80 85 77 80 95 92 93 89 89 87 87 88 88 86 87 88 85 82 85 84 82 82 88 84 78 74 78 73 78
69 73 77 76 90 95 94 98 94 90 84 84 87 86 90 96 94 89 93 88 89 72 71 72 93 81 91 88 96 96 93 89 92 91 88 87 86 88 88 87 86 84 83 82 78 73 72 76 78 59 53 52 55 56
75 78 77 82 79 95 87 82 66 73 85 80 88 89 88 89 91 100 98 83 71 67 82 79 88 98 96 88 89 91 90 85 80 86 88 85 83 86 86 82 74 78 75 75 72 71 60 57 50 47 53 57 67 70
83 81 83 82 96 98 92 82 69 66 70 82 80 75 81 83 93 95 93 70 85 81 87 83 88 85 86 91 82 80 80 69 72 72 78 85 82 74 76 74 76 71 68 68 68 72 64 63 56 54 74 79 83 76
96 85 99 98 98 93 95 71 63 64 72 74 83 75 87 93 94 96 80 98 99 93 80 78 77 79 81 80 80 76 85 75 70 68 71 74 76 75 74 76 70 73 67 73 62 68 65 56 63 63 73 85 75 71
88 89 98 99 95 91 96 70 79 69 86 89 80 79 85 86 78 62 92 82 88 72 65 66 69 64 78 82 69 66 70 65 69 74 74 72 69 72 72 70 70 78 72 61 53 60 74 76 80 76 73 73 75 80
69 98 100 99 80 90 86 84 61 66 75 89 87 80 84 80 67 79 91 82 80 65 64 66 68 75 71 65 66 64 60 59 66 68 67 65 67 66 63 60 61 64 58 61 61 68 72 80 83 69 80 75 78 82
94 90 94 90 79 79 80 79 76 71 85 79 81 79 83 70 86 86 85 90 80 77 74 66 64 62 66 65 61 59 60 59 63 67 65 60 66 63 61 57 58 58 62 79 77 76 79 81 78 76 73 78 74 77
93 91 90 81 85 78 74 82 80 79 75 80 82 74 79 82 85 86 77 87 85 86 89 85 78 65 58 55 62 62 60 59 60 64 60 60 63 76 77 76 77 74 63 78 78 73 71 77 80 76 78 73 87 78
91 90 71 58 65 68 82 76 68 76 80 82 82 85 85 87 86 86 72 89 84 82 75 70 63 60 60 61 59 63 62 62 66 61 64 67 73 78 80 79 79 84 72 74 76 75 77 80 80 78 79 76 77 81
80 83 88 83 79 71 86 79 78 79 78 69 74 84 82 90 90 85 80 75 93 79 86 72 60 60 68 76 81 82 82 82 83 79 77 76 76 82 86 88 88 87 84 84 80 78 78 77 77 75 76 81 84 80
84 73 72 88 79 78 80 81 79 72 68 79 89 81 82 77 86 84 80 91 87 82 85 88 93 87 85 82 85 80 83 81 82 84 80 88 88 87 80 81 79 80 81 82 82 84 81 84 85 87 79 80 81 80
85 74 78 80 82 84 88 86 88 83 66 70 64 67 74 82 87 84 79 81 84 91 89 86 88 88 92 92 93 91 86 84 84 80 78 84 88 88 86 83 82 80 78 78 81 84 75 81 81 88 88 82 80 82
70 77 78 76 85 88 87 85 84 80 80 86 85 82 81 86 85 81 84 95 95 91 90 91 93 91 90 88 86 89 94 89 88 86 88 89 87 87 85 84 82 79 78 75 76 76 78 78 78 76 76 78 81 82
80 78 81 85 88 86 88 93 90 87 90 86 86 81 88 89 86 88 91 92 94 94 94 90 92 95 93 92 92 89 85 88 87 85 80 86 88 85 82 80 80 78 77 76 76 76 75 76 80 79 80 79 82 83
80 79 79 82 88 88 84 86 74 83 84 84 86 82 87 89 89 90 87 90 95 94 93 92 91 90 88 86 88 92 92 93 91 90 88 86 82 82 81 81 80 78 73 76 76 76 75 75 78 80 81 84 85 85

GFSWCAN_sfc_rhum_111.txt.gz
RH
79 82 82 80 79 80 79 78 78 76 77 74 75 72 73 73 75 91 93 84 90 96 77 75 66 75 70 74 93 78 82 80 91 94 88 88 91 78 92 69 73 88 94 99 89 88 90 85 70 85 99 99 98 96
87 80 82 82 82 82 80 79 79 78 76 75 75 74 74 73 76 83 97 83 82 95 90 76 73 70 69 67 82 80 77 84 91 95 92 87 94 90 80 97 69 95 86 93 91 93 97 90 97 96 92 97 91 79
89 87 83 82 82 82 82 80 78 79 77 77 76 72 71 72 76 83 99 98 95 97 94 90 76 65 56 63 62 86 90 73 80 78 93 94 92 80 93 95 92 80 73 92 95 97 93 88 81 75 69 73 64 60
90 85 85 82 83 82 81 80 80 79 78 78 76 74 71 72 74 79 97 97 96 92 96 82 47 61 51 52 62 66 69 65 68 80 86 76 89 73 79 81 88 79 77 89 97 90 83 80 79 78 70 62 54 53
88 88 89 81 82 82 80 81 80 80 78 77 76 72 68 68 73 85 97 95 86 97 99 95 69 54 51 55 58 60 65 69 80 81 89 88 81 79 80 88 92 77 89 96 99 100 90 91 76 70 66 63 58 55
79 80 88 82 82 81 82 83 81 80 78 77 74 66 66 71 77 95 100 97 94 96 96 94 81 73 60 59 59 61 63 72 77 79 80 76 66 79 87 96 82 74 72 86 97 88 91 88 75 66 63 53 50 53
84 81 80 83 83 81 82 83 82 81 79 78 75 70 69 77 95 95 97 99 89 92 99 98 89 69 57 52 69 74 64 76 79 87 82 77 77 79 95 98 92 82 73 78 79 79 88 84 74 61 52 48 52 52
85 83 79 82 82 82 81 81 81 77 76 76 73 71 74 80 82 93 85 89 90 96 96 99 93 87 65 86 88 77 87 83 80 86 85 78 80 87 89 87 77 74 68 73 76 73 74 68 56 50 48 51 58 64
86 87 82 82 81 82 81 79 78 77 76 73 70 73 92 97 98 94 87 91 96 97 98 94 93 97 72 83 89 78 78 86 80 91 87 79 92 94 87 79 79 69 71 74 64 65 71 63 58 59 61 62 68 73
85 82 80 81 82 83 80 78 78 76 75 74 88 98 100 98 85 93 96 100 100 99 96 94 88 96 83 89 92 77 88 96 96 90 84 94 99 87 70 62 67 65 65 63 75 77 69 71 71 70 72 74 76 77
82 82 82 81 82 82 80 78 76 77 76 92 100 99 94 89 97 99 99 99 100 99 98 91 89 97 84 94 95 88 97 94 93 90 91 96 96 85 70 64 60 59 56 58 60 66 66 66 72 72 73 73 74 76
73 77 81 81 80 79 79 78 76 84 89 89 91 96 98 99 100 99 98 99 98 88 93 95 91 88 95 85 92 88 92 94 90 93 94 96 98 70 63 66 64 62 61 62 62 67 69 68 71 73 77 81 84 85
75 77 77 82 81 79 79 78 75 76 84 93 97 100 100 99 99 97 97 99 96 94 93 94 98 92 92 94 94 84 82 94 93 92 93 98 84 70 68 69 72 68 67 66 68 74 80 79 72 76 85 85 86 91
74 76 76 80 80 78 78 78 76 86 96 96 99 98 96 99 97 92 90 91 93 95 93 95 97 95 98 93 95 79 77 89 84 87 94 94 84 82 73 74 82 91 92 92 94 93 95 93 95 95 96 96 95 98
71 72 73 78 81 79 78 78 85 96 98 99 99 98 99 94 94 98 100 98 98 95 92 95 96 94 94 83 81 77 89 89 90 93 99 91 88 89 92 90 92 95 95 96 95 96 97 97 96 99 98 97 96 98
63 69 76 78 81 78 80 80 95 99 99 99 91 98 99 96 97 100 99 100 98 96 96 93 96 95 81 80 82 77 89 87 96 99 95 86 89 93 93 93 94 94 94 96 95 96 96 97 96 97 97 95 95 95
67 73 73 80 81 81 82 96 99 100 97 89 92 88 98 97 99 100 100 100 97 92 98 96 95 78 92 95 83 90 94 99 98 97 91 88 94 95 94 93 95 94 95 94 96 95 95 96 93 94 97 96 93 93
78 79 78 78 80 82 97 95 96 93 94 92 90 93 98 96 100 100 100 100 99 96 95 88 95 90 92 86 92 100 99 97 94 94 94 93 93 93 91 95 94 93 94 94 93 95 96 96 96 96 94 93 94 96
79 80 79 90 88 93 96 97 98 96 94 96 98 97 98 99 99 99 99 99 96 92 95 94 97 98 99 99 99 98 96 97 96 96 95 93 92 93 93 94 94 93 94 94 93 95 94 92 94 96 92 91 96 94
78 82 90 82 79 95 90 93 87 94 94 95 96 97 97 98 99 100 100 97 92 94 93 91 98 100 100 98 99 92 94 92 93 97 97 96 96 94 94 93 94 92 93 94 90 95 94 91 86 88 86 89 94 97
81 88 86 85 95 99 99 96 92 86 94 96 92 96 98 96 98 99 99 92 99 99 99 98 99 97 96 97 95 87 88 83 88 89 90 96 95 91 90 91 91 91 94 96 95 94 92 94 91 88 96 98 95 96
93 86 96 96 99 98 99 97 94 82 91 94 95 92 98 98 99 99 96 99 99 100 98 97 96 96 96 94 94 82 84 85 86 84 87 88 94 94 94 94 91 93 91 92 93 91 95 95 92 94 96 98 90 94
84 94 99 97 99 99 98 98 99 84 95 96 96 96 98 99 97 91 98 98 99 95 94 94 89 88 94 91 84 84 82 78 84 87 87 89 92 94 92 93 94 93 95 94 92 91 92 88 87 94 96 93 94 96
88 99 99 98 98 98 99 98 99 98 99 97 97 98 98 96 85 97 98 99 97 94 92 87 90 91 85 77 92 92 85 81 85 87 92 88 94 92 90 94 92 93 92 84 88 93 94 94 93 92 93 92 90 93
98 96 98 98 98 97 98 98 98 97 97 96 97 96 98 94 98 97 95 97 97 96 91 86 89 85 93 96 95 93 80 76 82 93 94 86 90 84 82 82 86 88 94 91 94 93 94 96 95 94 90 91 91 90
98 97 97 96 96 96 91 96 94 94 91 92 95 95 94 97 99 94 98 98 97 94 92 91 92 92 91 81 90 89 92 88 78 89 93 84 88 86 92 92 94 93 95 96 96 93 95 94 93 89 90 86 90 88
97 97 86 70 83 91 96 95 88 92 92 92 96 94 96 91 91 98 98 97 99 97 95 94 91 87 80 82 90 90 87 82 83 87 89 91 94 96 93 92 96 97 94 92 92 93 93 93 93 92 92 93 97 97
96 95 96 98 96 93 97 93 91 91 94 90 92 90 92 95 99 98 97 96 99 96 96 94 83 79 90 91 91 90 92 90 89 87 86 90 93 96 96 95 93 94 93 92 93 93 94 94 96 95 94 94 95 95
97 97 94 96 96 94 96 97 97 90 89 93 98 98 98 97 98 98 97 98 96 92 94 95 96 91 91 91 92 91 95 94 89 93 98 100 100 99 97 97 95 95 94 93 91 96 90 94 95 94 95 95 93 94
97 96 92 91 94 96 99 98 98 95 93 94 86 86 92 98 97 96 95 96 98 97 97 95 95 92 94 93 96 97 96 98 98 95 95 97 97 97 97 97 97 97 96 96 96 93 88 95 94 97 98 97 98 98
88 92 91 92 96 97 96 95 94 92 95 94 92 94 96 99 97 96 96 96 96 94 95 96 96 95 93 94 95 97 99 97 97 95 92 92 93 96 96 96 97 96 95 93 94 94 93 94 96 95 94 96 99 99
94 91 93 96 98 95 97 98 98 96 97 95 97 96 98 96 99 98 95 95 98 97 97 95 94 97 97 96 95 95 94 97 97 94 94 93 94 94 94 96 96 94 93 93 94 94 90 92 95 98 100 99 100 100
93 91 94 95 98 98 94 98 93 97 96 97 98 97 97 97 99 99 96 95 96 94 95 95 95 95 95 95 96 96 96 95 93 94 93 94 93 95 96 96 95 94 92 95 94 93 95 94 98 97 100 100 100 99

GFSWCAN_sfc_rhum_114.txt.gz
RH
89 90 89 84 83 82 81 79 80 77 78 76 77 77 80 79 80 90 96 92 92 96 88 84 78 83 83 85 96 82 82 83 94 95 95 95 98 85 93 77 83 91 98 92 86 84 89 92 72 91 99 99 96 90
84 85 88 86 82 81 81 81 81 80 80 78 79 80 81 80 80 84 97 94 89 93 84 86 74 70 71 70 86 86 86 88 94 94 87 88 97 95 87 99 77 95 89 91 93 94 96 96 98 96 90 88 78 75
83 84 81 82 83 81 82 81 81 80 79 80 78 76 77 77 81 86 99 98 96 97 91 90 78 68 67 70 70 88 93 78 80 84 93 95 92 92 95 98 91 82 77 94 93 98 94 94 88 72 69 74 68 65
85 84 83 83 83 83 82 82 81 81 79 79 79 79 79 78 79 85 97 98 96 90 97 80 56 67 60 62 69 70 72 70 73 86 89 81 91 80 87 83 94 86 81 93 96 94 92 92 89 75 70 62 58 58
89 83 83 81 83 82 82 82 80 81 80 80 78 73 74 75 78 93 98 96 94 96 96 94 78 58 55 57 60 66 70 75 85 83 92 87 89 84 88 88 98 84 94 98 99 92 91 96 80 69 68 68 63 62
88 88 83 81 80 83 83 82 81 80 80 79 76 70 69 73 81 97 97 95 96 96 90 95 86 76 62 65 65 70 74 80 85 86 86 83 74 81 90 90 86 77 83 88 96 90 91 88 77 64 66 61 58 61
88 89 90 85 79 83 84 82 81 80 79 78 76 71 69 75 96 95 94 99 92 92 96 96 87 71 61 55 72 77 76 81 83 92 88 82 82 86 98 99 94 82 82 85 82 83 88 84 87 64 58 58 60 61
88 92 89 84 78 82 84 83 82 80 79 78 76 72 76 80 80 89 94 91 91 96 95 97 95 89 71 86 87 88 89 91 83 89 90 83 85 92 96 92 78 77 81 81 79 74 73 62 59 58 58 61 70 72
86 89 88 83 80 82 83 83 81 79 78 76 73 80 91 96 97 92 81 91 97 96 95 97 94 97 81 86 92 80 87 87 85 89 90 84 95 94 91 91 85 73 78 80 71 68 65 68 70 67 67 69 75 78
84 83 82 82 84 81 81 81 80 78 77 76 88 95 99 96 81 90 97 100 96 99 97 98 92 93 84 94 93 81 91 96 96 90 88 96 98 83 80 75 77 76 75 72 81 82 70 73 75 76 79 78 79 80
85 84 84 85 84 81 80 80 79 78 77 95 99 99 93 84 97 99 99 99 95 98 97 82 93 96 88 92 94 92 97 97 95 88 92 97 98 84 69 67 67 68 69 71 72 68 66 69 78 79 79 75 75 76
81 81 83 84 83 81 80 78 78 85 92 89 92 94 96 98 100 99 98 96 95 95 97 98 94 90 95 91 92 90 93 94 95 94 95 98 97 73 66 70 68 66 66 70 69 72 74 72 74 77 78 82 85 86
83 81 81 83 82 80 78 79 73 79 87 94 98 100 95 99 98 96 97 96 100 97 96 96 96 92 95 94 95 88 86 97 95 94 94 95 90 74 72 71 76 74 75 77 78 75 75 78 76 76 86 89 90 93
86 82 81 81 80 80 78 78 79 84 92 97 97 98 94 97 92 94 93 93 91 96 95 97 99 93 97 97 95 82 87 89 89 93 91 98 85 81 75 73 78 89 89 88 92 92 95 95 97 96 95 94 92 94
80 78 81 82 81 80 80 82 86 94 91 98 97 98 97 94 96 94 98 100 99 95 93 94 96 93 96 87 82 81 94 93 93 90 96 94 90 88 89 88 92 94 94 95 95 95 96 96 96 100 99 97 95 99
78 79 82 82 81 80 85 90 96 99 95 98 91 98 98 98 87 87 98 99 100 96 97 93 94 89 85 88 88 76 72 91 90 99 100 93 90 89 92 91 93 94 93 95 95 94 96 97 96 96 98 98 99 96
68 86 81 82 81 82 79 97 97 99 99 90 94 99 99 98 98 99 100 99 100 94 95 97 94 86 93 97 88 70 93 96 98 99 98 92 91 94 94 94 95 94 95 94 96 95 95 95 97 96 97 96 95 94
85 85 80 87 86 84 94 96 97 98 99 96 98 97 99 98 98 98 99 100 98 98 97 90 92 91 96 93 95 97 100 99 95 98 99 96 96 95 92 95 95 93 93 94 95 94 96 98 96 95 93 93 95 95
90 84 91 88 86 91 96 96 96 99 95 94 95 97 99 100 99 100 99 99 99 97 96 96 96 98 98 98 98 100 98 98 98 98 99 98 93 93 96 95 94 94 94 95 93 92 95 92 91 92 93 97 98 97
80 91 88 80 83 92 92 97 95 98 98 94 98 99 98 98 99 99 100 98 97 98 99 94 96 98 99 98 98 98 98 95 94 97 98 100 97 94 94 92 93 94 93 94 95 95 96 96 88 93 97 94 97 99
85 90 84 91 91 96 99 98 97 94 98 98 96 97 100 99 99 98 98 96 99 99 99 100 100 99 97 99 98 96 94 90 94 92 92 96 98 94 96 97 94 93 94 97 95 98 99 97 95 87 97 99 98 97
95 94 99 99 99 98 98 99 98 91 95 98 99 94 99 100 100 99 98 99 99 98 98 98 98 99 98 96 97 95 92 91 90 91 94 92 98 97 95 94 96 96 95 95 94 95 95 94 95 96 97 97 97 98
89 91 94 95 99 99 97 99 99 95 97 98 98 98 99 99 98 95 100 96 98 98 97 92 88 91 94 96 91 91 88 85 93 94 94 93 95 95 94 98 94 95 96 97 93 95 92 94 96 97 98 97 96 98
90 95 97 99 99 97 98 98 98 99 99 99 98 100 99 100 93 98 98 99 98 98 97 94 94 96 94 85 97 96 89 83 91 94 90 91 94 94 95 94 95 95 92 92 92 92 93 94 94 94 95 93 95 95
90 95 99 100 98 97 99 98 98 99 99 98 97 99 98 96 99 99 84 98 96 99 100 98 96 95 97 98 98 98 88 83 89 94 98 93 98 94 92 90 92 96 90 93 97 94 96 98 97 95 96 97 95 94
99 95 97 93 99 97 95 100 99 98 97 98 97 97 96 98 99 95 96 98 98 98 97 95 94 97 97 96 97 97 96 95 88 96 98 88 85 89 91 91 93 93 97 95 94 96 96 97 96 95 95 92 92 93
99 97 97 86 95 98 98 97 91 93 95 96 98 97 97 95 92 98 98 98 98 99 97 94 83 84 92 96 95 97 94 90 91 95 95 94 95 93 87 86 91 95 97 92 93 92 94 96 97 96 97 98 98 97
97 97 96 98 98 97 97 98 98 96 97 93 95 96 94 95 97 98 98 97 98 98 96 95 87 84 87 96 95 95 96 94 93 91 88 90 95 97 97 95 92 95 94 93 94 94 94 94 94 95 95 96 97 97
98 98 96 97 97 96 96 96 98 95 94 96 97 97 97 94 98 98 97 97 98 96 95 95 97 94 94 92 93 93 92 88 85 87 96 100 100 99 98 96 96 96 95 93 92 96 89 94 94 94 93 95 96 99
97 97 96 97 96 96 97 97 97 97 93 92 87 93 96 98 98 98 96 96 98 99 99 96 96 93 95 94 97 97 98 99 95 90 92 98 94 99 99 98 96 96 95 93 96 96 93 96 97 96 97 98 99 100
97 97 96 96 96 97 97 98 96 95 97 94 96 96 99 99 98 98 96 97 99 97 95 96 96 97 95 96 95 97 99 98 98 96 94 94 94 97 97 96 97 97 98 98 98 96 95 96 98 98 99 100 100 100
98 96 93 97 98 96 97 98 98 98 99 99 100 100 100 97 100 98 96 96 97 97 99 96 95 98 96 96 97 97 94 99 98 96 95 95 96 95 96 95 94 92 94 94 96 95 95 98 100 100 100 100 100 100
96 95 96 96 99 100 97 98 97 98 98 98 98 98 100 98 100 98 97 95 99 98 96 96 96 96 96 96 98 98 97 97 96 96 94 98 95 94 95 97 96 95 91 93 97 97 100 100 100 100 100 100 100 100

GFSWCAN_sfc_rhum_117.txt.gz
RH
90 84 81 83 88 82 82 79 80 78 78 77 76 79 81 82 80 88 98 95 86 94 82 86 81 80 84 87 94 78 80 85 95 94 93 94 97 93 97 86 94 89 93 92 87 83 90 92 75 85 97 95 98 95
90 89 88 89 87 81 81 81 81 79 80 80 79 83 85 84 82 85 98 95 87 88 74 90 80 71 75 71 89 83 83 91 94 93 87 92 98 97 92 100 81 93 86 90 92 93 95 95 96 96 85 82 80 86
88 93 90 89 86 79 78 82 81 82 80 81 81 80 80 82 80 87 98 98 94 94 85 85 80 75 71 74 72 86 92 84 80 86 95 97 88 94 99 100 91 89 77 94 93 98 94 93 80 71 73 78 75 73
88 90 90 88 84 80 80 82 82 81 82 80 82 83 85 82 79 83 97 98 95 96 95 83 63 72 67 72 75 75 74 75 79 89 90 90 91 84 94 90 95 93 85 95 96 95 93 91 79 76 70 65 65 66
88 89 86 88 86 79 79 82 83 82 81 81 78 80 80 82 84 92 98 98 96 90 95 91 73 68 60 63 68 76 75 80 88 83 92 86 91 88 93 88 93 84 96 99 98 91 92 95 78 70 73 75 71 69
84 85 85 83 83 84 85 81 82 82 81 80 77 75 78 82 84 93 95 92 96 95 94 94 87 76 65 66 67 74 79 87 89 88 88 87 80 84 96 92 88 80 85 88 97 91 91 87 77 70 72 68 65 69
86 84 81 84 83 83 82 80 82 81 81 80 77 74 74 83 95 94 92 98 92 94 96 95 88 73 64 61 73 80 82 88 85 93 92 86 84 88 98 98 93 87 86 86 82 80 88 78 83 66 64 67 70 73
89 83 81 80 84 84 83 83 81 81 80 80 77 73 76 76 78 91 95 89 95 96 95 97 94 88 72 87 86 92 90 93 86 90 92 89 87 93 96 93 83 83 82 82 80 75 79 66 63 66 65 67 70 72
87 88 83 80 83 84 82 82 81 80 79 77 79 78 88 93 96 94 84 88 96 95 96 98 94 98 85 90 94 90 93 93 88 92 91 87 96 93 88 93 90 85 82 81 64 62 65 69 73 72 71 71 75 77
90 91 83 80 84 84 82 82 80 80 80 80 87 93 98 98 78 88 94 98 98 98 93 97 94 91 85 95 95 90 95 97 96 91 89 96 97 89 82 75 73 85 82 78 72 75 73 75 75 74 76 77 77 77
91 86 81 82 83 84 83 81 80 81 77 94 98 100 96 84 97 99 98 99 99 98 97 83 92 96 90 92 94 93 97 98 93 90 92 97 96 92 79 78 83 82 79 77 73 65 65 70 80 80 78 75 75 78
89 85 82 82 81 82 80 80 79 84 90 89 95 94 98 99 100 97 95 95 92 91 97 97 96 94 96 92 93 96 94 95 95 96 95 98 96 84 79 73 72 73 73 74 70 72 75 72 75 75 77 82 87 88
83 83 84 82 80 80 80 79 74 80 88 97 99 99 98 100 99 97 98 90 97 98 98 98 99 91 97 94 96 92 88 96 96 97 97 92 92 80 78 73 76 78 77 77 78 75 75 78 74 76 86 88 89 94
84 84 84 82 80 81 81 78 83 81 90 98 97 98 95 97 96 94 96 94 94 97 97 97 97 95 98 97 98 88 90 92 93 97 92 97 88 86 79 72 76 87 89 86 89 90 93 94 97 97 96 96 94 97
81 83 83 82 80 81 80 83 84 94 97 98 98 93 96 94 97 97 98 97 98 97 95 95 95 94 96 93 91 88 90 97 90 91 93 98 89 85 89 90 93 94 94 94 96 96 96 97 95 99 99 96 91 97
82 81 86 81 80 82 83 88 94 94 96 96 94 98 97 100 97 97 99 98 99 97 97 93 94 90 89 90 88 84 86 89 88 97 98 96 91 90 92 92 93 92 92 94 95 94 95 95 93 93 98 98 100 96
77 94 81 80 82 79 78 94 96 96 99 91 95 99 100 98 99 99 100 99 99 93 94 96 91 88 91 96 95 87 90 92 97 97 99 96 90 93 95 94 94 94 95 95 96 95 96 95 96 94 96 98 97 96
92 84 82 81 77 88 97 94 96 94 95 96 99 98 100 99 99 98 99 100 99 96 96 92 89 92 93 84 95 93 97 99 98 97 98 98 97 95 91 92 95 94 94 94 93 95 95 98 97 96 95 94 96 96
91 89 83 78 86 92 94 97 91 98 98 98 97 98 99 100 99 99 99 99 99 98 96 96 96 98 95 96 96 99 96 100 99 98 100 98 95 93 96 96 95 95 93 94 92 91 93 94 94 96 96 96 98 97
88 90 82 77 79 91 92 98 95 96 99 94 98 100 98 98 99 99 99 99 99 100 100 98 95 96 96 97 98 97 98 98 97 97 96 100 99 96 96 94 94 94 94 95 96 95 97 98 94 95 97 98 99 98
87 90 82 90 92 90 97 98 95 91 98 97 94 96 99 99 99 98 97 97 100 100 99 99 97 98 98 99 99 98 97 94 97 95 97 99 100 97 97 97 94 94 95 97 96 98 98 97 96 97 99 99 98 97
96 96 99 93 98 92 92 93 94 94 96 98 96 95 100 99 99 100 97 99 100 97 98 98 98 98 100 98 98 97 96 94 92 94 96 93 98 98 98 98 96 99 98 97 96 96 96 97 98 97 97 98 98 98
93 86 96 96 95 98 94 97 98 96 93 90 97 98 99 100 98 95 99 98 97 98 98 97 95 93 95 98 93 92 91 88 97 98 97 98 97 96 96 98 96 96 98 98 96 97 97 99 98 98 98 98 98 98
84 93 95 98 96 99 96 98 98 98 99 99 99 99 97 99 98 98 98 98 98 98 98 94 97 98 97 94 99 98 97 91 97 98 96 95 97 99 96 97 98 95 92 96 98 98 96 95 96 96 98 98 100 96
87 97 94 93 97 98 99 98 99 99 98 98 98 100 98 96 100 100 88 96 99 99 100 99 97 97 98 99 99 99 92 89 95 97 99 96 99 98 99 98 99 98 97 97 98 96 96 96 95 96 96 97 94 97
96 91 97 94 96 95 94 98 98 98 97 99 98 97 97 99 100 97 98 99 98 97 100 98 97 96 96 96 98 98 97 96 92 98 100 96 93 93 96 95 96 95 98 96 93 93 94 96 98 96 97 96 96 97
98 96 97 91 95 96 98 98 92 96 98 98 98 99 98 100 93 98 98 98 99 98 98 96 89 88 90 96 97 98 97 95 96 95 95 95 96 96 92 91 94 95 97 93 94 93 93 96 98 97 96 98 98 97
97 97 95 96 98 97 97 97 98 96 96 96 96 96 96 94 97 98 99 98 98 97 96 94 92 91 94 97 97 97 97 94 93 92 89 91 94 97 96 96 93 98 95 94 94 94 94 94 94 97 97 98 98 98
98 98 97 97 97 96 96 96 96 95 95 97 97 99 100 98 99 98 97 96 97 96 98 97 97 96 96 95 96 96 95 95 90 92 96 100 100 98 98 96 96 96 95 94 94 95 89 92 94 96 95 96 100 100
99 96 96 97 96 96 97 98 98 98 95 95 92 93 94 98 98 97 97 97 98 99 99 98 98 97 96 95 96 96 97 97 96 96 96 96 94 98 98 96 95 96 94 94 95 95 96 99 99 97 98 99 100 100
97 97 96 96 96 97 98 98 98 97 97 96 97 96 96 97 97 97 96 97 98 98 97 97 96 96 96 96 97 97 98 97 96 95 94 93 95 97 97 96 96 95 95 95 95 98 98 97 100 100 100 100 100 100
97 96 96 96 97 97 97 97 97 97 97 98 99 98 98 96 100 98 96 97 98 98 98 96 96 98 97 97 96 97 96 99 99 96 93 94 96 97 96 97 97 94 94 96 95 95 96 99 100 100 100 100 100 100
96 96 96 96 98 98 96 97 97 98 98 100 99 100 100 98 99 98 97 95 98 99 97 97 97 96 96 96 97 98 97 97 97 97 96 98 95 97 96 96 95 94 92 94 98 99 100 100 100 100 100 100 100 100

GFSWCAN_sfc_rhum_120.txt.gz
RH
88 85 86 89 88 87 81 79 81 79 78 76 77 80 83 83 76 89 99 95 83 94 84 83 76 78 85 84 86 71 80 86 95 93 91 94 97 95 98 88 97 89 93 93 92 81 91 90 82 87 96 97 88 94
85 85 88 86 89 87 81 79 80 81 81 77 78 82 85 85 80 83 97 94 82 86 79 91 84 75 75 68 86 90 86 93 94 94 95 93 98 98 92 99 86 93 86 87 92 91 96 87 95 82 80 88 94 93
89 84 84 85 86 88 85 84 82 80 81 80 82 83 84 82 80 84 98 98 90 91 85 84 82 78 72 75 73 86 92 86 83 89 96 98 90 95 99 98 93 91 77 90 90 96 91 85 78 72 77 86 89 77
90 89 88 90 89 87 87 86 82 81 84 83 84 86 88 82 79 82 97 98 93 93 94 87 65 75 76 73 77 75 78 79 85 90 92 92 92 89 96 91 94 93 86 95 95 95 91 82 80 75 74 71 71 73
92 89 91 91 89 88 87 85 81 83 82 83 83 85 83 81 83 90 99 99 95 85 93 89 76 72 67 74 74 79 78 83 90 82 92 87 92 89 96 91 91 84 90 95 96 89 90 90 81 74 74 76 72 75
94 90 91 90 85 82 89 84 79 81 82 83 82 83 83 81 76 91 95 92 97 94 90 95 86 74 67 66 70 76 84 91 93 89 90 88 84 85 97 98 85 81 85 89 97 92 91 85 79 72 76 73 71 73
89 90 89 86 82 81 88 86 80 81 82 82 82 82 80 81 96 93 94 94 91 92 93 93 85 76 67 66 80 86 88 92 88 94 93 90 87 87 98 99 91 92 88 88 81 78 83 71 79 69 70 73 73 74
88 88 90 88 87 89 89 85 79 81 81 80 79 80 77 74 80 94 97 90 92 96 92 96 93 85 68 84 87 94 91 93 90 92 94 92 89 94 97 94 89 85 81 82 80 78 84 73 69 72 68 69 73 76
87 85 85 86 86 86 86 81 79 80 80 78 79 74 85 93 95 98 87 86 97 91 97 96 87 98 87 94 94 92 93 94 89 96 91 88 96 95 86 94 95 85 83 77 67 68 73 72 74 73 72 73 76 79
84 85 85 84 83 82 82 78 78 81 82 76 85 91 97 95 78 88 91 95 96 94 96 96 95 97 90 95 95 91 96 98 96 92 91 96 96 89 87 86 79 89 72 64 74 78 75 77 76 75 75 76 77 79
84 85 85 84 83 83 82 77 80 81 74 92 99 99 96 84 94 98 99 98 99 97 92 87 92 97 92 93 94 93 97 98 90 92 93 97 96 94 87 88 79 87 77 72 71 68 66 70 75 78 78 75 76 79
84 85 83 82 83 83 81 79 78 83 86 86 96 92 97 98 98 93 90 98 90 84 97 95 96 92 97 92 94 97 95 95 95 96 94 92 93 87 87 83 81 86 84 79 69 72 76 71 75 76 79 83 87 88
85 83 83 84 82 82 82 77 78 85 91 98 98 99 96 99 98 95 96 92 95 98 99 99 98 95 98 94 96 94 92 98 96 98 98 92 90 84 85 82 78 81 79 78 78 76 75 78 75 77 87 90 90 92
86 82 83 83 82 82 78 82 82 81 90 97 96 99 93 99 98 95 95 96 95 97 98 98 99 97 99 97 98 89 92 94 96 95 90 94 92 88 84 80 78 88 90 88 89 88 90 92 94 95 94 95 94 97
84 82 81 81 82 80 78 80 79 92 96 98 95 92 94 94 96 97 97 94 96 98 96 96 94 94 97 95 95 89 93 99 91 90 93 96 94 89 92 91 93 93 94 94 95 94 95 96 95 100 100 99 94 99
84 80 88 83 82 81 81 85 94 93 97 96 92 96 98 99 99 99 99 94 99 98 97 92 93 91 90 92 89 92 90 92 87 95 97 98 95 92 93 92 93 94 94 96 95 95 96 95 93 94 98 96 96 94
82 96 82 84 83 80 76 89 94 96 99 89 96 99 99 99 100 100 100 100 96 94 94 95 87 85 91 96 96 92 90 90 94 99 98 98 94 94 94 94 94 94 95 95 96 95 96 94 93 92 91 98 96 95
92 88 85 77 76 83 95 91 95 92 94 98 97 98 100 99 99 98 99 100 99 95 92 90 89 94 94 91 94 92 98 99 99 97 99 98 97 95 93 93 94 93 94 95 94 95 96 96 93 91 91 92 95 97
87 86 77 71 78 87 89 92 92 95 97 97 98 98 100 99 99 98 99 99 99 94 93 97 94 97 96 95 94 99 99 96 99 99 100 98 97 95 95 95 95 95 93 94 92 90 91 93 95 95 94 92 97 96
80 78 80 80 77 90 90 97 94 92 97 94 98 99 98 98 99 97 98 99 99 100 99 98 96 95 95 95 96 97 98 98 98 99 98 100 99 96 96 93 93 94 94 95 96 95 96 99 98 96 97 97 99 99
96 91 88 88 94 93 95 96 91 90 98 97 96 94 100 93 99 98 97 97 96 96 99 98 97 96 98 99 99 98 98 96 97 97 97 100 100 97 97 97 94 94 96 96 96 99 98 97 96 97 100 100 99 99
99 92 97 90 96 87 90 88 95 96 96 99 98 96 98 100 100 99 98 98 98 96 97 99 99 98 100 99 99 97 96 94 94 96 96 94 99 99 99 98 96 98 96 96 93 95 97 97 98 98 100 100 99 98
94 89 95 93 90 96 96 97 93 96 92 93 95 94 96 99 98 95 98 96 98 98 99 98 95 93 96 99 95 94 92 90 98 98 98 99 98 97 97 97 96 96 98 98 97 96 96 99 99 100 99 98 98 99
79 90 87 98 92 97 97 98 89 91 97 94 95 99 97 96 98 96 89 98 98 98 96 96 98 98 99 95 99 99 98 93 97 99 98 97 99 100 97 97 97 96 94 96 97 99 98 100 98 97 98 98 100 99
76 82 86 100 92 93 100 97 98 98 100 99 99 99 96 98 100 99 95 97 99 99 100 98 97 97 99 100 100 99 93 95 96 99 100 97 98 98 100 99 99 98 97 98 100 100 100 98 97 95 96 98 93 98
89 92 92 92 89 96 96 100 98 99 99 100 99 97 98 100 99 96 97 98 99 98 98 98 97 96 95 91 96 99 98 97 95 99 100 97 95 95 98 99 99 97 98 97 96 96 96 95 94 93 97 97 97 97
99 97 98 92 95 93 98 98 92 97 99 99 98 98 97 98 99 97 96 98 99 97 94 96 94 93 95 95 99 98 97 95 96 96 95 96 97 98 96 96 96 95 97 95 93 90 91 93 98 97 96 98 97 98
96 97 94 96 98 98 97 98 97 97 96 96 96 96 96 97 95 97 99 98 97 96 96 95 92 94 97 99 96 96 96 96 94 94 92 92 95 97 96 96 94 97 95 95 96 96 95 94 96 96 96 100 100 100
99 98 97 97 97 97 97 97 97 95 95 95 97 96 97 97 98 99 97 96 96 98 97 99 98 97 96 95 96 96 97 98 94 96 97 98 98 98 97 96 95 95 94 92 90 93 90 93 94 96 100 100 100 100
98 96 96 97 96 96 96 97 98 99 98 97 95 97 97 98 98 98 97 96 98 100 99 98 98 97 97 96 97 96 96 97 97 97 96 97 96 98 98 95 95 96 95 94 95 97 98 100 100 98 99 100 100 100
97 97 96 96 96 97 98 98 98 97 97 96 98 97 97 98 97 96 95 96 98 98 98 98 97 97 96 96 97 97 98 97 96 94 94 94 95 95 95 96 96 94 93 94 96 98 98 100 100 100 100 100 100 100
97 97 96 96 97 97 97 97 97 97 97 97 97 97 97 97 96 96 96 96 97 97 98 97 96 98 97 97 96 97 95 98 98 96 91 92 94 97 95 96 96 93 94 95 96 97 98 100 100 100 100 100 100 100
96 96 97 96 97 96 97 97 96 97 97 97 97 97 97 96 96 98 97 96 98 98 97 98 97 97 97 97 97 97 97 97 97 99 98 99 95 97 96 95 94 93 93 97 99 98 99 97 98 100 100 100 100 100

GFSWCAN_sfc_rhum_126.txt.gz
RH
87 84 85 88 89 87 84 80 80 74 76 79 81 84 82 81 77 61 74 69 50 70 68 55 52 54 52 38 46 59 59 62 63 58 50 57 60 59 62 54 58 54 66 73 73 80 83 69 82 79 85 67 59 55
89 86 87 90 90 89 83 82 81 80 79 81 82 85 83 82 80 70 63 58 52 55 65 64 65 60 45 43 52 61 58 60 52 54 53 54 70 72 53 84 54 67 57 58 76 81 78 74 81 65 58 66 60 58
90 86 86 91 90 88 87 84 84 83 81 83 84 85 83 81 78 71 70 59 49 71 57 49 64 58 51 56 56 54 68 62 63 60 68 68 66 49 70 60 66 66 55 67 75 84 74 70 64 63 62 65 56 52
90 85 87 91 91 87 90 85 84 84 85 87 89 87 84 80 79 74 73 75 62 56 80 74 54 62 57 53 57 55 63 62 60 50 57 58 62 60 59 58 54 56 57 76 88 81 71 62 62 70 67 58 54 52
90 87 88 90 88 85 90 86 81 86 88 88 88 85 82 80 77 68 81 67 61 51 76 73 60 60 57 55 56 53 53 52 47 49 62 64 54 55 60 60 62 53 67 79 91 83 69 74 61 60 62 60 55 54
90 88 91 91 88 88 88 80 77 86 88 89 87 84 77 72 66 55 98 67 65 68 64 76 66 61 59 54 56 58 55 55 46 45 51 51 63 58 69 62 64 57 59 63 79 65 73 70 60 54 56 53 49 49
92 89 90 90 88 89 87 81 77 79 88 88 83 81 82 83 76 74 82 80 80 64 76 80 70 62 54 54 56 55 57 54 46 46 46 45 58 55 78 70 69 60 62 66 64 65 73 60 62 52 49 49 50 45
88 88 89 90 90 90 83 80 76 84 86 88 88 85 84 83 79 75 81 80 70 67 58 76 89 70 56 57 67 58 56 51 53 53 58 47 59 61 70 61 56 57 62 64 60 56 55 51 48 49 49 48 49 48
88 89 90 90 90 84 80 80 81 85 83 80 75 73 69 79 83 80 84 76 75 68 77 87 78 91 59 69 66 65 53 80 56 68 56 56 57 73 53 55 57 58 61 61 55 51 52 53 51 52 50 50 50 52
91 92 91 91 86 82 81 80 82 78 76 69 62 74 100 90 82 75 70 78 78 77 69 79 66 91 63 69 71 70 69 68 73 65 59 73 68 62 57 48 50 55 52 56 61 62 56 54 53 52 51 50 51 51
91 91 91 89 84 82 80 80 78 74 64 73 96 96 91 83 71 78 99 89 82 80 68 70 64 83 64 79 77 67 75 74 76 72 75 71 63 62 62 56 52 51 52 50 47 49 48 49 52 53 53 53 54 55
90 90 91 88 84 82 81 82 74 60 62 73 87 93 84 78 84 89 86 83 70 66 70 77 72 67 82 70 67 75 81 81 72 72 86 80 67 58 60 61 57 54 52 51 49 51 52 50 51 51 53 56 59 60
88 89 89 86 81 79 81 74 71 82 83 82 79 97 93 94 90 87 91 80 82 86 83 84 94 85 80 71 92 75 96 94 71 91 76 66 59 58 63 61 60 55 55 53 52 52 51 53 52 54 60 64 74 76
89 89 89 88 82 80 78 85 79 73 70 86 92 95 91 94 82 80 71 80 89 85 85 86 93 80 85 92 100 96 92 80 92 82 67 66 77 73 67 65 65 78 79 73 71 72 78 76 80 82 86 85 87 86
87 88 90 91 84 76 82 80 75 74 79 92 82 90 88 88 91 94 95 92 88 78 84 86 80 71 93 99 86 86 96 83 70 70 74 78 94 82 86 84 96 96 91 89 88 88 90 90 89 90 88 84 82 84
88 88 89 84 81 78 77 74 74 74 76 79 84 92 95 93 99 100 100 100 85 82 76 68 78 90 90 80 82 81 65 62 76 81 77 77 93 89 93 93 95 93 91 89 88 86 87 89 87 85 86 85 84 81
77 97 86 81 76 75 72 73 72 85 76 79 95 96 99 99 100 100 100 96 83 82 97 69 81 76 70 74 77 65 83 79 81 85 89 95 100 96 92 90 92 91 90 88 87 85 85 83 87 80 83 84 77 76
92 89 79 74 67 72 74 72 69 64 85 89 93 97 97 100 100 100 100 92 84 76 73 70 66 77 81 76 73 82 83 87 87 92 91 95 99 92 92 94 89 87 88 88 86 87 87 87 78 71 72 74 68 67
84 78 78 70 62 59 63 69 69 74 88 89 92 91 93 97 96 98 99 97 84 74 74 77 91 75 82 76 90 98 97 95 96 93 87 94 92 90 90 89 88 87 86 87 83 72 70 74 64 57 54 52 52 54
82 80 78 73 65 58 65 71 69 63 73 87 79 82 86 91 92 100 100 99 98 95 92 88 87 96 94 92 84 88 93 89 78 83 88 86 84 90 91 83 74 83 77 80 76 72 66 63 56 53 52 52 60 64
68 79 76 68 69 66 68 67 67 77 72 79 79 72 82 78 88 95 94 89 98 88 87 91 100 92 94 94 86 79 83 73 74 75 78 84 83 75 78 77 81 72 70 73 75 73 73 65 61 55 74 79 78 79
79 73 74 68 71 72 75 72 74 73 74 80 77 73 88 94 94 94 81 83 76 87 89 89 86 80 83 96 90 86 95 83 79 76 80 79 79 77 77 78 74 80 75 82 72 80 74 60 64 70 80 84 83 81
72 66 68 61 76 81 93 73 81 71 76 77 73 78 86 90 83 74 86 71 85 86 82 83 82 80 85 90 78 77 80 74 74 77 78 74 71 77 75 74 75 84 80 72 65 72 76 66 77 83 82 85 85 88
68 82 86 85 78 96 87 80 67 66 71 77 77 84 85 86 82 80 79 80 84 78 78 83 80 83 81 78 71 71 72 64 67 71 70 67 69 72 68 70 70 72 68 67 71 74 78 83 81 80 87 89 87 86
70 86 79 88 82 89 95 90 82 78 89 82 85 88 84 86 84 80 80 82 86 90 87 82 82 83 83 82 75 74 76 68 65 67 73 68 75 73 73 70 70 67 71 85 86 87 87 87 86 88 86 87 84 81
82 87 78 77 86 78 87 97 92 95 88 94 93 85 90 85 92 90 76 88 91 86 94 93 90 83 81 81 82 81 79 69 66 72 74 67 69 84 86 86 83 80 73 84 86 86 86 85 88 88 90 89 81 82
84 95 86 72 67 74 92 89 79 89 92 97 90 93 90 91 88 82 79 79 77 83 80 80 81 82 82 78 78 80 80 80 84 78 76 72 73 72 80 83 81 80 78 85 87 88 90 90 90 89 90 89 87 85
84 86 90 94 91 83 93 97 95 95 89 76 83 92 89 84 82 85 81 81 86 80 80 80 79 78 78 80 82 85 87 88 90 84 80 80 81 84 87 87 86 86 87 87 89 87 88 88 88 88 89 91 92 87
98 92 85 98 91 92 89 89 89 85 81 86 93 89 89 79 87 86 80 84 84 85 85 87 91 89 87 85 88 86 87 88 90 90 90 92 92 93 89 89 87 86 88 90 88 86 85 88 88 88 87 89 90 88
88 86 90 90 92 88 94 89 93 92 79 84 77 76 75 86 88 83 84 85 88 93 93 92 92 91 92 91 93 93 92 93 93 94 92 91 92 92 92 90 88 87 86 86 89 88 87 87 87 87 87 87 85 83
87 91 92 88 90 92 93 92 92 89 89 88 90 90 86 88 89 87 87 90 90 90 90 91 91 91 92 93 92 93 95 93 91 90 89 90 91 89 86 85 84 83 82 82 84 85 86 86 86 84 81 82 83 82
94 93 93 92 91 90 90 89 90 90 90 90 91 89 91 90 89 90 91 92 89 91 92 92 92 94 93 92 93 93 87 90 90 88 83 84 86 85 84 83 85 85 86 86 85 84 81 80 80 79 83 85 85 84
92 93 92 92 91 89 91 90 84 88 89 88 90 90 90 91 89 92 90 93 94 93 93 93 93 93 93 92 90 91 88 90 88 89 89 87 84 84 84 84 83 82 81 82 82 78 76 76 82 84 86 85 86 85